GFSWCAN_2pvu_pres_000.txt.gz
Presure
269 255 286 349 390 532 614 575 400 358 351 332 315 308 314 323 323 300 273 244 245 236 226 215 203 232 232 232 227 219 214 207 207 204 210 212 190 203 193 206 206 205 223 212 217 226 183 213 212 211 229 254 194 190
269 254 281 365 379 538 626 613 407 371 350 324 306 316 300 256 230 304 251 241 240 232 221 208 193 235 227 226 230 214 216 213 209 208 209 207 206 200 205 204 196 195 220 255 247 223 229 222 231 235 220 234 179 187
268 254 277 338 465 585 608 628 529 376 346 317 312 318 309 314 120 118 242 245 237 231 218 219 221 225 227 228 228 221 211 219 205 206 206 209 214 202 245 198 202 210 207 217 233 233 240 247 262 293 286 210 193 192
269 251 274 344 370 618 606 479 425 366 349 346 326 316 321 296 306 130 123 245 229 230 212 212 226 236 231 229 227 227 211 211 214 208 213 218 221 226 227 235 205 198 197 199 207 231 238 243 277 296 273 211 203 202
265 253 275 350 363 511 612 417 590 375 340 318 315 326 315 288 292 250 211 194 228 227 210 225 208 239 234 227 229 230 218 216 205 213 203 205 207 210 228 292 304 265 282 202 198 203 213 231 300 320 293 272 206 207
258 253 273 326 356 521 601 480 608 386 351 339 224 338 311 303 280 251 245 235 229 220 219 229 221 201 231 228 232 229 228 232 209 208 210 205 207 212 218 218 225 229 274 274 265 265 201 200 202 215 283 287 292 291
259 255 270 306 365 515 626 529 611 470 341 327 325 291 316 297 277 257 244 237 230 223 218 207 215 245 244 228 225 227 233 223 231 221 205 215 210 211 210 210 213 215 215 216 198 226 218 206 201 198 198 199 202 233
259 255 270 302 360 544 602 601 613 625 350 339 322 294 308 297 274 247 243 237 231 221 222 216 163 227 241 239 229 232 234 224 225 228 233 203 209 211 203 206 202 200 197 201 206 208 210 213 215 219 222 223 225 227
261 253 269 294 356 579 604 606 614 596 355 338 334 331 304 300 269 253 245 236 237 223 209 219 214 160 223 229 253 234 229 229 227 229 225 230 225 205 207 202 199 196 193 195 196 194 191 198 196 195 193 196 198 194
259 252 267 291 354 490 602 404 614 462 354 339 343 323 282 295 264 252 242 237 236 211 220 206 187 231 227 221 224 238 245 234 227 230 230 225 221 220 229 226 203 199 198 198 199 199 199 199 197 197 198 201 230 218
257 250 266 285 355 362 618 376 575 458 375 333 340 320 298 249 267 257 245 242 229 229 211 200 214 216 161 228 228 216 220 229 245 246 226 224 224 225 222 222 222 223 217 220 220 218 227 217 217 223 229 233 234 237
257 247 266 279 315 364 613 614 594 590 341 343 319 323 313 297 275 261 257 244 230 227 215 205 207 214 161 226 230 196 232 214 217 234 245 237 227 228 230 223 223 226 224 224 228 228 226 224 226 229 223 235 235 234
254 247 260 273 307 352 605 610 579 585 355 330 330 303 313 257 262 96 265 238 229 218 223 217 201 216 213 161 207 217 206 225 197 207 195 210 246 288 247 230 234 233 232 224 220 223 218 223 226 232 225 236 225 242
252 244 258 268 297 335 601 604 581 577 383 324 331 312 313 299 299 280 127 165 212 218 228 227 197 211 224 187 171 212 216 214 213 203 195 210 225 236 249 302 259 242 231 235 234 235 232 231 235 227 228 214 241 256
251 244 254 262 282 297 338 595 584 535 359 329 326 315 309 311 296 287 254 243 225 220 229 230 226 225 216 217 174 175 157 177 194 208 211 204 217 220 227 196 214 302 272 246 242 228 235 233 234 215 218 234 253 226
250 242 249 261 273 289 330 602 582 497 374 341 323 325 328 300 304 293 261 251 242 191 229 233 226 223 219 213 219 220 209 212 150 141 188 214 216 217 205 202 230 226 293 280 275 272 268 259 213 241 150 156 164 162
253 236 244 255 268 278 325 374 582 567 373 344 324 323 325 327 303 143 271 250 253 244 233 235 233 221 226 217 207 215 205 193 204 215 185 149 150 154 203 215 142 144 159 165 201 286 251 276 277 250 164 137 129 135
253 236 242 253 262 274 294 316 592 572 371 356 328 320 327 326 323 305 281 269 260 251 241 231 226 230 222 215 213 211 214 221 214 211 203 213 219 213 208 216 182 156 157 139 156 154 152 175 248 168 169 142 184 207
250 239 242 249 257 269 284 323 530 570 364 348 349 324 317 327 327 297 299 270 269 258 251 239 236 233 231 219 210 218 204 207 209 216 211 209 215 215 214 213 213 214 218 216 212 214 213 213 212 212 212 210 206 207
250 248 243 247 258 271 283 326 307 567 558 358 340 333 318 319 320 309 289 291 271 267 253 250 243 232 238 238 231 213 216 214 206 194 209 213 210 211 210 208 207 212 214 213 214 213 213 213 209 207 204 203 202 197
250 260 242 253 261 271 294 328 322 461 562 516 362 340 316 322 308 307 307 293 277 279 265 257 254 242 235 235 238 234 227 214 208 208 208 210 209 211 202 195 200 197 200 200 202 206 205 205 206 207 206 201 201 201
243 253 240 252 261 268 283 328 317 464 432 535 504 366 333 315 313 305 309 312 300 277 270 267 268 265 244 237 234 234 233 233 227 219 205 203 206 206 207 210 208 200 195 199 200 203 203 202 201 201 200 201 203 204
243 242 247 254 259 270 316 324 317 470 453 493 509 507 349 330 319 305 310 315 307 294 276 269 267 269 271 262 241 237 235 235 236 234 230 223 218 218 218 214 210 208 179 179 209 207 204 204 204 202 199 191 204 211
245 243 247 255 262 277 323 320 312 469 457 420 504 480 467 339 320 309 307 315 312 300 285 267 265 267 268 266 263 243 238 237 236 234 233 229 224 226 227 228 230 227 220 215 205 206 210 211 210 209 209 212 212 211
240 254 249 255 268 291 322 317 365 469 454 426 455 480 463 412 335 322 311 312 313 303 288 276 274 267 261 262 261 263 262 253 244 239 238 235 233 232 231 230 231 231 229 229 231 232 231 226 226 226 226 228 229 227
243 248 255 260 282 303 319 309 470 460 445 431 399 479 456 443 391 334 326 312 312 307 298 290 275 270 267 260 255 257 258 260 260 257 255 253 251 248 244 241 238 237 233 231 233 233 234 235 237 237 239 242 247 269
253 255 255 276 282 313 315 417 472 456 442 426 402 394 461 433 424 348 326 315 307 301 300 290 283 280 277 271 268 263 260 254 251 252 251 248 248 247 247 247 248 251 253 254 257 254 251 251 254 264 268 267 260 258
253 254 268 278 295 317 321 479 474 454 437 422 404 379 468 443 414 405 331 316 314 294 292 295 292 288 279 274 273 272 270 268 266 264 265 266 264 264 263 263 263 265 267 272 275 276 274 271 264 266 269 272 277 277
254 269 271 284 311 313 477 472 451 375 381 408 400 380 379 448 424 396 379 326 308 298 295 286 296 291 290 286 278 275 268 264 262 262 262 262 263 263 263 263 264 268 268 263 262 261 261 262 263 266 273 275 273 272
267 270 276 309 308 418 416 453 376 363 411 398 387 374 362 498 428 409 383 363 325 308 298 292 289 291 287 283 284 283 278 280 280 275 270 262 255 255 258 259 255 254 256 257 259 263 264 269 270 270 273 273 274 275
270 275 308 308 408 420 402 427 374 362 398 386 369 362 362 502 435 411 397 374 353 324 308 297 297 291 298 293 282 285 289 282 275 272 271 273 276 275 273 269 265 263 266 267 267 268 271 267 268 272 274 277 283 284
277 304 308 430 430 394 452 401 366 355 386 367 353 346 386 498 489 414 397 385 361 348 329 315 306 302 303 302 293 284 282 280 280 283 283 277 270 269 273 276 276 269 268 273 274 273 274 275 273 273 274 279 278 266
306 305 452 428 397 378 374 382 358 355 381 352 342 339 383 487 479 470 401 383 374 361 352 331 325 319 311 305 305 300 290 291 289 286 291 296 298 293 290 284 288 292 294 294 287 284 284 284 287 287 288 291 296 303

GFSWCAN_2pvu_pres_003.txt.gz
Presure
278 297 297 271 264 294 372 591 573 409 370 332 317 314 308 299 295 294 293 297 287 265 245 245 235 231 189 218 237 217 223 219 225 214 223 251 185 220 202 190 224 226 220 207 185 231 213 205 224 219 171 212 247 250
311 235 293 268 261 285 355 583 578 430 355 332 325 298 314 287 312 157 305 292 270 256 246 238 232 229 189 237 227 221 214 218 211 217 215 215 217 214 213 213 192 223 231 238 190 169 216 172 211 178 208 232 227 244
315 239 295 262 261 288 349 642 553 618 398 335 309 306 327 301 323 181 287 285 264 246 240 235 233 221 222 238 228 219 212 216 219 202 206 207 207 205 192 186 207 180 175 186 241 258 237 227 195 210 227 280 263 232
309 289 294 259 262 287 338 636 516 625 440 336 309 320 298 297 310 325 130 208 232 248 238 233 228 208 226 237 233 218 216 206 214 217 216 216 205 197 197 200 182 207 207 208 210 247 227 224 239 252 268 276 284 283
303 291 298 259 264 285 327 499 638 416 437 380 325 316 306 315 297 303 288 134 124 242 237 235 230 216 229 236 230 228 214 210 215 214 213 214 213 149 220 216 198 199 172 199 205 223 229 233 234 239 278 289 293 293
315 294 299 256 265 289 325 422 628 544 637 382 360 318 320 317 317 321 267 259 133 231 233 232 229 234 233 229 229 232 218 211 216 213 212 212 217 213 103 225 313 233 197 198 198 196 197 193 208 225 239 292 289 290
316 298 292 274 265 288 315 587 441 641 649 395 353 339 313 300 318 306 263 255 245 233 230 231 217 179 244 226 231 233 216 219 211 202 215 215 212 210 175 222 275 297 222 278 273 265 272 256 196 197 197 207 276 287
308 294 291 279 263 284 305 412 567 637 638 421 355 326 335 311 317 278 261 256 248 237 232 228 223 221 246 231 208 237 232 225 229 209 208 206 215 209 205 206 213 214 217 214 216 216 210 105 200 200 198 198 198 199
298 286 289 282 263 282 298 341 633 606 618 614 365 338 329 301 318 277 264 256 251 235 234 226 225 199 239 235 233 234 230 229 223 227 223 210 205 204 218 211 207 208 202 204 205 207 210 209 209 211 211 211 211 211
276 303 284 284 256 275 295 335 632 612 609 548 361 282 339 298 225 282 267 251 251 237 233 224 218 213 228 199 235 227 231 227 229 231 224 210 236 212 199 211 211 203 205 206 204 203 200 200 198 198 200 203 202 198
269 274 276 285 253 268 290 318 628 610 602 520 349 341 344 311 313 287 271 260 253 239 236 228 210 219 207 233 175 241 230 232 233 231 229 231 229 224 230 228 210 205 201 198 201 206 201 201 202 201 201 200 199 204
255 259 279 285 250 264 285 307 474 597 592 540 343 343 300 325 307 297 278 265 249 230 233 228 220 208 194 215 182 202 246 235 231 229 226 227 232 229 226 222 219 220 220 220 221 221 219 218 216 217 219 224 226 227
255 260 287 280 250 258 276 295 352 604 588 409 342 335 289 326 302 305 285 266 244 142 233 230 228 217 211 212 183 174 222 237 245 243 240 242 238 223 225 225 227 224 224 224 223 224 222 223 225 225 227 227 228 227
264 261 293 281 262 253 269 283 318 604 572 368 342 334 332 283 302 309 267 259 244 242 240 235 230 226 220 212 203 218 162 192 215 219 227 235 274 271 235 226 227 234 237 233 232 232 231 226 229 229 225 227 226 228
264 267 294 282 264 254 261 282 298 456 581 372 349 332 340 337 310 291 298 273 246 166 237 235 230 231 226 215 212 213 221 188 206 209 209 199 215 212 201 236 237 241 243 246 259 296 282 254 246 237 230 237 235 237
277 268 300 280 268 254 251 272 284 320 594 389 344 343 336 345 339 289 302 285 254 245 240 234 234 230 230 225 202 202 215 215 201 153 218 216 200 195 192 194 203 214 226 206 230 232 254 319 304 287 250 238 245 246
281 286 292 278 268 256 253 262 281 289 313 530 355 353 334 341 346 288 282 292 269 249 247 241 237 238 229 228 223 208 204 146 106 143 150 152 217 213 204 205 199 203 218 213 215 194 214 244 284 245 283 274 275 275
273 286 298 278 263 268 251 255 269 280 325 313 381 347 339 335 331 319 311 289 290 260 152 249 106 235 233 222 221 225 224 214 212 225 194 197 205 159 163 200 197 197 192 143 143 144 147 147 149 151 236 241 154 157
266 295 294 276 257 254 248 251 261 270 328 317 372 414 342 330 326 326 311 302 304 284 257 162 245 241 233 226 227 227 232 229 220 210 210 216 177 151 213 213 214 217 216 176 152 174 150 146 153 156 176 214 215 214
261 293 279 274 255 258 246 247 252 267 273 321 305 468 428 341 331 322 321 321 302 300 281 99 246 240 242 240 231 229 227 231 230 220 219 209 211 217 215 214 211 211 218 219 214 213 213 212 213 214 215 215 215 214
266 299 283 273 250 251 241 252 252 264 275 328 313 302 462 400 339 328 319 310 316 324 84 278 265 247 239 243 244 235 232 231 229 229 213 214 220 207 209 210 213 218 214 212 212 210 207 210 213 214 214 213 212 212
277 302 280 272 251 248 255 248 255 262 277 313 320 321 588 472 366 343 331 319 319 314 321 301 282 268 263 246 249 244 243 237 232 226 224 225 211 209 214 214 205 196 200 205 208 209 205 198 202 201 200 202 202 201
283 269 272 267 248 252 259 257 252 264 280 296 327 470 466 559 471 362 344 337 321 318 322 318 308 281 274 267 260 248 247 243 242 236 230 227 225 225 219 201 208 211 212 209 209 212 215 208 205 209 205 173 201 205
296 281 270 265 248 250 253 256 256 269 283 301 328 461 483 450 533 505 358 338 331 325 313 323 309 299 286 275 266 264 268 253 246 244 239 236 233 229 228 227 226 224 220 220 220 215 215 214 212 198 216 219 220 224
272 272 269 250 239 252 249 254 262 276 285 310 330 478 471 441 514 506 485 346 331 324 318 318 316 304 293 282 276 269 262 259 255 250 245 244 243 238 231 202 228 231 229 227 228 229 228 229 232 232 227 223 225 232
276 271 255 242 250 248 252 255 270 281 293 329 440 467 462 453 411 498 485 455 342 327 316 314 316 317 303 299 287 281 279 266 263 260 256 252 250 251 249 240 233 230 227 225 226 230 231 233 233 233 229 230 230 234
265 263 258 250 253 253 253 267 279 287 305 357 483 466 456 446 418 475 471 465 413 341 330 321 316 314 316 296 292 289 283 274 268 258 255 254 254 259 260 259 258 255 250 240 235 236 238 238 239 241 242 249 254 254
263 260 252 249 249 254 263 274 283 294 323 490 473 450 403 443 416 384 470 454 443 405 345 328 309 312 318 313 298 291 287 284 280 274 269 260 252 252 256 259 259 257 259 260 262 264 264 266 263 264 260 257 260 281
264 258 251 251 252 259 268 277 293 313 443 475 433 392 389 427 420 382 465 449 428 423 399 334 319 316 313 298 302 295 287 286 278 271 268 267 263 261 262 260 258 256 255 256 259 263 264 265 266 274 277 276 276 269
261 251 245 252 254 264 272 290 307 467 486 445 450 387 419 414 402 376 366 448 417 411 409 360 322 311 303 290 292 295 292 286 282 277 270 267 264 262 261 261 262 265 268 268 266 266 269 272 274 273 270 269 265 263
248 244 249 254 264 272 286 299 479 455 403 455 383 393 404 388 373 365 359 442 408 392 392 399 341 313 305 301 297 295 296 296 290 288 284 279 275 273 271 266 264 265 264 264 265 266 266 263 263 265 265 272 275 274
245 249 254 264 271 283 291 342 435 419 382 385 367 400 384 365 354 353 354 438 402 379 384 364 329 315 305 302 297 294 295 298 294 291 291 291 281 276 275 271 267 267 267 268 267 267 271 274 275 275 272 271 278 278
250 256 266 269 279 288 313 413 391 384 387 407 359 388 371 354 336 381 466 437 409 374 371 355 339 321 308 301 297 297 296 292 291 289 291 286 291 289 281 280 279 278 276 275 275 274 273 269 271 274 277 281 283 284

GFSWCAN_2pvu_pres_006.txt.gz
Presure
257 272 297 306 329 304 283 270 269 593 455 364 347 315 311 293 309 300 134 238 296 293 281 276 271 273 264 252 231 217 226 226 235 238 244 239 241 181 211 221 176 210 189 176 239 209 207 178 219 213 220 190 196 225
254 301 270 292 331 305 284 271 291 355 508 418 357 336 311 308 303 305 305 127 301 286 278 275 273 251 250 233 229 209 263 243 214 232 248 240 184 234 216 204 232 183 206 233 222 178 222 184 221 202 189 227 211 235
281 274 303 303 316 307 284 268 275 341 472 593 373 338 326 310 301 315 316 310 304 286 281 269 262 251 238 227 210 239 225 213 227 216 214 197 190 245 241 221 183 234 251 192 214 210 211 215 180 211 216 222 171 166
281 264 284 296 298 306 285 265 288 328 660 661 411 364 322 307 313 306 270 302 241 286 266 261 253 247 236 184 230 235 223 212 227 228 218 132 213 218 193 206 171 187 163 226 227 225 236 232 234 222 252 236 247 263
253 303 301 288 292 316 292 265 283 322 361 509 428 363 325 325 309 264 298 298 290 177 263 258 250 236 226 213 236 227 223 212 220 216 218 210 210 207 205 204 198 214 223 213 217 235 233 249 234 243 238 241 245 276
268 300 301 301 290 278 302 265 274 322 349 656 676 378 339 323 320 283 302 315 289 262 228 252 236 242 230 224 237 231 224 213 216 218 208 202 207 206 216 206 192 195 210 234 209 218 229 219 222 240 315 327 311 285
281 298 282 283 294 272 307 267 271 328 354 657 677 361 349 328 306 284 308 304 280 261 247 228 230 231 235 213 240 235 225 217 211 214 219 209 210 218 219 156 206 313 195 190 199 199 194 198 200 266 257 309 289 284
281 293 279 270 290 273 312 269 267 330 369 637 658 501 341 329 318 280 304 318 278 257 248 193 237 235 234 220 237 245 229 223 212 210 212 209 208 214 216 216 155 205 248 220 219 269 199 245 217 221 230 194 199 214
278 299 278 288 281 290 323 269 266 330 557 621 641 673 339 328 314 286 299 306 273 254 243 234 141 241 225 238 226 242 234 227 221 215 210 221 218 209 203 206 208 209 214 220 220 217 212 215 206 199 204 201 199 198
270 301 276 290 270 288 314 267 270 328 600 611 606 521 366 328 318 291 285 291 272 258 238 227 231 230 238 216 238 233 234 231 226 219 218 215 207 210 208 216 210 201 203 202 205 206 211 204 205 209 209 210 209 208
269 293 266 278 269 301 332 265 267 317 594 604 632 459 358 318 315 307 306 313 270 253 241 235 228 229 215 221 207 237 234 231 234 230 228 233 226 212 209 202 204 215 215 211 217 202 204 207 207 205 201 198 197 195
283 265 288 276 266 300 326 264 258 304 345 612 621 419 356 329 311 314 321 307 269 246 245 227 229 230 224 197 219 216 189 159 226 235 235 234 220 225 232 230 221 215 205 201 202 212 202 201 201 201 202 203 213 221
269 258 295 275 281 295 323 263 250 287 326 607 463 376 347 317 303 334 320 304 263 252 250 238 231 231 222 227 206 208 201 240 160 224 232 235 237 230 228 225 225 229 219 216 218 220 217 220 223 222 224 224 223 223
265 176 296 264 267 290 321 263 252 277 307 380 442 363 349 342 327 328 312 296 262 256 254 243 234 230 222 226 211 218 210 236 161 167 235 235 234 232 230 232 232 230 226 224 225 225 226 224 222 220 222 224 226 227
269 284 275 267 282 288 316 269 251 250 279 316 453 357 361 346 346 311 323 293 273 257 257 253 242 234 231 225 214 210 207 208 215 159 174 241 236 230 225 224 223 223 224 223 223 228 248 254 252 240 252 258 283 256
209 272 281 261 251 284 306 269 247 253 271 285 313 364 353 347 349 343 317 305 280 278 266 259 244 237 233 227 225 209 207 203 210 219 158 219 230 229 237 245 257 206 249 243 244 236 232 233 236 238 244 245 254 285
269 276 280 258 257 275 300 274 246 248 256 271 286 323 364 346 340 349 322 302 310 268 282 268 256 242 239 231 223 212 214 213 213 184 226 224 219 219 205 196 191 193 190 200 211 203 205 214 220 222 223 229 232 239
283 257 252 267 251 266 292 281 254 244 246 253 270 284 317 384 353 340 339 320 299 298 285 283 271 222 137 233 230 226 225 110 125 123 105 100 164 163 213 210 212 197 199 197 201 202 196 191 209 206 200 219 218 202
285 281 273 242 257 261 274 288 262 243 245 246 256 272 276 321 389 361 342 334 316 265 292 293 283 272 250 236 234 233 231 224 223 223 213 198 164 210 180 150 150 151 183 182 207 203 176 210 172 145 144 143 142 138
294 261 276 262 262 260 289 292 253 239 244 243 247 258 269 282 328 298 383 338 331 336 309 271 289 154 236 103 145 241 234 230 230 225 220 220 210 199 200 213 213 204 204 187 144 162 181 201 192 194 194 207 211 211
265 277 273 264 257 261 291 294 277 247 244 250 240 254 264 270 288 315 319 406 356 331 315 333 274 272 286 276 258 247 244 237 230 224 223 221 219 217 217 206 202 207 210 213 204 193 199 201 206 207 212 212 213 216
263 284 276 269 257 262 299 301 281 252 252 257 245 252 258 270 284 297 327 459 415 350 334 326 331 291 268 277 281 270 255 246 242 234 227 225 224 221 219 218 219 212 205 204 206 207 207 208 212 213 212 211 213 211
277 276 263 292 267 272 299 294 281 249 245 246 249 254 259 269 284 299 318 583 456 416 341 326 325 294 307 286 278 275 275 265 246 244 235 231 227 226 222 221 221 222 222 213 210 207 205 208 208 209 202 202 204 205
283 279 280 278 273 280 300 289 279 250 241 252 248 266 264 275 294 307 358 475 562 431 399 339 321 312 316 314 266 289 287 277 268 255 239 239 231 233 231 229 225 223 223 223 222 221 221 221 204 202 213 213 213 213
286 268 272 296 305 263 302 281 275 258 256 249 262 269 271 287 298 318 496 475 458 548 408 373 340 326 310 317 312 264 306 282 280 272 259 249 241 234 235 229 233 229 227 228 232 230 221 226 226 226 228 232 233 233
284 293 297 303 279 317 295 275 273 263 252 257 266 270 277 298 309 502 479 465 452 443 520 392 348 331 318 310 311 309 291 296 295 274 272 265 255 249 247 235 237 234 232 236 238 236 234 231 229 231 232 234 235 235
292 305 304 288 315 311 271 272 270 252 254 263 266 272 285 305 505 483 473 461 444 427 473 498 379 340 329 315 302 305 305 299 298 295 280 270 266 264 261 253 248 248 247 243 243 245 245 245 243 240 240 244 246 246
303 297 283 326 314 270 271 277 260 247 259 269 270 279 298 473 443 456 461 456 440 421 399 493 450 361 331 326 327 320 307 297 304 303 289 283 275 266 263 263 262 258 253 250 249 248 249 247 248 248 250 254 258 257
317 295 318 300 280 278 276 264 248 258 265 266 271 292 317 465 461 456 389 446 437 418 393 478 466 475 356 327 319 325 317 297 291 296 291 281 275 271 270 265 266 269 270 270 264 261 260 259 258 257 256 255 259 264
341 315 297 271 276 271 258 249 256 260 262 268 284 302 420 410 393 433 428 421 421 411 391 420 457 458 379 347 325 312 312 320 303 299 293 283 278 275 273 267 262 261 261 263 269 271 269 270 271 273 273 272 271 267
299 280 273 273 267 253 250 254 259 260 266 274 291 413 366 422 390 415 400 397 398 390 380 407 440 444 430 356 328 314 308 308 306 301 293 300 286 274 271 275 274 272 271 268 267 267 270 271 269 267 266 270 272 268
275 273 270 265 250 244 256 255 257 263 273 283 346 402 404 392 398 399 376 372 371 369 365 427 421 430 421 366 335 311 304 303 306 302 303 310 300 288 278 271 269 273 269 264 262 262 262 262 263 265 261 262 272 275
271 267 259 244 249 255 256 257 265 274 280 291 383 390 370 391 368 388 363 353 362 360 360 401 395 409 375 378 348 334 313 312 295 304 297 291 293 298 297 290 275 271 274 272 269 269 258 262 263 264 265 265 267 274

GFSWCAN_2pvu_pres_009.txt.gz
Presure
202 275 243 251 267 281 290 304 280 292 276 270 403 376 351 326 326 317 303 318 159 295 287 290 289 309 294 298 258 241 240 216 240 275 223 247 253 204 216 180 192 164 202 203 148 212 183 188 210 205 190 189 215 222
263 275 256 254 274 287 297 296 279 309 279 269 338 391 343 323 323 303 295 305 293 135 308 290 285 309 298 288 275 260 259 262 255 224 229 250 234 212 176 215 161 203 185 216 213 220 218 181 225 211 225 210 224 218
272 190 256 144 270 284 289 302 293 309 278 274 315 406 355 328 327 305 307 318 261 303 303 303 280 289 201 273 264 252 255 260 229 233 242 238 248 238 177 234 215 209 215 208 230 169 216 216 211 207 222 231 220 224
259 132 256 281 269 291 293 299 300 336 282 277 307 575 393 345 330 309 313 298 286 286 288 277 279 281 274 262 259 267 241 233 222 238 246 249 246 231 182 234 191 208 187 236 217 240 188 225 226 241 214 251 240 227
248 177 283 281 270 269 305 291 302 333 284 280 321 697 402 355 334 317 317 302 283 293 277 277 170 271 265 265 248 185 220 281 212 234 248 244 230 245 256 261 265 168 217 238 180 191 251 236 238 236 248 233 231 241
256 121 287 281 278 299 306 281 301 339 285 282 335 673 496 371 338 321 308 298 320 305 279 267 268 265 257 242 235 215 229 236 223 215 217 224 208 218 218 199 197 194 189 222 235 228 231 237 231 222 224 277 307 313
251 245 241 167 281 306 306 291 287 338 287 282 496 655 675 369 357 330 313 318 307 300 278 265 266 258 170 235 229 211 244 227 223 219 215 215 214 202 201 189 179 245 199 201 239 218 215 243 268 280 273 294 298 268
270 257 280 165 277 292 299 286 314 341 287 292 505 650 453 379 364 331 318 298 294 297 275 267 260 252 235 231 226 206 242 229 218 212 213 208 202 199 202 203 217 217 198 213 255 236 191 253 194 199 231 241 247 261
227 267 270 269 276 277 284 292 298 343 284 311 624 653 449 399 356 336 303 306 293 290 277 266 254 249 232 209 222 195 242 227 225 210 211 220 205 207 213 214 217 213 234 149 107 267 256 254 247 220 200 212 196 191
132 277 278 270 278 269 282 293 309 332 284 306 616 672 662 384 352 335 279 281 298 286 273 260 253 245 232 202 191 209 241 233 226 220 210 209 216 212 215 211 213 217 213 211 210 209 209 217 225 211 213 209 212 218
185 268 276 272 268 284 289 286 296 314 281 320 659 642 419 365 347 327 167 321 324 283 274 258 252 238 226 229 221 236 182 238 236 224 223 209 206 217 218 214 208 204 204 199 204 207 206 206 210 215 201 200 202 206
275 284 283 268 267 287 284 282 292 308 276 301 630 626 403 346 340 338 285 305 315 278 274 263 253 241 231 225 202 205 228 214 235 238 227 222 215 216 211 206 208 210 211 210 212 210 211 222 210 202 206 210 203 203
280 275 289 269 259 284 285 277 265 305 269 266 340 448 375 354 339 341 326 302 296 286 278 264 252 241 232 230 225 222 195 220 230 151 195 229 226 229 229 242 228 230 214 214 214 211 211 209 211 208 217 224 224 224
275 276 276 267 272 290 289 275 262 307 264 260 296 361 388 367 359 339 338 288 282 289 282 265 250 228 234 228 224 220 197 196 226 223 224 208 229 226 224 225 222 222 230 225 223 223 221 222 223 224 222 221 221 220
278 276 266 276 280 283 294 260 277 297 262 258 270 294 386 351 352 373 341 292 277 284 289 279 260 249 240 233 230 217 214 203 213 221 213 195 225 220 223 225 226 222 220 222 223 223 231 221 224 224 223 222 228 238
288 276 265 268 279 284 293 264 268 278 299 252 248 278 289 367 330 348 341 328 299 290 288 291 269 260 220 152 230 222 221 208 197 195 236 230 160 161 201 224 228 226 222 221 217 219 224 222 220 223 250 247 234 219
264 275 268 275 287 276 312 267 264 276 301 253 244 248 275 284 352 355 322 308 314 296 292 294 286 266 254 234 234 230 223 208 202 199 206 203 239 215 162 232 228 222 222 223 226 232 233 232 227 243 226 224 215 217
273 277 266 254 259 308 301 261 271 272 280 298 243 247 254 269 277 304 366 338 330 261 289 296 296 282 237 252 235 234 113 116 222 133 196 166 197 207 223 226 178 240 232 220 236 191 193 192 199 207 202 195 208 210
271 264 265 260 257 301 281 278 264 271 262 295 258 242 237 243 259 269 282 328 361 334 338 348 311 300 279 265 252 244 238 235 232 227 207 202 200 198 196 200 221 220 196 183 198 197 195 198 196 199 205 197 200 199
281 265 263 270 277 277 275 289 263 265 271 279 300 245 244 240 240 258 259 267 280 286 370 367 304 311 302 288 134 260 253 244 240 237 227 219 207 206 196 190 197 202 217 222 153 151 151 150 163 163 209 203 155 146
275 281 258 267 272 307 281 285 273 267 286 261 298 292 241 252 239 245 249 264 262 268 286 280 407 335 321 98 296 277 272 269 251 236 241 233 222 215 216 203 203 199 195 195 197 202 208 209 207 204 204 203 204 204
287 251 272 266 270 294 288 293 266 277 276 272 286 297 273 247 246 239 238 255 264 266 274 292 304 286 388 316 291 308 288 276 276 268 246 235 227 226 222 220 219 210 202 201 201 199 198 197 199 201 200 199 196 193
278 266 259 270 272 300 284 293 265 285 283 298 285 304 279 247 239 236 235 257 264 264 271 290 301 306 433 381 327 305 288 296 292 282 272 258 240 231 227 226 222 220 216 210 209 203 201 206 206 204 203 203 202 211
289 314 305 278 301 226 289 294 275 281 290 284 291 308 287 264 243 230 239 249 265 271 287 298 471 488 439 410 377 326 309 297 274 286 284 281 265 255 243 231 232 226 224 221 217 214 210 210 212 212 212 213 215 151
207 313 281 309 293 285 289 284 284 300 319 301 292 317 281 274 257 245 243 261 276 289 304 523 510 509 480 408 369 366 318 311 307 308 262 277 273 273 263 254 228 234 230 227 223 225 223 220 221 223 223 221 220 221
311 316 307 290 285 288 275 282 294 307 306 287 317 305 270 277 255 245 242 276 286 311 515 505 496 440 478 493 384 346 338 321 302 303 299 271 271 268 270 271 264 254 247 235 229 229 229 226 226 225 227 226 226 229
307 306 296 292 283 271 289 300 315 300 286 318 305 276 280 260 246 242 277 289 314 472 494 494 483 456 470 433 489 360 337 324 316 309 302 294 290 263 266 258 257 259 259 259 253 244 238 237 225 223 224 230 234 236
301 300 288 284 277 290 300 304 312 317 312 295 276 277 259 242 256 272 285 303 427 420 481 477 476 454 457 421 522 414 355 335 317 309 301 296 294 295 280 268 273 271 268 266 260 253 252 250 247 245 243 242 245 247
300 301 284 279 279 289 313 355 321 308 284 273 274 262 244 246 271 282 296 427 477 412 454 454 424 394 439 422 472 411 376 347 329 311 305 294 287 287 293 288 293 290 269 264 265 263 261 258 255 253 254 257 257 257
293 289 281 290 304 358 329 313 298 270 271 271 256 246 254 269 276 293 405 409 456 428 418 423 439 439 427 415 376 457 364 350 345 327 311 304 290 293 293 287 279 280 282 280 272 266 261 259 260 261 261 261 261 258
287 286 304 315 333 320 299 285 275 270 271 256 237 255 267 272 291 305 388 449 425 403 392 392 412 417 414 385 377 482 370 347 320 331 309 311 318 294 288 284 285 280 275 276 276 275 273 271 270 270 272 273 271 269
301 301 336 333 307 292 281 270 268 268 258 236 252 263 270 284 298 402 388 430 416 391 377 370 377 383 379 420 477 458 361 333 326 331 311 302 315 293 280 277 282 288 284 278 275 274 273 272 271 269 271 272 271 272
332 342 316 300 291 267 265 269 268 252 244 253 263 266 278 294 319 393 373 340 395 387 369 361 366 365 395 450 455 419 400 352 327 328 310 307 317 306 297 295 280 286 280 280 273 271 267 266 268 268 268 274 271 269

GFSWCAN_2pvu_pres_012.txt.gz
Presure
272 260 264 271 267 268 262 283 278 275 290 306 306 282 270 296 335 326 322 291 306 132 303 306 310 332 279 237 232 232 221 224 221 213 221 226 187 240 222 213 220 205 156 203 169 209 174 214 223 211 216 223 213 230
278 278 270 263 285 270 255 274 280 283 302 300 289 284 271 281 339 331 330 319 306 306 297 306 310 311 302 246 234 233 228 228 223 198 230 222 260 236 214 237 185 191 222 155 205 193 169 202 220 220 211 218 227 229
288 276 258 273 274 280 276 186 284 279 296 320 324 287 272 287 368 350 309 321 313 303 294 214 295 313 313 257 226 229 230 231 234 238 230 233 260 234 231 179 199 170 182 204 161 215 217 222 190 226 216 230 219 243
297 269 258 275 159 189 277 278 276 280 310 328 338 294 275 528 377 340 321 324 312 295 290 287 293 300 297 272 251 237 226 238 235 240 243 260 212 249 235 176 215 216 200 186 221 217 213 237 226 219 226 239 239 246
268 281 273 270 272 271 148 270 289 272 316 319 334 297 279 699 400 343 317 332 309 278 293 299 289 287 310 292 279 251 236 247 251 248 262 262 230 247 244 186 179 232 244 230 244 202 229 243 239 252 240 232 232 250
280 271 264 278 189 216 273 274 279 304 319 328 319 295 629 683 444 349 332 329 309 278 286 286 301 284 128 281 274 264 256 257 260 221 255 252 242 242 243 185 230 249 204 220 256 204 242 262 249 237 234 283 260 304
270 269 259 261 276 123 330 275 290 295 320 310 310 294 641 680 433 351 328 303 301 288 276 290 280 169 287 216 273 267 268 264 256 217 241 266 234 238 184 250 229 258 253 216 222 220 246 221 233 231 273 259 289 278
274 268 251 257 256 273 280 295 281 304 315 292 299 297 653 685 418 344 316 313 293 276 283 286 273 272 278 268 270 268 262 234 213 221 274 246 238 243 211 203 209 191 201 193 199 234 291 188 218 264 259 274 267 267
270 267 268 273 265 274 278 270 292 297 312 287 293 564 678 686 394 340 318 304 293 282 287 278 273 270 269 268 264 209 225 231 212 224 213 228 217 202 206 211 201 196 200 226 197 202 201 197 184 193 249 191 194 196
276 175 275 256 271 291 275 302 286 311 311 286 284 608 688 456 382 344 313 302 301 318 293 277 275 263 260 266 245 227 219 237 221 224 215 210 212 209 210 203 190 199 243 262 276 272 212 267 253 246 224 216 219 204
285 277 277 193 279 290 269 290 276 292 303 321 280 602 628 397 370 347 313 313 317 290 291 286 273 263 260 256 238 206 214 233 233 218 210 210 215 207 207 204 209 207 211 226 224 236 213 213 211 214 215 216 211 212
284 257 272 269 271 268 287 274 291 279 293 302 274 520 407 381 371 343 335 320 282 281 292 286 277 262 264 250 232 198 202 221 237 229 221 216 206 208 214 212 214 211 201 205 204 202 202 201 199 201 198 198 198 199
275 269 272 273 260 280 292 270 283 301 283 281 274 269 388 362 367 353 341 330 282 301 292 288 275 269 263 249 231 216 199 205 216 237 229 222 219 210 215 205 201 210 210 218 201 209 213 213 211 218 221 211 205 209
273 268 271 274 279 277 282 264 282 287 275 289 280 264 309 347 332 363 371 333 288 269 285 291 275 273 262 249 244 227 213 227 204 223 207 232 157 218 218 214 206 207 203 201 202 218 203 202 216 223 219 209 221 223
284 272 301 291 283 274 289 263 280 288 278 276 301 263 252 358 341 328 247 279 253 295 242 287 288 275 266 251 243 225 216 209 208 222 231 231 226 227 225 224 221 222 226 232 217 214 224 227 218 219 218 218 222 222
279 269 293 303 275 269 294 268 271 282 297 269 287 273 254 244 372 331 318 293 250 281 304 299 283 283 266 207 237 234 225 205 223 207 221 224 227 224 182 184 205 221 219 216 220 224 223 217 219 223 223 221 227 225
317 309 278 289 271 267 303 274 261 276 290 272 271 293 256 250 246 277 334 330 321 291 274 296 295 286 276 255 240 233 235 222 225 202 209 199 217 220 215 178 161 209 215 218 221 220 219 219 220 216 215 223 214 232
295 295 283 282 268 258 283 266 258 274 278 275 264 252 292 254 247 242 238 327 363 338 301 289 292 298 293 269 259 244 113 93 210 118 212 209 196 219 229 226 218 220 165 209 219 223 228 216 224 223 224 232 239 244
291 289 281 279 266 262 302 272 270 272 220 300 275 269 255 288 253 246 250 240 271 286 353 320 353 312 298 297 278 263 253 246 239 228 224 210 208 203 204 201 211 232 231 227 198 162 213 225 227 256 232 194 189 191
277 285 281 275 278 258 296 272 261 280 276 290 287 272 285 255 287 254 245 248 241 250 265 276 310 357 337 334 305 291 281 268 252 243 242 226 220 220 208 199 213 169 207 219 229 232 242 245 213 204 200 194 194 212
272 306 304 281 275 252 289 277 278 270 272 276 283 285 273 280 277 291 257 246 249 247 234 250 257 273 281 301 364 363 315 292 286 276 260 239 231 213 212 210 212 206 207 203 196 201 211 215 214 217 219 218 206 178
287 270 277 277 273 261 283 292 272 290 270 280 281 291 270 285 286 285 297 264 252 247 242 239 236 248 264 268 280 281 245 359 313 295 287 277 263 225 224 213 214 212 205 208 200 200 200 197 199 201 200 200 197 192
268 298 261 276 279 280 281 263 278 285 301 295 299 293 292 281 286 278 294 307 270 249 245 241 237 238 238 253 260 263 275 287 299 337 324 295 284 269 257 248 238 220 216 216 212 208 203 202 201 200 199 197 198 199
297 288 302 272 275 306 281 288 289 298 308 294 301 288 288 281 304 317 283 320 317 274 254 246 239 249 248 247 249 266 268 281 291 300 306 331 330 296 267 271 254 254 246 229 222 218 214 211 205 205 204 203 203 203
297 297 313 301 312 298 277 280 286 295 326 308 294 293 284 302 324 298 297 324 308 289 271 264 252 246 244 248 261 266 382 495 434 352 382 356 330 330 312 285 266 269 259 253 255 233 228 218 220 163 213 215 213 213
312 313 314 315 301 291 320 314 318 324 312 290 284 284 305 317 296 334 315 288 268 277 278 274 270 248 257 279 492 528 508 519 437 474 398 377 336 320 317 306 296 274 273 266 263 258 249 232 228 222 225 228 220 222
326 333 288 305 337 320 309 292 315 311 299 287 288 296 313 336 331 301 282 280 274 274 274 259 253 284 419 508 505 475 490 496 479 455 379 382 340 315 312 304 304 290 286 274 269 265 262 256 241 244 242 240 238 234
280 348 345 289 320 314 315 310 304 291 287 290 292 323 346 323 299 279 276 274 272 270 256 265 309 427 488 461 483 406 489 453 398 442 402 363 355 320 316 306 297 297 291 272 263 268 266 263 261 259 258 257 256 256
287 293 287 282 305 298 299 300 297 288 289 297 327 326 307 292 278 275 274 269 261 259 285 317 424 463 439 436 446 459 471 378 471 473 394 366 342 330 302 308 311 293 285 289 291 289 264 260 257 259 258 258 257 255
289 291 287 300 310 310 303 295 284 291 311 329 307 297 286 278 275 273 268 252 261 280 314 413 402 430 413 401 424 457 431 390 437 520 380 355 337 331 318 296 299 306 287 273 284 287 285 273 257 253 251 251 252 261
301 294 298 305 297 292 290 289 301 325 324 299 290 282 269 272 272 266 254 262 283 307 409 393 419 412 391 384 408 434 433 437 385 491 371 352 327 323 316 315 314 286 297 287 273 269 269 281 277 274 269 263 260 260
293 313 310 304 296 313 318 303 334 318 297 286 273 271 273 268 261 258 263 281 300 420 397 380 411 391 377 377 381 417 418 403 369 457 364 348 333 333 319 302 307 306 287 285 283 282 279 281 283 284 279 276 274 274
321 318 314 318 303 319 335 340 316 298 280 273 273 271 265 250 246 260 279 293 369 403 389 370 404 388 367 387 375 382 393 384 348 431 382 349 336 321 324 301 293 308 300 285 275 273 272 273 279 275 275 276 275 276

GFSWCAN_2pvu_pres_015.txt.gz
Presure
274 265 293 265 267 268 282 270 276 278 122 268 263 287 308 295 287 268 270 335 342 326 332 267 338 261 235 221 231 224 218 223 228 217 222 201 216 209 203 238 169 202 184 214 208 223 208 211 211 185 225 221 219 222
266 286 288 291 280 285 279 262 261 271 103 266 264 275 312 318 284 273 266 341 332 322 314 313 268 316 252 244 240 232 231 229 223 221 217 220 200 214 228 242 176 174 193 177 211 211 138 214 201 224 211 219 211 225
286 283 287 275 278 268 280 283 270 279 270 275 283 259 339 327 293 268 264 353 335 319 313 307 304 316 308 250 244 224 233 225 227 226 223 218 214 218 193 220 234 216 195 205 155 212 224 209 173 232 225 211 222 242
280 285 274 270 281 270 279 285 270 260 281 277 276 281 344 298 300 276 469 367 342 315 306 300 306 309 314 324 247 240 226 235 224 230 221 204 224 227 224 253 186 221 218 194 208 216 217 201 235 228 215 232 257 235
279 269 284 277 288 277 293 280 267 270 278 278 312 308 349 330 295 686 452 367 330 312 293 301 295 300 304 326 291 240 233 232 233 220 229 230 232 222 225 223 177 199 208 181 220 206 228 229 249 244 232 244 228 234
280 282 279 298 279 277 280 283 289 283 272 270 296 296 347 326 507 688 428 360 321 299 306 289 296 297 296 212 312 249 232 231 228 229 232 219 230 235 243 216 242 238 223 206 222 224 241 239 237 248 257 222 232 247
276 288 272 265 275 279 277 292 271 245 276 290 286 320 348 306 649 689 394 343 315 302 297 287 288 298 287 300 174 287 248 232 236 213 231 239 236 238 249 224 249 175 249 221 190 233 239 209 258 223 231 248 249 264
284 276 272 276 282 281 282 287 171 125 278 293 281 343 329 421 675 496 376 323 316 313 286 285 285 286 286 289 299 282 177 248 241 231 241 238 248 251 238 221 232 193 224 227 240 221 235 224 194 207 203 237 223 284
301 269 275 269 271 282 279 297 210 231 279 284 310 337 313 575 685 394 356 320 313 303 281 279 277 292 287 286 294 282 265 257 252 244 245 243 248 252 241 230 200 234 245 198 197 203 197 191 235 192 183 198 248 197
270 274 278 271 280 275 266 279 127 269 282 266 291 326 305 579 496 368 338 321 313 290 274 280 282 103 276 285 284 273 274 263 195 260 258 231 239 244 233 236 192 224 210 199 216 200 200 235 201 286 262 206 271 264
285 275 267 273 308 277 273 277 275 272 257 272 290 315 291 462 379 354 338 321 299 283 281 279 280 276 271 275 269 269 272 269 259 218 218 244 277 236 224 225 208 203 205 192 192 211 257 246 217 262 240 234 212 210
267 280 276 281 284 281 282 279 274 267 293 302 308 308 286 409 369 350 330 320 298 282 280 278 275 274 268 269 271 269 266 274 236 219 218 237 214 218 217 213 207 205 204 194 208 215 212 239 221 213 210 209 204 201
273 275 281 278 290 268 267 274 267 271 277 293 296 297 280 373 346 344 337 231 306 278 280 278 277 276 268 266 263 266 266 236 235 224 216 209 221 212 210 201 201 204 206 204 207 198 199 205 210 210 193 201 204 204
189 274 277 276 281 272 263 275 222 273 283 279 290 290 292 264 320 366 257 252 292 285 306 292 284 275 269 266 256 262 251 210 227 239 222 219 215 174 207 213 213 214 217 209 206 204 202 210 204 199 205 209 204 198
283 277 275 283 271 277 266 265 268 297 273 278 278 288 288 255 261 306 365 286 314 308 310 292 293 281 280 266 255 260 253 213 211 219 232 229 198 220 219 215 188 208 206 208 207 204 209 201 201 201 201 203 203 208
298 291 281 271 266 268 266 269 300 289 269 286 270 289 271 281 262 250 335 346 338 318 310 284 282 294 277 274 261 258 257 236 214 208 214 230 234 230 223 221 217 214 211 212 212 210 204 234 215 215 223 224 222 217
293 293 283 277 275 272 273 273 289 273 267 282 260 275 281 266 275 263 246 290 287 282 298 305 273 288 284 286 273 261 261 252 234 216 208 206 213 230 231 229 227 221 217 214 211 217 219 223 228 224 223 225 223 221
316 289 312 292 288 283 293 288 274 277 262 282 263 263 294 279 258 274 258 254 241 314 330 329 324 309 298 290 277 270 268 258 141 238 202 206 218 221 230 232 231 216 162 226 225 223 193 210 220 218 223 224 223 222
333 304 304 317 303 297 279 290 276 274 258 279 273 265 276 279 283 249 289 260 257 249 239 354 349 345 310 314 296 290 280 272 260 174 243 225 216 212 218 224 225 225 226 224 224 224 220 218 171 221 223 226 225 225
302 297 304 281 299 287 283 279 280 278 274 273 282 273 261 276 281 290 269 289 266 256 253 248 253 303 359 346 344 317 281 303 102 270 253 242 222 224 223 212 215 225 223 221 218 217 222 219 215 216 217 218 218 222
310 298 306 298 290 278 283 284 280 280 278 267 268 275 266 261 284 280 287 276 256 294 263 257 251 252 252 275 299 348 361 304 291 301 291 269 255 243 224 224 216 214 212 212 195 224 228 228 225 224 224 227 231 229
303 299 287 302 292 262 277 277 277 286 273 265 292 282 276 281 288 298 284 291 276 278 294 275 264 258 253 249 247 262 253 295 362 344 333 316 300 269 270 227 229 219 208 220 215 206 202 201 199 215 214 226 221 216
307 295 288 290 305 293 260 280 273 283 284 284 266 279 286 280 297 296 301 293 297 282 300 304 293 274 264 259 254 247 248 251 261 273 286 303 363 343 331 297 264 243 239 220 219 224 223 214 205 203 206 202 199 200
313 298 291 296 279 268 285 289 302 288 301 283 291 303 284 289 297 307 306 279 297 288 295 325 275 309 290 274 265 260 253 248 249 251 248 250 260 277 303 345 376 315 275 265 263 257 228 219 215 195 215 214 207 201
295 287 299 287 284 279 284 293 284 287 296 303 286 304 279 292 313 313 305 300 286 315 321 308 297 325 320 304 288 278 272 262 259 256 248 242 246 252 258 263 274 295 326 343 280 266 264 250 224 186 219 215 216 216
304 306 305 283 291 320 313 303 300 297 304 309 292 297 318 310 311 307 289 280 303 314 334 334 317 306 297 288 282 283 275 277 277 277 284 275 257 256 263 268 272 276 272 279 328 311 284 270 264 257 243 229 225 222
287 284 290 312 298 301 301 311 296 311 309 290 321 317 307 308 306 302 290 301 325 351 321 300 288 280 279 279 286 285 281 278 266 262 269 276 287 431 451 370 381 305 294 285 283 314 309 291 274 264 261 259 254 249
276 284 281 289 280 277 300 309 325 320 317 326 319 317 315 302 297 291 312 335 330 306 289 282 272 272 277 279 287 263 266 282 431 493 508 525 462 519 458 513 427 387 352 319 314 318 304 300 289 278 268 259 256 255
279 281 285 282 285 326 278 329 326 318 277 290 304 305 302 306 300 325 329 307 291 282 278 273 274 280 286 262 276 330 420 441 447 427 453 487 406 505 443 496 417 372 343 323 341 313 300 298 290 283 278 275 269 254
289 288 280 314 325 323 280 281 297 300 279 301 305 306 296 297 326 321 298 286 280 272 273 277 286 265 279 299 419 407 432 423 408 404 454 481 480 422 491 417 409 374 348 324 309 322 301 289 288 285 279 274 274 268
290 281 279 279 279 280 281 298 299 310 314 306 298 300 312 326 312 295 286 274 271 273 279 274 267 285 327 418 399 431 416 403 386 461 430 413 392 456 408 390 371 347 337 316 304 303 310 284 279 278 275 273 272 271
272 281 290 172 294 285 309 302 303 313 301 308 314 320 335 304 289 282 272 272 279 276 264 272 289 383 421 396 421 410 403 394 375 420 384 375 394 468 388 370 350 333 316 308 301 289 289 296 280 273 267 269 275 275
277 276 279 289 292 286 287 322 323 322 316 322 336 344 299 285 279 270 272 276 268 263 273 288 391 423 407 403 410 396 424 395 392 425 419 425 460 454 364 355 332 326 316 307 302 307 312 305 288 286 278 275 270 264

GFSWCAN_2pvu_pres_018.txt.gz
Presure
161 255 276 285 278 302 297 283 289 284 284 277 284 286 273 280 267 277 306 269 294 262 286 380 373 264 251 236 236 231 227 249 247 243 240 242 225 227 213 211 221 235 210 193 226 192 194 205 206 208 211 219 210 219
276 299 286 302 280 295 290 280 291 284 283 282 291 283 271 276 277 293 257 299 297 278 267 327 348 347 264 250 242 229 230 230 234 237 250 256 237 210 198 215 213 227 187 191 214 200 215 168 229 219 153 230 210 221
278 290 294 282 289 278 274 284 289 283 284 279 294 277 287 280 288 326 298 319 287 273 261 289 342 338 323 260 240 243 238 235 225 234 247 230 215 215 207 222 207 169 229 181 196 202 210 219 136 191 232 239 235 224
290 295 294 293 289 291 281 280 290 282 279 287 282 280 290 293 312 311 347 317 273 271 352 343 327 327 322 312 262 239 239 231 235 229 232 224 214 219 203 217 225 223 244 231 222 208 186 213 214 224 238 250 182 219
288 299 288 276 276 297 293 282 289 274 277 293 289 288 298 313 337 361 332 289 547 413 343 320 314 312 312 316 281 251 243 236 227 232 228 227 222 211 210 212 206 227 236 194 220 193 211 210 234 233 219 241 250 242
293 306 290 275 276 291 279 294 289 277 300 290 288 283 296 316 343 340 611 695 472 366 332 314 301 307 302 305 315 262 247 241 235 220 233 222 227 207 210 217 219 207 235 225 246 202 209 241 234 237 247 258 258 232
297 297 288 283 295 263 281 290 283 282 289 278 282 291 301 326 343 590 646 649 392 347 321 312 292 295 296 299 308 324 262 246 240 230 228 230 209 221 228 224 221 219 234 218 234 215 240 211 246 239 238 225 231 237
297 298 296 285 283 240 284 279 286 277 293 292 286 291 337 343 334 660 555 389 353 333 314 302 285 297 282 289 297 310 319 266 232 203 224 227 232 221 216 216 231 224 242 232 242 247 211 230 244 219 225 210 249 244
292 296 279 281 277 283 282 276 296 274 296 283 277 293 326 324 689 506 386 360 338 316 304 295 286 287 295 294 289 301 306 294 170 240 233 224 219 218 214 226 222 227 236 234 198 206 240 236 223 219 193 179 191 197
282 292 284 153 289 276 280 270 280 274 283 279 271 288 311 327 417 397 359 345 327 296 299 287 284 285 288 288 278 290 295 297 275 255 242 219 231 204 229 230 234 249 224 239 215 244 191 188 191 189 189 197 243 231
304 291 282 281 293 287 285 272 284 275 302 292 278 284 305 310 353 380 350 328 324 300 296 285 279 284 279 286 274 287 285 289 284 261 248 243 228 222 233 244 254 257 239 224 245 221 191 194 203 267 259 201 261 268
309 293 280 282 267 275 276 275 275 280 280 274 280 279 296 313 367 370 300 318 312 297 291 280 281 277 283 280 276 284 283 280 281 265 253 237 243 234 247 226 236 244 243 192 229 212 201 194 196 253 260 243 243 214
316 293 287 277 279 279 275 278 270 275 284 266 273 277 284 298 269 362 322 237 304 292 288 278 270 277 278 273 274 280 277 272 273 269 259 251 252 253 233 221 247 242 230 230 199 207 200 195 204 211 233 216 209 208
298 288 295 288 279 293 271 277 271 278 282 272 270 297 277 269 294 265 337 328 316 287 293 291 278 276 273 267 263 272 274 270 268 264 261 259 253 233 234 247 241 222 228 220 217 206 203 198 208 202 198 201 203 204
298 292 293 294 288 315 286 278 274 278 271 275 240 291 266 268 284 282 264 319 326 304 284 289 282 277 278 269 264 262 267 267 263 258 265 259 230 221 265 230 223 214 206 206 204 203 202 204 212 215 204 204 215 209
291 295 316 313 286 291 277 279 286 277 273 269 277 289 270 276 286 289 278 245 306 300 319 298 293 282 279 276 272 261 266 264 265 261 255 235 227 219 221 215 214 214 211 212 211 185 213 215 210 211 207 208 205 207
291 317 301 291 306 314 278 282 282 276 273 273 286 270 270 285 257 288 287 135 246 263 341 336 307 290 293 295 285 268 267 266 261 258 242 239 231 226 212 219 226 216 211 165 210 208 204 201 206 204 204 204 209 209
293 305 302 152 297 290 284 279 285 275 272 290 280 271 276 280 269 264 283 287 269 262 247 294 350 354 320 291 286 288 282 270 267 263 259 201 223 207 236 231 219 221 216 219 221 219 221 214 213 197 218 221 205 217
143 189 276 311 304 290 295 288 296 287 301 284 277 270 275 271 280 257 272 285 274 259 267 249 251 293 330 300 302 296 290 296 286 268 260 213 158 221 219 128 232 231 228 226 226 228 226 224 189 200 188 219 223 223
284 286 285 286 303 285 317 287 313 306 286 271 273 280 277 266 282 273 264 268 279 281 259 284 264 241 253 296 339 304 305 279 309 309 291 232 104 248 233 221 220 204 207 208 219 228 228 226 226 228 227 225 224 223
295 292 282 290 301 291 283 288 287 291 284 278 281 275 272 267 260 276 273 270 267 277 291 277 281 283 264 250 252 275 338 345 293 294 309 307 289 266 263 259 236 92 220 223 207 207 220 221 225 222 222 221 222 221
192 292 282 297 294 287 283 311 294 283 279 269 273 280 275 273 262 282 277 275 284 298 302 290 290 275 287 283 268 257 248 267 298 309 351 318 310 312 208 275 271 242 232 233 218 221 220 206 205 215 217 217 216 206
191 285 286 292 293 308 294 299 281 281 280 286 301 279 267 269 278 263 263 277 284 281 295 303 289 296 297 286 275 273 273 262 254 249 266 304 346 354 355 336 314 285 282 269 246 224 224 224 226 216 211 207 206 208
286 289 291 287 317 296 298 273 281 263 295 298 274 268 272 282 291 289 286 301 307 290 299 307 302 294 290 304 289 295 333 295 278 270 264 254 244 254 269 285 327 343 355 319 288 283 286 281 234 245 223 228 231 221
291 284 292 284 278 275 298 292 285 304 288 266 271 276 291 292 276 277 291 299 284 297 309 313 311 304 298 292 295 321 333 326 310 298 289 280 272 266 262 254 248 250 264 273 316 365 331 289 277 278 283 279 270 219
285 293 286 289 292 297 282 288 302 283 276 280 279 283 284 295 274 303 300 287 310 320 310 311 310 299 291 292 326 358 339 307 314 310 334 313 296 282 278 274 273 273 258 256 236 241 248 257 310 348 308 290 284 274
293 280 280 299 300 296 295 290 288 285 287 285 284 304 304 297 302 308 297 311 322 308 311 312 310 296 301 341 343 334 325 313 307 280 297 297 304 300 293 286 282 282 257 280 278 274 256 245 245 245 250 256 293 316
287 287 285 287 300 280 291 293 287 287 275 294 295 303 303 312 326 320 325 323 316 315 311 301 296 323 333 326 318 301 295 291 270 278 284 286 285 278 258 253 252 254 258 262 262 264 261 257 256 251 253 258 255 254
287 287 283 284 285 292 267 285 313 321 281 276 302 313 316 345 325 274 321 317 299 313 306 307 333 324 311 296 289 262 279 289 283 270 265 274 314 321 448 470 465 472 507 469 327 318 286 281 275 271 267 262 261 259
290 287 285 288 282 276 277 277 277 279 276 304 295 281 332 325 287 285 299 309 311 301 321 332 313 298 287 263 280 294 278 273 289 365 439 436 446 448 444 436 426 439 468 471 443 491 434 413 367 352 303 284 277 274
299 299 286 292 280 278 278 282 281 298 297 283 284 284 283 286 314 319 308 305 305 333 325 303 289 271 273 290 268 279 291 376 454 437 436 429 439 428 393 432 437 429 458 401 483 390 379 377 345 334 340 315 297 291
298 292 285 283 284 279 275 277 287 282 285 290 315 287 294 306 309 299 315 313 347 319 297 285 267 284 281 268 288 296 462 442 425 436 477 405 401 376 425 452 479 478 404 505 397 355 359 333 314 301 302 293 286 286
294 290 286 261 282 280 280 280 279 279 282 280 279 308 317 323 323 311 322 351 314 288 278 277 286 263 277 286 295 371 440 417 466 492 478 470 393 418 408 405 372 484 481 375 345 340 323 304 303 308 300 291 284 284

GFSWCAN_2pvu_pres_021.txt.gz
Presure
133 212 288 287 283 307 306 290 283 289 281 293 290 288 276 293 277 281 284 288 312 301 315 287 280 389 348 248 248 234 220 245 210 231 228 223 219 214 218 209 215 212 225 220 225 236 201 214 180 209 200 217 213 238
236 288 283 281 282 283 275 300 296 291 287 305 286 291 277 281 300 277 282 285 314 290 309 327 262 281 391 324 246 249 234 229 236 234 235 235 233 230 219 222 210 217 235 182 172 191 217 209 169 210 204 209 220 232
292 282 275 278 281 280 287 289 292 288 312 267 284 279 290 255 298 279 293 309 315 290 316 320 309 271 280 373 290 245 234 236 240 224 237 241 241 234 231 213 205 216 228 234 212 200 205 213 196 214 169 210 233 235
244 292 279 215 255 301 293 288 278 287 200 273 287 302 299 294 290 321 301 337 315 328 326 305 296 278 271 346 353 261 246 227 233 237 228 246 244 247 253 213 203 214 208 240 173 203 183 217 209 219 224 225 227 254
316 298 326 304 299 293 299 284 290 281 289 277 291 290 302 306 312 290 345 335 336 531 544 436 285 281 323 334 338 352 256 240 234 231 237 229 237 256 240 211 209 212 209 220 232 239 231 215 206 229 229 221 242 260
328 203 317 308 294 302 295 290 289 282 288 257 290 288 291 302 298 321 341 469 609 632 536 419 352 338 318 313 315 334 309 252 238 235 237 238 232 247 227 220 202 201 209 218 226 232 196 203 237 213 235 236 236 255
319 304 316 304 302 307 292 271 286 276 291 243 291 287 284 331 319 350 425 646 691 465 406 350 338 319 311 302 300 311 321 258 243 233 237 224 230 235 225 210 208 214 215 213 219 204 177 232 245 238 229 245 239 221
253 303 303 321 298 292 295 287 279 284 299 277 288 289 300 323 341 489 657 522 420 378 354 334 323 305 299 300 297 302 315 322 256 238 239 234 227 230 231 227 208 210 213 218 231 230 246 239 242 232 214 227 234 236
305 301 299 296 298 290 289 271 289 284 297 295 299 288 288 317 343 478 421 388 370 351 332 328 302 286 295 297 294 300 307 318 332 255 243 237 225 226 223 222 210 206 223 192 229 230 240 254 251 235 237 214 262 221
312 294 289 289 295 289 279 282 286 292 280 269 279 281 280 305 324 390 387 369 342 325 320 305 293 287 286 289 285 287 299 308 316 322 255 240 235 225 221 221 213 217 218 191 235 226 239 247 239 238 214 213 205 200
318 294 295 292 287 293 274 275 309 272 282 277 283 283 279 293 305 293 378 353 331 320 312 289 287 287 291 291 278 278 289 294 301 313 284 251 233 236 228 221 220 214 212 221 235 233 239 245 236 212 188 187 211 218
313 298 302 288 292 282 288 226 287 281 277 283 281 280 286 286 301 286 284 338 281 308 297 289 282 286 282 287 284 276 281 291 294 299 307 282 251 237 215 223 226 221 213 225 243 246 253 216 240 198 200 200 230 258
310 298 305 292 290 283 291 325 274 281 280 276 275 285 282 291 299 297 290 328 310 268 300 292 286 279 280 282 284 275 276 285 293 292 300 289 273 256 231 236 224 211 215 236 262 269 241 241 224 202 192 244 210 234
302 304 299 308 301 292 314 309 281 287 283 281 292 280 278 283 293 289 285 293 318 314 304 273 286 278 283 277 284 280 275 283 283 283 283 285 278 262 254 213 222 239 229 253 241 239 243 229 205 201 204 194 202 213
301 297 292 291 296 294 298 319 293 295 331 300 283 279 275 278 292 281 291 273 274 311 315 297 293 282 270 275 280 277 273 278 278 277 277 276 273 271 256 245 243 235 242 257 235 243 250 206 200 201 201 200 196 210
304 297 294 298 294 309 315 256 313 294 280 276 287 281 270 188 290 276 261 290 268 253 322 310 289 295 284 278 268 275 273 272 276 274 268 267 267 241 261 254 246 253 247 231 236 244 219 231 204 213 209 206 204 206
291 297 293 302 295 288 291 337 304 293 165 293 286 276 272 192 285 276 285 286 283 270 247 307 330 307 251 289 276 276 275 275 268 272 271 265 250 258 254 255 257 244 242 246 238 243 223 218 210 206 210 209 212 215
199 292 290 264 293 295 293 268 291 282 300 291 285 277 269 269 276 277 261 275 279 285 272 255 244 322 340 313 294 288 264 279 282 265 267 269 263 261 262 258 255 237 240 230 233 230 211 178 214 211 205 210 212 213
283 290 280 290 261 294 239 294 270 301 291 290 286 285 266 277 275 270 265 290 269 268 282 285 265 252 248 294 333 314 308 303 300 303 276 260 266 263 262 257 249 238 230 227 211 217 220 231 222 221 215 219 222 219
285 284 285 290 283 284 278 286 310 309 279 280 291 283 272 280 272 268 270 264 284 263 262 286 280 283 272 257 248 258 317 347 345 291 291 284 275 226 263 247 250 238 232 224 225 223 222 221 219 219 218 217 215 219
286 220 135 289 281 287 277 284 273 314 279 297 288 277 295 284 268 268 270 268 262 280 281 269 273 286 287 264 283 265 256 253 273 335 339 309 299 284 275 259 259 254 241 235 224 217 235 232 235 234 226 225 224 224
290 264 286 147 208 278 280 285 274 281 310 290 295 312 295 282 277 275 273 265 265 279 258 277 280 283 297 288 289 279 283 276 265 252 257 291 276 351 304 298 276 258 255 256 233 226 223 219 216 218 222 207 205 210
210 287 285 198 220 233 286 230 288 290 327 320 312 299 287 282 271 268 279 277 272 264 261 266 266 285 271 297 303 294 293 285 282 292 281 264 255 272 307 332 343 328 305 290 274 255 248 239 239 231 225 223 219 219
285 290 285 280 264 286 284 277 359 279 323 300 296 293 298 273 268 275 287 275 268 265 263 280 269 301 305 292 300 310 310 305 300 302 290 289 300 279 263 250 268 304 323 344 349 295 306 288 277 261 251 246 236 233
302 298 282 276 276 284 279 282 277 299 315 303 298 295 274 268 280 284 295 271 268 280 280 273 280 303 302 291 305 309 318 316 316 307 310 310 292 294 324 313 281 270 246 249 304 318 327 348 350 311 294 296 295 306
310 312 283 280 272 282 273 280 302 309 310 303 283 278 275 279 283 292 275 270 274 275 291 285 285 301 316 310 331 328 320 319 319 303 297 299 327 357 348 337 328 307 296 280 267 245 233 233 273 285 300 307 319 354
237 302 286 281 282 280 277 309 296 296 272 294 297 281 289 293 270 272 270 277 279 282 294 303 309 312 319 339 328 322 322 324 310 300 330 337 338 338 333 329 321 310 322 327 314 290 280 271 257 250 246 244 244 244
311 300 287 271 288 282 277 282 294 293 293 295 304 286 289 284 279 278 280 277 284 288 301 315 315 339 329 331 325 324 319 306 337 330 321 319 320 314 307 299 296 293 291 293 294 302 324 307 288 281 270 263 254 240
305 297 203 199 287 283 277 275 304 299 301 296 296 291 294 285 276 282 283 296 306 322 325 346 332 292 301 312 323 310 314 294 322 311 303 299 293 294 286 285 286 283 282 283 284 284 283 283 284 280 278 274 265 267
305 299 288 249 286 284 280 287 297 307 305 292 292 279 281 293 289 274 276 285 285 311 341 285 299 313 322 318 313 345 334 316 309 288 283 275 275 277 277 298 367 462 464 462 460 361 357 290 281 271 263 257 254 254
304 293 292 291 287 285 290 284 287 293 284 279 276 277 286 274 265 309 287 285 287 287 303 323 320 319 313 331 343 317 307 298 285 270 267 280 297 419 487 523 499 492 433 432 449 436 452 444 440 526 419 371 274 269
299 295 295 294 292 290 287 282 282 281 282 275 275 278 278 279 282 287 291 291 300 306 308 313 326 323 357 331 305 286 285 268 266 290 292 386 462 472 477 502 511 580 412 392 393 393 395 510 444 505 404 425 368 353
304 302 298 296 290 289 290 274 282 284 278 276 276 277 280 280 282 288 284 292 323 331 348 343 357 357 302 284 285 268 267 291 291 353 457 462 477 495 487 477 449 384 409 469 458 453 496 500 507 457 445 378 365 350

GFSWCAN_2pvu_pres_024.txt.gz
Presure
109 229 176 295 230 293 301 284 289 283 273 296 283 260 287 283 273 302 285 279 285 297 296 312 312 302 291 314 260 239 262 245 243 233 232 228 224 223 219 214 214 226 212 211 234 216 243 221 229 212 206 191 213 216
178 188 295 199 192 302 316 282 297 185 289 296 287 255 281 277 291 270 296 288 286 290 290 289 326 306 287 295 320 256 243 246 229 236 234 226 225 221 221 217 221 226 215 198 207 222 235 245 201 221 224 209 214 213
298 293 292 335 314 308 272 301 271 311 296 290 284 275 305 279 286 288 289 295 288 290 283 290 310 308 313 272 303 286 256 245 235 239 234 229 228 228 219 213 221 219 215 205 226 224 205 203 208 167 219 222 224 222
265 315 306 316 317 324 293 326 162 309 291 293 291 289 290 299 301 289 295 294 306 313 309 316 320 306 320 328 274 306 286 247 247 241 224 230 232 231 229 227 221 232 217 208 241 226 179 199 222 197 208 218 238 212
186 321 254 327 333 305 313 310 296 290 293 287 286 287 289 287 293 325 310 312 335 352 362 467 328 306 315 316 273 271 315 263 244 239 243 229 219 233 234 237 233 233 217 206 210 238 230 223 188 210 214 203 212 245
335 292 328 318 309 311 295 274 294 303 290 291 303 260 260 295 297 327 312 342 352 630 623 645 611 538 462 310 309 268 270 362 258 245 231 240 216 226 237 252 242 243 213 202 215 227 240 244 186 242 222 217 219 235
339 331 323 312 314 330 313 294 285 294 305 303 304 282 293 307 308 290 330 428 647 585 464 443 465 412 406 329 285 272 275 352 304 254 242 238 230 231 234 251 245 246 214 210 210 212 227 232 190 220 231 236 238 229
337 327 313 324 307 316 200 287 286 286 296 287 282 291 294 282 308 306 350 422 393 383 370 367 358 354 338 324 309 299 322 332 345 263 253 239 228 232 230 233 241 242 213 210 204 211 214 222 205 230 209 250 213 222
335 327 310 316 318 324 300 285 310 294 278 295 301 287 304 289 304 315 328 390 356 341 370 349 344 325 316 309 308 308 309 311 321 328 258 244 232 231 230 228 230 242 214 221 214 221 212 218 182 238 214 254 256 239
320 316 314 310 307 311 305 287 283 281 283 285 281 284 302 281 309 294 309 365 340 358 351 333 321 308 308 303 303 296 302 303 312 317 264 249 232 222 227 226 225 234 222 217 211 210 228 227 225 206 237 247 241 218
317 315 315 305 319 307 299 295 282 284 303 267 282 292 283 278 296 298 307 368 349 328 327 314 303 293 294 295 296 294 295 301 305 320 328 255 241 235 229 223 221 226 226 228 213 204 221 211 238 229 244 240 243 213
316 312 307 306 300 302 294 310 284 293 281 273 280 304 277 277 291 286 301 361 340 331 315 300 291 293 290 292 290 286 286 292 302 315 323 329 253 241 230 232 219 224 220 219 209 217 223 213 225 235 245 251 235 213
316 222 303 300 298 266 296 288 285 291 279 292 291 297 284 280 281 287 294 288 333 321 306 280 292 281 289 290 285 288 284 285 291 304 307 310 319 257 240 238 232 220 221 217 215 220 225 216 224 241 263 238 216 204
309 305 300 299 301 298 292 285 295 297 280 285 296 294 275 297 291 287 294 298 274 311 301 305 281 292 281 281 284 288 283 282 282 294 292 294 301 300 265 244 236 231 227 208 220 223 226 219 235 268 256 201 216 207
307 308 305 298 299 294 298 288 292 293 303 289 203 288 316 289 282 279 288 281 289 270 311 297 302 291 287 276 280 274 284 278 277 283 288 288 287 290 292 273 255 232 230 225 218 226 221 220 249 247 244 247 215 212
310 306 298 297 296 294 300 295 293 295 290 173 286 299 309 196 282 277 286 280 275 279 265 308 306 290 284 281 279 275 269 283 282 281 287 284 282 282 281 280 273 257 250 240 230 240 225 226 258 240 238 244 206 207
308 303 295 295 296 301 302 293 300 293 283 306 288 318 283 281 284 277 282 278 280 271 278 266 313 308 301 279 260 283 277 264 278 282 283 285 275 274 276 273 267 259 257 252 248 243 239 228 256 239 240 241 212 212
305 300 294 295 295 292 294 291 288 285 289 289 278 172 281 290 279 276 270 274 273 274 278 282 272 257 305 312 303 299 279 288 275 267 267 280 280 273 196 272 264 261 251 259 246 248 241 242 253 232 241 236 230 225
303 294 292 294 299 300 291 292 294 289 283 294 305 293 285 290 282 284 271 272 275 270 271 264 279 276 268 258 250 299 330 319 301 274 264 266 265 274 272 263 104 264 257 234 252 248 243 247 246 236 234 242 231 218
312 293 172 293 297 293 285 286 282 280 309 287 299 300 298 289 280 278 267 271 271 269 271 279 270 268 284 279 270 268 257 250 298 353 347 323 283 273 275 277 272 267 264 222 250 243 254 248 240 238 224 213 228 221
329 299 288 290 295 289 284 134 279 273 279 295 286 311 277 288 287 285 273 277 274 267 271 266 282 273 263 264 271 283 281 281 270 256 260 278 301 349 329 295 261 269 266 263 262 256 254 252 247 245 237 235 227 218
226 303 288 292 299 286 284 277 278 176 274 270 279 307 297 294 292 278 275 271 277 271 270 267 266 268 261 270 276 279 276 281 285 283 285 278 253 270 293 313 343 293 273 267 269 266 257 251 250 238 244 235 224 222
220 305 299 300 300 292 274 282 277 168 153 215 280 288 310 298 297 277 265 279 283 280 273 271 267 263 264 263 269 268 263 280 289 301 294 293 290 288 282 252 267 294 301 326 308 276 273 264 258 250 249 244 238 231
321 306 292 150 306 285 281 270 284 204 276 281 268 280 275 298 301 273 297 293 283 269 264 272 280 280 267 268 263 280 262 263 308 302 290 298 304 308 302 299 295 291 258 258 292 308 325 312 286 272 259 255 260 253
211 386 308 308 302 282 278 282 280 279 285 290 280 283 278 288 280 326 301 296 287 268 265 268 280 283 268 273 280 281 285 284 300 308 306 291 328 308 322 323 315 305 307 305 296 257 251 287 306 317 327 333 311 276
339 393 347 305 296 286 281 280 278 272 296 286 282 310 336 321 320 300 298 294 285 277 269 274 278 291 293 281 279 279 287 295 301 316 326 339 337 333 328 326 325 330 321 302 300 321 321 281 257 253 266 286 314 333
358 383 344 308 300 283 283 280 277 284 285 282 311 294 294 310 304 291 287 289 267 273 275 277 282 294 274 274 279 289 293 300 304 324 339 344 339 336 336 327 314 322 323 337 340 344 348 338 340 332 275 260 254 254
408 352 326 307 301 297 282 278 276 281 283 277 303 298 300 306 309 302 288 272 276 285 285 278 275 275 276 285 296 304 314 345 353 346 298 334 333 328 317 346 336 329 323 322 321 319 317 321 326 328 326 298 294 264
347 251 323 307 299 265 284 278 281 280 286 282 287 295 296 275 298 296 295 290 284 283 288 285 287 287 292 299 303 351 360 288 288 336 330 318 316 354 348 329 319 313 308 303 299 296 295 297 298 299 297 298 300 311
337 333 313 311 300 296 290 290 284 280 276 284 282 300 275 289 292 293 299 294 290 291 287 293 296 276 281 282 288 319 298 331 336 321 322 344 340 326 316 302 296 296 295 292 289 286 285 286 287 288 289 291 288 280
334 331 325 309 299 294 291 291 285 283 280 282 276 283 299 300 288 286 290 276 277 287 287 276 287 302 288 287 335 301 322 332 344 372 345 312 295 291 288 286 283 278 296 304 429 435 516 523 525 455 404 400 288 276
329 317 316 308 300 300 300 292 288 285 286 280 280 318 314 308 305 276 275 280 286 282 285 286 287 296 294 340 342 348 371 381 340 307 295 288 279 276 301 307 483 501 509 504 506 512 580 624 616 438 442 449 438 436
321 313 308 300 299 299 292 290 292 286 281 286 280 281 285 281 280 284 287 284 286 284 284 285 287 298 344 343 371 387 319 297 285 280 273 292 296 315 491 528 522 478 417 405 477 460 428 415 431 429 422 427 431 448

GFSWCAN_2pvu_pres_027.txt.gz
Presure
193 211 126 310 195 128 296 285 334 310 320 290 315 295 295 299 289 292 280 293 296 293 287 285 292 296 284 301 295 278 263 248 268 253 240 237 230 273 232 221 225 221 214 212 227 217 223 248 241 233 243 214 208 229
347 134 286 283 213 294 269 312 317 299 134 294 298 256 306 293 281 281 305 284 282 282 295 309 276 290 311 292 307 287 280 260 246 258 247 234 231 225 225 223 226 219 216 226 219 202 239 219 241 234 221 199 211 222
133 151 128 291 317 340 333 133 136 315 324 307 304 296 284 296 288 299 286 287 290 295 297 306 301 300 298 305 303 306 290 280 254 259 242 236 231 229 227 225 224 218 217 232 219 211 238 218 242 212 228 197 220 220
119 284 351 185 274 300 327 314 312 299 304 293 293 291 290 285 299 291 307 302 300 311 317 285 301 300 309 309 300 308 316 309 275 263 251 237 234 226 231 221 220 217 219 225 220 212 228 221 217 200 215 244 209 209
179 301 196 299 298 332 337 315 319 308 315 296 296 293 297 300 294 294 305 295 323 319 334 320 341 342 321 313 307 307 304 291 318 267 251 243 231 228 225 225 222 215 211 215 227 214 213 234 235 200 220 209 216 220
363 360 356 342 347 330 347 317 312 322 311 292 295 290 301 290 314 281 294 319 318 333 376 643 641 566 628 320 309 311 308 319 277 291 259 246 235 236 229 231 222 219 221 217 229 219 218 214 238 236 238 231 232 217
296 356 346 337 339 322 333 320 208 297 296 312 287 286 285 328 284 300 294 315 330 436 432 533 546 634 672 477 362 310 312 306 280 309 273 255 246 240 232 234 226 224 228 226 226 220 207 209 217 238 237 240 238 209
348 354 339 329 348 317 312 322 302 306 286 293 284 296 294 290 281 289 301 310 381 391 387 395 538 525 443 382 411 304 279 296 290 267 312 267 246 237 238 221 226 228 228 208 226 228 204 208 211 221 224 199 194 236
339 157 332 293 314 321 318 320 306 296 291 301 301 289 308 287 278 288 322 306 380 374 356 353 360 373 374 371 359 344 327 295 302 259 255 349 260 239 239 238 212 226 232 239 233 240 212 202 209 212 214 224 201 180
348 342 304 323 316 326 306 319 311 302 300 293 303 293 285 291 286 284 304 303 367 353 337 341 342 333 332 318 316 312 286 276 283 288 257 285 348 256 239 235 224 211 236 238 239 244 213 209 211 205 214 194 216 234
293 331 320 319 321 315 302 308 300 306 299 302 296 290 282 281 273 285 294 290 305 347 323 324 319 308 309 309 307 307 313 297 284 281 299 328 336 286 250 235 228 224 213 232 235 247 219 205 211 212 210 221 232 234
343 333 313 316 313 312 298 304 176 296 295 301 286 297 278 278 290 300 290 290 296 340 329 318 310 304 301 302 300 300 302 300 300 305 308 311 321 341 256 241 232 226 226 215 223 245 213 211 210 214 208 216 228 235
282 332 324 167 316 307 303 306 296 295 292 300 275 282 283 269 302 291 281 293 298 339 308 296 301 295 302 294 293 290 290 290 291 295 299 310 321 324 273 245 236 229 225 228 223 225 225 217 221 216 207 221 225 229
341 327 316 310 306 315 307 304 298 295 289 292 287 291 290 275 289 291 302 284 291 286 304 305 300 299 295 290 291 289 291 287 282 278 289 297 306 309 328 254 244 234 230 228 225 215 224 223 225 221 211 221 224 214
341 329 294 311 306 309 306 302 298 293 295 293 287 280 291 282 291 288 297 287 281 278 281 313 293 301 293 291 283 285 283 286 284 279 278 290 293 296 305 310 262 244 236 229 225 230 221 223 225 222 222 225 213 224
336 339 334 320 299 310 301 299 298 298 291 285 285 284 283 293 284 284 293 285 279 285 287 273 278 298 291 293 277 276 278 280 282 281 276 280 283 286 294 295 296 279 247 239 235 226 228 228 218 213 223 223 227 218
333 332 328 327 314 302 304 300 294 292 291 290 293 285 283 282 283 303 291 273 280 272 281 281 276 315 299 291 282 281 281 264 267 270 278 283 282 282 285 287 286 285 277 263 248 238 232 232 230 226 224 222 227 222
338 332 326 328 316 300 299 294 291 294 289 291 291 282 297 289 278 296 147 277 275 278 276 276 280 276 263 299 311 314 297 283 285 274 261 262 271 278 280 278 278 275 279 272 268 257 253 250 241 234 234 228 213 237
334 336 334 328 318 305 296 291 291 286 289 284 282 293 281 287 298 299 282 274 280 273 271 275 270 278 281 279 265 259 268 303 325 322 313 278 271 262 274 280 275 272 273 271 266 164 266 258 253 251 248 248 249 247
346 332 360 325 318 309 296 290 292 282 285 279 282 280 274 282 295 294 279 275 280 276 267 271 274 270 269 267 282 281 276 262 255 255 291 335 353 275 275 271 270 282 274 272 268 265 264 261 226 253 252 248 246 227
348 335 328 341 325 313 295 290 282 289 287 134 283 289 282 282 281 290 278 274 275 268 270 269 270 269 270 281 271 261 266 274 281 283 277 248 268 295 304 286 283 277 281 284 278 272 269 254 261 253 253 252 245 241
344 345 321 335 330 314 292 286 290 286 283 278 281 280 246 292 289 286 289 284 277 277 278 264 279 267 268 269 268 275 281 278 279 276 273 284 287 280 262 250 275 293 307 315 294 281 267 269 269 255 260 255 252 248
348 345 336 338 330 334 294 289 288 286 282 279 279 277 221 324 286 297 292 294 272 284 277 269 262 279 270 271 267 268 268 268 266 274 274 270 276 287 287 297 299 280 258 264 289 304 316 298 270 262 265 264 261 254
348 343 351 369 273 338 312 290 276 288 280 278 280 279 280 161 271 171 291 298 280 285 276 268 260 270 278 270 274 277 270 275 266 268 265 270 272 278 273 297 308 313 323 311 305 262 268 294 307 306 278 273 253 260
345 355 357 376 333 326 303 291 281 292 281 277 278 280 279 275 272 271 303 301 302 273 287 268 266 287 282 269 264 266 277 285 280 280 276 286 289 294 291 299 312 311 296 341 338 338 330 334 274 267 269 296 312 320
367 355 357 379 332 324 301 291 287 293 285 281 279 279 279 275 275 272 276 270 270 295 285 272 301 292 285 276 268 261 264 270 275 290 298 275 283 286 299 302 321 343 352 347 341 336 334 331 332 337 334 290 273 266
383 380 381 378 334 318 303 295 288 294 285 283 283 281 278 278 279 277 281 274 285 273 280 318 300 289 281 279 283 270 274 277 274 288 282 283 288 301 314 318 362 350 345 337 341 339 334 337 337 334 329 316 308 306
380 408 406 403 332 349 298 288 286 297 286 280 280 281 274 290 298 276 287 303 275 318 312 299 288 279 278 274 268 283 282 285 278 279 292 295 310 314 371 360 300 291 314 331 328 327 323 317 344 347 342 335 336 339
428 414 427 407 367 331 327 309 284 296 289 281 279 276 279 280 276 282 283 279 307 304 299 295 286 284 280 277 277 284 281 288 288 288 271 297 289 294 304 346 347 333 326 343 358 353 346 337 332 328 323 318 316 316
396 418 435 446 391 366 334 313 301 297 289 283 277 279 283 280 276 299 303 291 294 274 307 302 302 301 295 294 293 289 293 288 290 304 289 297 353 354 345 352 374 381 363 340 324 318 313 310 307 305 305 302 298 298
437 432 441 462 367 351 329 313 259 299 190 280 277 279 279 278 276 285 296 291 293 295 297 294 294 297 298 291 294 298 284 287 304 304 301 352 359 385 395 345 314 305 303 302 297 293 290 287 286 286 283 283 282 279
429 435 213 414 350 336 325 311 297 297 294 286 280 281 279 276 282 286 297 281 295 302 286 285 278 284 297 298 287 285 299 280 341 318 383 407 324 303 297 293 289 285 277 295 311 405 528 529 519 513 507 500 505 498
421 384 239 326 339 327 313 303 294 298 296 288 285 280 276 280 323 274 289 304 305 309 310 288 289 296 288 287 290 282 313 312 316 403 312 297 292 285 288 299 303 342 476 496 527 419 458 477 428 433 459 543 556 538

GFSWCAN_2pvu_pres_030.txt.gz
Presure
203 202 300 293 285 296 274 132 161 283 295 324 233 308 312 319 308 299 290 293 282 278 297 283 281 293 292 295 280 289 297 296 277 259 272 276 255 245 241 241 238 228 228 240 276 269 232 220 207 222 223 231 236 239
310 308 297 255 258 284 133 132 318 325 332 311 341 295 301 287 296 306 293 293 276 288 280 287 300 286 294 301 298 284 292 297 317 271 248 286 262 239 239 233 231 282 287 275 220 214 223 210 229 231 232 236 246 208
348 386 396 272 298 367 134 354 345 342 349 314 305 313 324 294 299 297 191 289 293 292 281 295 287 292 301 295 290 289 277 281 300 306 268 250 264 241 234 239 281 283 246 217 216 222 212 207 231 219 234 235 202 237
292 356 294 364 362 134 227 357 354 339 332 328 312 322 306 265 298 293 283 289 286 294 302 288 284 300 302 314 309 286 284 286 283 305 303 258 271 241 233 220 257 215 217 224 217 225 218 206 226 228 239 249 238 194
276 404 341 376 362 367 363 347 352 341 320 337 260 311 302 306 300 300 288 291 290 319 301 300 311 315 nan 476 317 298 289 291 293 288 297 293 250 257 229 228 220 220 225 223 219 224 223 214 218 225 205 209 209 184
314 354 361 381 342 367 281 183 330 356 330 323 303 309 305 292 285 291 285 289 290 289 308 343 415 534 659 631 535 337 290 291 296 300 301 282 271 254 238 226 221 221 221 223 214 219 227 220 214 214 224 229 225 192
392 172 137 285 163 281 338 341 325 333 331 319 307 298 294 292 292 296 293 272 280 293 323 346 542 586 628 549 623 379 300 289 287 296 286 296 307 255 241 237 220 222 222 220 215 213 219 229 219 213 212 219 235 190
122 109 137 228 257 206 328 312 332 330 231 295 306 310 292 302 292 301 309 300 284 307 320 422 426 491 627 586 583 459 327 297 300 297 295 305 276 285 250 243 230 222 217 218 221 217 219 214 226 215 210 213 224 227
223 163 218 338 179 190 336 326 316 314 317 320 306 300 294 293 307 310 301 290 293 308 317 344 379 370 362 375 404 351 331 299 291 290 294 279 291 298 257 253 234 228 223 214 222 220 221 223 218 221 211 210 214 221
187 331 175 354 278 346 330 316 311 320 298 302 319 300 301 199 299 296 279 280 305 308 315 337 345 349 372 336 339 354 314 317 302 297 293 279 299 253 306 257 247 234 225 228 228 222 222 223 222 225 216 208 213 212
367 166 314 233 366 339 328 313 308 299 297 301 298 297 291 299 308 288 290 284 309 300 302 322 329 321 324 325 317 319 339 333 313 291 275 272 297 262 261 310 255 246 234 223 226 226 228 227 227 227 232 213 203 203
256 395 335 371 334 336 325 313 300 319 302 302 302 293 286 287 306 289 289 285 294 287 295 327 320 312 312 309 312 306 308 311 311 308 312 292 291 282 252 258 354 255 241 237 224 228 228 229 231 230 238 221 212 213
400 348 367 267 358 350 332 319 307 304 296 303 299 293 284 284 290 283 284 279 282 294 297 300 315 312 308 300 303 302 294 297 299 295 295 282 265 267 272 254 252 341 255 234 234 226 223 217 236 231 244 226 216 216
387 128 238 359 358 347 315 323 314 307 300 298 294 288 289 284 297 288 288 279 283 289 166 287 306 308 307 300 291 296 292 293 288 287 291 296 302 312 316 322 328 330 324 246 227 226 225 233 216 213 237 237 215 214
363 371 358 310 347 332 338 325 312 300 296 301 291 288 288 281 283 300 305 282 274 282 287 284 283 306 292 298 292 293 292 290 290 279 276 279 292 296 298 308 315 319 318 274 235 224 225 225 230 228 226 237 228 223
296 322 359 353 343 340 337 329 309 304 293 297 293 289 288 285 290 278 282 288 280 271 285 277 286 287 310 294 294 282 282 283 282 284 281 278 276 287 289 293 299 308 305 296 251 234 231 224 223 228 224 223 218 228
371 358 325 353 344 335 329 328 316 311 303 299 289 292 292 289 285 282 281 283 276 285 282 276 236 279 307 300 288 288 284 274 269 268 271 273 272 269 281 284 288 296 298 293 284 249 234 233 233 227 225 228 226 222
361 366 130 349 344 342 339 332 323 310 301 296 290 293 286 298 284 287 286 284 281 276 285 275 280 283 274 273 295 303 299 286 273 272 268 268 271 269 270 275 281 283 292 285 283 282 250 246 239 236 236 230 227 227
364 355 388 359 340 346 336 330 323 306 299 293 294 287 291 293 288 286 286 277 277 205 289 273 272 269 275 280 274 264 288 309 312 312 292 280 275 273 269 271 277 280 279 281 285 276 279 282 270 255 247 242 192 238
355 365 382 377 347 331 346 326 323 311 296 292 290 288 291 291 289 282 284 282 274 296 287 265 268 272 277 274 273 278 273 262 253 257 274 290 303 321 347 327 274 271 278 283 283 281 277 277 278 278 271 266 261 259
347 361 376 391 372 354 345 328 322 312 297 293 293 289 287 292 286 292 286 281 279 293 273 277 276 277 269 277 274 272 267 269 278 277 265 257 256 249 258 287 310 324 270 272 274 278 280 277 275 277 275 275 266 264
338 365 372 389 371 364 351 346 327 312 309 289 293 292 287 287 280 284 278 275 282 280 291 272 277 273 270 266 272 272 271 277 274 263 267 270 269 273 283 284 261 257 276 287 297 304 270 270 276 280 273 270 266 270
344 367 363 372 344 386 366 333 339 318 308 292 291 285 288 287 275 283 280 214 283 298 283 281 270 262 272 268 262 272 272 272 271 271 272 269 270 271 277 280 278 284 292 287 278 259 262 273 283 297 309 272 277 274
361 354 358 365 403 369 370 326 335 320 317 296 288 284 293 288 274 279 275 276 282 305 267 282 277 268 282 281 269 271 265 268 268 273 279 279 277 261 284 274 270 272 273 275 275 283 290 307 309 326 272 277 300 317
354 357 356 370 398 367 363 360 319 325 319 302 286 274 288 288 279 273 277 282 283 290 280 297 292 269 272 276 266 258 260 275 274 268 269 269 273 281 276 282 288 291 302 290 286 299 301 303 319 340 353 335 323 282
361 350 361 365 377 387 364 354 318 320 329 312 286 280 286 286 275 273 280 276 271 270 262 278 295 299 269 271 272 271 265 267 286 282 279 268 264 270 278 270 284 293 287 293 294 305 309 321 361 358 350 347 343 343
371 371 364 359 365 380 395 359 358 317 327 335 286 281 287 283 274 273 277 277 272 273 272 265 280 289 274 283 288 287 274 288 296 286 284 280 280 268 276 276 277 288 302 308 312 315 340 371 362 351 313 313 344 342
374 367 368 360 366 360 378 390 363 326 323 333 289 282 293 284 282 278 277 279 276 274 270 273 271 273 295 300 270 272 309 302 295 287 283 286 280 289 287 294 295 283 282 313 297 293 310 314 347 343 350 344 335 334
210 354 364 382 377 377 387 399 381 329 330 331 287 282 291 287 284 278 271 283 275 278 283 278 277 278 266 283 327 315 303 292 286 272 280 289 283 297 292 278 315 324 294 295 368 361 359 357 338 337 336 338 349 361
266 372 385 395 404 408 393 404 391 340 337 328 290 291 292 287 280 276 285 265 280 286 275 280 278 273 314 311 304 299 295 294 293 284 283 290 293 278 280 293 300 293 334 364 388 412 413 394 364 354 343 337 333 334
454 411 384 393 408 397 425 441 401 361 341 319 286 298 293 282 276 278 272 275 279 273 276 306 297 299 310 288 309 307 306 294 290 290 300 288 278 297 285 311 305 384 408 342 319 311 308 304 300 298 297 296 296 296
466 458 370 377 385 396 422 453 395 360 353 293 290 197 291 283 278 278 281 279 276 276 275 306 300 295 293 288 298 281 291 295 305 285 285 287 290 303 292 397 342 316 307 299 291 288 287 297 305 307 311 527 536 310
454 498 494 395 411 429 446 411 355 356 338 296 300 293 283 279 279 282 279 273 275 277 288 295 279 287 311 304 314 302 287 289 288 283 290 292 313 395 319 304 294 282 277 282 300 323 433 479 588 575 439 422 422 444

GFSWCAN_2pvu_pres_033.txt.gz
Presure
296 152 285 245 157 349 386 413 367 359 354 120 342 353 347 320 296 228 286 307 289 295 291 285 282 285 277 286 292 288 287 284 285 294 301 276 245 285 255 249 241 233 230 229 227 230 224 226 223 219 221 231 247 218
292 289 256 245 347 235 263 422 397 374 330 376 355 347 326 289 300 304 319 308 291 279 290 290 284 285 282 280 287 276 280 281 290 276 284 296 274 257 282 248 241 233 233 235 234 235 225 218 261 245 249 215 220 230
221 264 298 297 223 305 253 421 369 343 326 383 357 357 324 308 322 316 305 295 300 293 289 291 278 277 285 297 302 300 279 287 288 285 287 284 309 255 267 253 245 238 237 229 224 226 269 272 256 214 216 229 228 233
246 271 292 318 229 273 394 285 296 360 287 191 350 327 358 324 306 304 306 286 285 286 290 288 287 290 285 284 289 287 290 295 285 286 281 281 287 290 256 277 240 238 227 231 277 281 279 227 213 220 224 234 234 236
279 288 271 266 282 129 341 142 317 232 204 182 351 334 266 282 314 307 293 297 288 289 295 295 290 291 294 293 298 314 317 324 298 286 281 276 283 288 266 261 239 236 232 282 285 280 217 210 223 214 242 233 243 243
284 279 283 326 122 301 388 181 365 231 143 336 326 342 330 306 294 304 288 296 282 298 294 299 287 336 325 339 581 548 541 428 309 291 288 273 271 290 299 254 243 232 238 269 276 214 221 222 222 222 232 217 214 214
265 307 171 262 294 296 384 281 131 181 329 301 335 308 105 310 319 298 288 298 288 293 304 299 304 310 463 650 562 686 640 615 381 332 290 281 283 281 295 263 259 234 232 224 222 218 221 219 231 223 211 226 227 229
274 278 210 198 151 341 230 152 158 135 144 335 294 325 308 303 294 295 297 291 293 299 288 298 312 355 418 595 605 648 677 513 356 321 286 278 284 278 281 290 256 238 234 231 224 220 222 221 223 227 222 207 214 218
255 280 278 166 146 185 140 128 129 315 137 326 247 322 298 305 300 306 302 305 303 276 286 301 316 382 383 400 513 527 459 335 307 295 279 281 273 278 279 285 301 247 232 235 230 223 221 222 213 214 216 224 219 216
259 134 401 132 208 133 150 146 151 300 247 325 320 306 298 309 291 293 296 295 306 288 292 302 302 342 365 352 358 331 314 304 304 293 283 280 282 278 281 295 282 258 244 233 231 223 222 221 221 215 218 213 224 221
234 327 232 125 308 353 139 211 207 313 341 324 318 311 300 304 297 298 293 297 297 285 293 293 294 334 338 340 348 319 301 300 296 288 281 273 276 278 288 283 285 286 250 239 234 230 224 222 214 220 216 220 221 221
198 299 429 308 334 354 309 377 304 347 331 315 321 312 302 301 294 291 286 293 302 277 300 289 288 324 321 321 326 330 338 301 296 290 289 285 270 271 292 271 294 269 287 250 241 232 234 224 223 217 217 219 218 223
281 304 415 337 396 383 362 175 360 171 297 317 315 307 300 285 289 294 289 290 291 280 293 286 290 286 310 308 305 304 303 308 309 314 310 307 304 286 281 262 292 290 262 294 252 243 234 234 223 225 223 218 223 222
272 357 353 378 309 230 364 152 354 348 336 324 317 297 315 302 303 298 290 289 295 277 289 280 281 275 304 312 299 296 309 300 293 291 293 294 294 296 302 282 283 293 273 246 286 265 246 237 235 221 222 224 215 221
301 307 357 293 292 381 331 357 352 346 336 323 312 302 310 297 294 300 295 289 285 307 285 279 282 277 297 313 305 311 301 295 293 287 285 286 289 293 300 307 313 283 265 258 247 260 322 245 245 237 233 224 224 227
292 336 186 297 391 383 373 342 353 340 332 327 313 307 306 299 295 294 292 281 291 282 273 280 274 279 278 303 307 294 290 292 290 286 281 274 273 276 286 291 297 309 312 314 317 294 248 294 261 237 236 238 227 224
313 307 339 337 288 375 383 365 353 342 330 332 314 312 308 299 293 292 295 288 286 281 282 292 277 279 279 273 294 288 296 284 280 280 277 279 277 277 271 273 282 288 294 298 298 300 302 297 283 258 238 234 228 228
322 325 305 334 281 372 126 371 359 339 333 333 320 315 307 305 297 294 290 285 286 282 277 302 278 269 275 274 277 298 296 294 285 279 277 271 271 270 270 271 272 275 280 285 294 291 294 291 282 273 256 239 234 228
311 334 338 342 389 332 369 396 353 352 330 328 323 315 311 303 297 291 290 289 291 280 282 300 269 270 277 278 282 281 263 294 305 290 283 277 275 273 272 269 271 271 272 278 284 286 290 293 296 287 274 262 245 238
321 256 337 186 302 371 377 360 396 349 340 329 331 320 311 306 299 295 294 292 294 277 276 271 281 274 284 280 287 275 273 268 264 273 304 309 317 310 284 285 282 276 273 276 277 278 286 289 289 290 288 283 270 261
314 293 329 374 365 358 369 372 394 358 342 330 330 324 317 306 295 297 295 288 284 280 282 277 283 283 278 259 274 265 268 276 280 270 264 258 256 252 257 260 273 281 293 313 374 272 271 277 281 280 287 289 287 283
306 323 346 373 352 353 359 383 383 396 336 331 332 335 316 305 294 296 293 285 289 284 283 279 287 273 269 277 270 269 280 277 269 266 263 269 274 275 275 267 269 265 258 255 265 286 304 314 283 272 268 273 280 281
331 368 343 355 344 361 363 377 379 375 357 326 332 338 330 305 297 292 286 288 285 283 285 283 288 277 277 268 266 274 276 269 272 270 268 269 270 265 264 269 265 266 272 271 276 281 283 273 260 265 272 281 290 295
382 373 355 339 336 339 380 382 373 372 370 342 337 338 343 304 293 289 285 289 280 283 277 275 277 276 281 289 275 258 261 276 268 263 270 275 274 274 272 282 265 269 282 280 278 267 261 263 270 279 286 287 289 296
376 343 356 347 349 353 371 367 367 373 383 372 345 342 346 307 290 285 287 288 280 278 280 282 310 274 287 279 283 270 262 264 282 275 266 274 274 269 264 270 272 272 274 276 280 276 284 288 286 294 302 258 308 311
364 362 361 346 358 355 366 359 356 365 386 367 365 334 344 306 290 287 286 284 281 279 281 277 275 292 297 292 287 281 278 269 271 276 263 262 268 271 276 280 284 272 274 275 278 281 278 286 289 288 299 302 307 317
372 369 371 359 355 353 354 361 366 359 381 363 367 339 337 305 293 290 282 288 283 276 276 276 275 315 296 272 296 298 295 283 277 280 274 274 275 274 267 275 298 300 289 285 286 286 288 295 293 290 288 311 322 315
382 369 373 370 345 358 369 375 372 360 363 384 372 359 336 339 296 288 283 285 283 279 277 276 274 267 272 270 263 270 278 282 282 278 287 270 283 282 281 299 315 301 284 290 292 298 299 292 284 311 322 311 296 303
375 361 358 362 382 375 369 369 368 360 371 366 388 392 357 311 303 294 285 286 285 279 274 274 277 273 271 272 273 278 277 276 282 271 270 272 288 297 324 315 303 296 293 293 299 298 287 292 304 301 293 299 352 379
372 353 353 356 357 355 359 359 369 371 379 383 394 414 357 336 303 294 285 289 287 281 277 278 275 270 273 276 278 277 281 281 274 305 312 333 324 317 307 301 299 299 295 297 286 292 297 290 303 303 347 410 396 384
346 336 342 355 363 363 366 372 381 392 404 417 421 458 370 349 304 292 291 293 285 284 274 282 275 275 292 280 281 284 274 278 306 296 318 314 312 309 281 280 294 288 289 290 291 304 299 376 410 350 319 309 301 297
370 383 387 387 392 402 417 509 515 416 419 407 434 413 346 343 300 288 298 293 284 276 284 273 274 285 278 279 279 282 308 310 283 301 298 301 301 283 282 289 290 287 294 293 409 390 315 303 295 286 278 278 283 289
465 444 426 484 492 480 487 392 395 407 409 433 447 385 338 292 287 292 298 284 280 278 274 275 280 281 280 277 303 306 280 293 312 308 310 280 286 292 289 285 313 406 339 298 286 278 283 294 308 356 371 488 495 510

GFSWCAN_2pvu_pres_036.txt.gz
Presure
166 149 190 178 258 269 161 159 221 132 212 309 404 358 366 360 353 187 327 295 240 294 304 297 293 282 279 279 280 285 281 284 282 288 270 283 297 257 251 271 246 237 243 248 245 247 254 268 276 278 269 249 249 244
193 200 264 242 160 280 276 266 131 191 383 311 137 113 343 292 341 189 322 126 311 290 291 298 288 294 275 281 268 276 275 275 288 282 281 281 285 299 246 263 249 245 237 236 237 238 241 239 251 265 267 266 258 258
197 144 155 251 274 261 262 278 213 259 131 311 272 365 141 348 357 174 324 323 312 309 302 292 292 275 291 297 278 274 276 286 287 287 292 283 285 280 298 257 274 246 239 238 235 233 228 228 231 227 228 227 224 220
201 268 245 160 257 278 275 262 206 171 338 166 420 181 355 229 152 245 347 306 307 290 282 285 279 284 289 295 281 275 277 284 283 279 283 291 288 283 274 297 263 257 242 239 235 234 235 230 233 223 218 218 240 251
252 229 147 143 235 224 196 238 225 292 314 321 211 151 284 355 183 305 314 304 299 285 285 282 279 291 283 290 276 290 292 296 293 291 280 281 284 285 285 272 283 266 250 240 240 237 236 226 224 222 271 256 251 217
126 189 213 233 126 275 110 116 125 130 409 301 123 128 141 343 177 308 314 301 289 282 284 296 288 291 281 292 306 312 304 295 304 298 305 293 291 293 282 275 283 258 261 250 245 238 230 221 282 281 270 215 222 218
228 236 132 134 254 177 221 231 302 190 128 177 138 185 179 329 279 317 305 292 300 290 278 286 302 284 287 301 321 434 621 582 548 464 320 305 292 296 269 271 281 293 261 254 244 237 247 283 287 273 214 223 226 235
137 145 128 231 169 136 133 209 110 125 251 109 143 357 331 324 259 318 308 309 283 300 294 292 301 291 303 305 528 643 645 607 531 528 415 381 318 297 276 273 281 285 264 263 246 241 264 286 279 219 214 224 219 236
126 147 222 117 154 139 125 136 345 284 176 304 304 290 170 323 323 311 296 289 302 308 293 298 288 300 303 383 382 508 558 562 561 462 379 356 343 264 277 278 276 280 289 255 254 238 251 280 221 214 215 226 220 215
213 153 250 137 138 193 247 132 381 307 359 349 115 340 132 119 312 306 290 293 294 294 298 294 299 296 323 353 345 337 345 361 353 358 349 316 291 276 273 280 278 279 285 302 257 243 235 268 223 221 220 215 226 226
158 150 227 142 157 297 402 424 388 428 181 344 326 333 337 314 304 305 306 309 300 303 297 289 292 290 350 342 327 324 317 310 310 297 296 292 284 279 281 278 279 278 281 284 251 257 243 236 227 224 220 221 214 214
196 158 144 152 259 294 218 330 322 409 355 358 327 142 327 325 303 307 284 301 307 296 287 294 275 291 296 345 326 317 305 307 301 302 291 292 281 275 268 272 271 274 279 256 286 255 251 241 235 229 223 221 217 215
153 138 139 253 323 354 332 434 407 397 391 379 345 296 319 303 307 303 297 300 293 294 284 295 278 287 286 292 330 314 307 300 309 296 296 294 280 270 274 274 281 283 285 292 247 285 257 250 242 232 226 225 221 216
158 145 322 334 165 339 334 321 373 333 303 380 356 335 322 309 300 303 268 294 296 293 292 283 289 283 276 286 307 305 323 321 308 295 293 293 293 286 285 279 272 279 283 297 286 271 282 261 248 240 235 229 220 225
134 201 315 220 300 350 334 326 394 405 376 364 360 335 327 310 305 212 302 294 292 293 284 285 294 279 276 275 296 298 298 295 297 302 299 301 303 301 298 298 298 298 289 276 267 299 254 276 276 248 242 237 232 227
297 307 142 152 332 370 355 370 344 424 327 345 362 339 334 324 310 312 307 301 300 288 290 285 279 301 278 276 273 289 290 291 292 295 291 288 287 288 289 292 294 299 310 317 268 283 289 251 264 298 266 248 244 235
311 290 307 317 332 348 315 336 333 360 416 380 360 356 336 329 320 311 308 303 304 292 295 290 279 271 290 272 274 275 294 287 296 281 284 280 274 272 273 275 278 286 291 302 309 313 312 283 265 247 266 302 261 244
147 304 319 322 328 324 302 338 324 322 375 385 250 362 345 334 321 319 309 307 298 296 288 282 280 274 283 278 276 280 284 293 294 288 285 285 278 274 273 272 274 274 274 281 289 298 302 301 298 303 267 250 252 275
300 284 308 324 328 321 206 326 328 335 333 384 393 368 354 337 327 328 315 309 300 286 290 287 285 278 274 272 282 275 285 276 287 296 283 280 278 271 275 274 270 269 271 275 276 279 286 293 299 299 295 294 298 296
308 290 327 328 274 294 328 313 321 340 373 372 366 386 361 347 330 332 320 310 302 293 289 289 284 285 275 271 277 274 277 280 269 283 302 293 287 283 279 267 271 271 272 273 276 277 279 278 280 293 298 298 290 284
295 318 319 323 316 107 309 329 345 340 380 388 368 404 366 358 337 329 325 317 302 296 289 286 286 284 274 305 266 277 262 272 275 273 267 267 262 311 311 309 308 304 293 335 328 310 297 283 280 273 279 280 290 291
316 317 318 313 318 330 324 326 345 349 387 351 358 394 381 358 350 331 325 323 307 297 289 287 285 290 277 276 271 293 267 270 281 272 275 278 274 267 264 259 257 256 254 257 253 253 262 275 308 328 278 266 265 271
324 325 303 319 327 332 327 372 358 381 382 346 354 387 394 364 353 338 329 322 317 294 286 287 287 281 282 277 275 295 279 264 269 281 278 272 268 267 268 268 271 274 272 268 267 268 270 276 279 272 269 273 282 289
311 314 318 327 333 343 380 376 369 380 371 356 355 376 391 374 355 339 337 321 312 292 287 285 283 285 275 275 282 293 279 275 261 264 268 271 276 274 274 272 272 271 269 273 269 266 270 269 270 271 271 269 271 274
324 333 339 345 373 400 396 400 378 366 350 346 355 372 381 376 357 337 337 326 309 292 287 283 287 281 279 328 300 278 287 284 270 270 265 269 273 259 260 268 274 272 275 278 282 278 273 269 270 270 273 280 266 265
346 369 417 420 424 380 390 383 368 355 350 357 355 369 371 379 363 350 343 328 314 288 287 285 283 283 283 279 274 274 290 290 286 272 259 261 265 275 279 275 277 276 274 278 278 277 280 283 282 287 273 288 285 287
447 439 411 376 364 384 375 367 361 354 354 359 359 356 361 387 370 365 346 343 311 290 289 285 282 280 275 275 276 310 280 290 289 289 283 280 274 272 272 271 274 267 265 271 277 274 276 283 284 306 308 297 291 293
424 391 389 374 364 361 357 353 354 353 354 375 358 358 364 377 388 372 367 354 315 294 289 288 286 279 277 280 277 276 288 299 300 283 300 298 295 280 285 286 282 281 276 276 285 287 290 291 302 316 319 305 301 302
385 380 368 354 359 351 355 356 376 366 367 359 372 373 393 379 380 398 373 358 312 298 291 290 286 279 279 280 274 274 309 310 281 271 271 280 299 286 288 287 290 287 266 302 302 295 308 337 332 317 304 308 313 306
354 343 346 350 356 360 366 364 363 365 373 389 402 397 393 383 375 400 395 358 314 306 286 290 287 281 278 277 278 275 272 269 271 273 276 301 276 276 287 289 279 293 297 326 350 342 325 315 314 313 305 299 298 296
371 367 368 376 367 366 251 387 396 394 373 371 372 376 378 382 389 405 425 370 324 301 291 286 282 280 278 275 275 277 276 273 277 281 277 287 287 280 307 353 340 333 325 319 313 282 292 306 302 294 290 293 333 360
357 358 365 372 370 369 370 369 371 370 360 372 376 376 388 409 429 425 451 351 320 289 286 285 284 275 281 279 280 276 278 289 285 284 284 284 339 327 309 312 316 313 317 301 315 303 292 286 338 371 391 313 303 296
392 405 398 438 447 425 399 386 415 418 424 428 503 522 436 441 463 473 363 334 295 284 291 284 284 284 281 280 277 281 280 281 280 289 322 313 295 309 317 328 320 298 304 294 303 363 357 291 282 280 282 302 314 362

GFSWCAN_2pvu_pres_039.txt.gz
Presure
121 186 207 144 156 150 134 240 143 180 178 138 217 236 314 386 320 176 285 215 329 323 214 305 289 280 287 279 276 276 279 284 283 288 283 280 282 283 270 252 272 254 250 252 249 261 272 279 252 249 253 255 257 254
136 147 222 95 156 204 154 208 238 127 144 238 203 297 152 325 251 145 342 262 330 320 318 298 283 288 281 274 278 278 278 268 266 284 276 274 283 269 290 269 248 264 251 245 250 251 256 260 269 274 265 251 252 249
151 142 161 162 157 164 104 105 134 240 241 113 166 101 348 356 141 126 146 183 294 192 311 300 300 290 283 288 279 285 287 281 275 274 277 266 290 276 274 286 266 260 253 252 246 251 246 249 256 260 265 270 266 253
145 208 146 194 189 155 109 110 126 175 112 256 200 141 243 127 123 121 116 122 334 314 306 310 299 293 283 279 274 278 278 280 292 271 277 281 279 279 283 276 286 258 267 251 250 241 244 237 244 244 257 268 269 267
133 88 221 172 192 198 185 268 174 143 204 116 204 120 265 335 132 130 351 335 238 315 311 303 300 289 282 278 276 273 281 280 284 282 288 290 284 265 268 284 275 281 256 267 249 246 237 238 229 232 236 241 256 263
180 191 220 221 175 139 135 220 109 157 112 275 165 223 117 104 123 342 305 321 193 314 296 294 296 282 278 277 281 282 295 296 294 291 298 290 286 286 281 270 267 279 280 255 269 251 243 236 230 226 226 228 227 225
126 186 210 120 129 112 191 178 162 121 110 126 169 105 109 160 291 332 337 320 119 253 166 298 288 294 290 292 288 287 300 310 327 329 319 294 278 281 284 263 271 272 287 277 257 268 246 242 236 235 237 231 228 222
131 165 201 182 135 126 145 130 129 138 111 137 132 140 145 220 345 331 134 311 313 220 295 289 294 295 293 295 290 304 323 531 615 601 607 586 409 313 298 275 270 285 278 280 282 262 262 245 241 240 238 221 227 251
156 128 213 122 246 153 224 132 235 255 150 265 264 218 145 322 290 330 313 151 293 312 294 294 290 311 307 294 308 346 369 381 528 538 560 548 419 411 371 297 298 297 282 280 275 275 267 256 246 240 230 266 283 279
149 164 138 171 133 215 170 198 217 280 294 268 277 167 354 191 353 326 316 314 309 277 165 288 295 286 287 294 299 338 331 343 374 621 436 376 374 361 366 320 288 287 279 278 280 281 256 266 250 242 234 280 287 272
236 199 155 177 194 221 190 153 185 209 279 157 243 166 364 352 323 349 315 315 309 306 293 291 302 300 294 293 291 330 338 331 315 339 351 341 334 349 350 319 279 279 279 271 274 272 286 257 263 242 238 283 279 224
257 156 243 190 222 185 220 222 186 122 152 126 284 418 233 343 256 329 312 304 299 294 293 296 289 298 286 287 288 341 321 310 310 317 315 308 310 318 315 302 295 274 273 271 280 276 276 288 261 251 236 273 264 217
231 163 228 254 233 206 254 150 134 143 144 450 421 403 190 332 326 322 326 311 305 298 296 286 280 290 283 297 279 310 329 313 320 301 303 302 304 298 294 288 281 274 273 273 278 281 285 286 293 262 245 240 233 228
207 126 247 243 200 231 245 148 191 236 347 149 401 377 390 370 337 322 313 312 293 292 293 285 283 289 293 286 285 282 308 328 311 300 299 295 292 282 283 279 278 275 274 272 272 278 276 286 296 291 258 242 235 244
246 185 197 260 206 143 255 145 238 167 135 138 191 246 403 379 359 327 317 314 306 295 293 288 279 286 278 276 282 278 289 298 305 315 321 297 284 288 287 279 277 267 266 271 276 274 290 284 293 296 299 262 245 236
172 186 173 202 150 149 144 142 176 281 344 341 367 374 404 411 366 345 318 314 311 304 294 293 285 286 287 270 280 270 276 283 286 292 294 299 306 308 308 308 298 295 299 298 298 280 272 269 295 280 311 292 271 254
174 190 237 240 148 137 287 156 308 322 140 351 344 363 381 456 393 331 341 218 312 311 297 298 289 281 287 278 271 287 267 273 276 290 287 291 300 296 296 294 293 290 291 292 296 311 322 322 290 269 300 290 270 296
174 267 229 323 277 321 170 323 245 297 325 325 342 356 359 359 433 379 352 337 325 315 311 296 297 290 289 287 270 288 276 275 277 295 284 289 284 283 282 282 282 281 282 283 289 294 301 308 316 282 264 294 277 255
220 300 241 137 218 223 234 305 341 330 297 333 331 350 345 351 428 417 367 344 338 328 333 310 304 296 294 291 281 269 296 273 264 276 291 283 278 280 281 275 280 275 275 275 279 279 284 288 296 300 305 304 301 288
296 310 296 310 313 306 315 303 339 322 337 332 328 332 333 342 406 401 407 354 337 328 320 314 323 304 300 286 274 272 271 290 271 260 272 276 290 284 274 275 279 278 277 281 282 280 279 281 283 283 285 292 296 299
299 306 292 306 313 313 314 332 339 330 332 321 324 329 328 347 398 383 417 376 347 341 321 319 319 313 290 285 290 275 278 272 292 267 271 269 273 299 263 288 285 285 279 275 270 267 267 270 273 276 275 281 282 287
282 287 315 306 310 313 343 334 335 325 318 318 318 327 337 355 397 361 380 410 360 352 333 324 325 313 302 284 285 275 282 272 264 272 266 273 277 272 263 263 275 302 301 302 303 305 298 303 305 301 296 302 331 341
293 292 310 309 310 325 334 304 320 320 314 323 327 332 343 380 383 366 363 406 377 356 345 329 327 319 305 291 287 278 288 274 270 288 273 275 279 275 274 274 272 267 266 263 259 257 256 258 258 266 268 269 278 297
296 299 305 308 317 327 315 319 328 319 326 330 331 342 410 399 389 359 369 397 381 360 351 329 327 320 304 295 288 281 285 276 273 275 268 279 271 282 269 272 273 271 270 272 274 273 275 268 265 273 271 269 270 272
300 306 314 329 336 343 338 329 330 330 329 346 392 399 391 379 376 351 371 389 388 367 357 340 325 322 313 294 283 286 286 280 281 277 276 279 271 269 266 264 265 284 280 277 275 272 268 266 266 265 267 269 270 272
314 316 321 342 342 343 346 339 352 396 412 417 405 388 380 375 373 342 360 378 387 373 361 336 325 324 301 290 285 284 288 286 277 280 292 279 281 273 268 268 270 265 264 264 264 269 271 267 278 281 270 269 285 284
329 352 358 352 364 390 425 426 428 420 400 376 376 386 378 373 358 352 355 371 385 375 368 340 323 314 295 291 283 283 285 284 282 340 297 275 285 284 279 269 262 268 272 276 279 281 281 280 270 265 271 275 279 277
396 407 442 417 458 434 417 406 395 388 394 369 386 378 383 378 366 367 356 361 382 380 370 347 331 312 298 291 285 287 284 289 336 285 282 281 290 290 289 282 278 277 274 271 274 270 272 275 280 283 277 283 287 295
456 440 414 454 417 405 396 388 382 388 374 379 372 374 364 370 369 378 361 363 376 399 376 367 336 311 300 292 287 285 285 283 280 281 285 309 302 292 290 289 293 294 289 286 287 295 295 293 290 266 267 302 309 312
395 392 394 399 414 399 382 389 382 385 384 382 372 374 384 378 382 360 370 382 393 405 406 376 342 314 301 292 286 284 279 277 283 282 282 284 318 316 277 269 269 285 287 288 289 281 274 274 281 305 296 314 340 359
390 393 141 389 387 383 374 373 374 380 389 392 389 392 399 396 387 381 392 391 395 400 403 412 346 317 298 292 288 285 280 281 281 279 276 275 274 276 275 277 278 278 280 289 291 285 288 343 312 317 336 331 328 327
381 360 373 372 374 365 367 369 374 380 377 383 392 395 366 366 380 379 375 394 425 435 442 456 329 305 294 295 288 283 281 279 280 281 279 280 277 278 283 285 282 279 281 292 349 338 293 323 326 329 333 307 301 299
362 355 359 362 362 369 373 380 407 433 444 445 394 364 374 388 420 553 424 406 422 432 431 361 316 295 288 286 284 281 280 278 281 283 278 279 287 288 283 283 300 337 330 328 327 329 316 311 301 300 333 341 311 281

GFSWCAN_2pvu_pres_042.txt.gz
Presure
136 130 122 156 147 139 207 136 108 109 100 189 134 118 224 258 192 173 333 123 123 127 165 134 315 301 286 287 276 274 274 273 273 280 272 280 290 282 280 263 264 254 267 258 256 263 273 268 252 259 262 270 259 252
130 153 154 178 103 121 128 93 157 161 144 124 143 220 177 267 155 129 187 137 203 125 320 217 313 286 290 283 270 285 274 268 268 273 277 275 277 284 281 285 264 262 252 261 255 256 253 269 275 254 258 255 262 265
162 152 142 157 89 121 154 97 200 162 137 125 212 253 106 149 211 270 129 115 121 335 338 325 313 288 293 290 274 283 279 279 275 272 273 269 260 271 276 281 280 277 261 251 260 252 251 247 265 270 278 254 254 259
159 127 129 134 116 208 168 118 153 242 134 149 169 149 205 131 278 235 109 104 138 146 334 318 310 307 246 284 284 277 277 275 280 279 273 286 275 266 261 277 266 278 288 263 258 258 249 249 249 251 264 270 272 263
174 127 126 103 195 119 132 202 188 166 167 134 228 157 248 240 171 109 111 264 159 354 365 327 137 297 289 291 293 284 276 279 273 269 278 266 272 282 284 272 278 271 272 281 264 264 253 246 249 245 247 256 261 264
143 156 134 111 129 193 95 181 207 95 202 252 128 260 102 126 137 122 360 142 331 329 325 322 307 306 293 302 288 283 280 284 279 279 281 289 283 285 287 288 259 271 273 272 278 264 267 252 244 246 237 244 244 254
133 146 204 203 183 164 210 191 141 127 258 114 132 142 180 186 144 153 170 156 130 331 318 303 301 292 291 282 283 288 280 282 286 284 289 299 292 302 303 311 280 287 265 279 276 276 260 261 249 242 235 237 227 235
150 148 205 158 212 126 171 153 146 113 196 131 133 178 200 254 206 147 152 259 337 325 309 307 300 289 283 285 286 208 287 281 300 307 324 379 475 341 323 278 274 279 278 259 269 274 277 256 263 250 241 235 234 225
190 203 225 98 189 169 146 158 197 140 235 261 219 260 133 253 259 208 165 209 338 321 317 300 304 301 203 286 289 288 295 296 321 365 418 569 561 nan 597 405 296 286 273 279 287 264 273 280 257 265 252 240 239 233
226 223 222 176 114 101 232 208 199 133 121 101 189 142 150 279 278 159 142 232 334 321 305 301 298 302 292 287 287 292 314 306 359 351 357 384 577 472 455 425 373 302 285 275 270 285 269 277 282 265 263 254 243 241
230 209 211 228 149 215 158 142 167 209 126 197 212 161 153 352 181 321 269 296 225 325 316 299 300 292 282 284 291 300 290 302 321 329 321 323 328 350 368 350 373 398 287 283 279 275 274 279 283 279 266 260 258 246
206 215 172 203 209 162 223 214 134 244 127 237 241 100 250 260 285 202 256 340 344 323 318 308 305 301 179 285 294 294 291 290 320 308 322 314 315 318 326 328 347 377 371 288 277 282 283 274 273 277 282 263 259 256
192 175 205 216 159 181 143 108 165 190 196 142 271 262 273 249 130 128 147 342 333 328 324 313 307 292 299 286 287 285 286 284 321 303 309 308 306 308 314 319 321 288 321 300 273 272 274 278 280 280 262 286 256 260
133 179 222 217 204 176 151 230 239 217 251 259 311 268 244 265 278 146 394 353 338 325 313 308 301 298 285 283 282 293 283 285 307 320 292 289 302 303 297 292 296 299 286 263 262 263 262 278 278 280 280 266 288 256
164 205 202 222 160 199 241 129 187 241 261 267 219 309 332 150 140 350 457 434 348 334 319 313 312 300 290 283 278 288 273 279 278 304 306 304 284 294 294 286 285 286 283 279 276 276 269 266 274 283 279 278 293 294
209 228 201 230 231 159 163 214 240 142 213 206 184 172 265 147 351 371 381 399 424 342 327 314 302 297 292 287 278 277 287 269 282 274 296 301 306 313 283 287 282 281 284 281 271 270 269 270 265 271 271 284 281 293
211 226 228 221 140 136 152 132 286 256 258 174 247 144 336 142 378 351 361 367 403 412 338 323 308 298 293 288 290 283 279 274 275 275 273 289 294 296 296 308 300 283 280 276 276 278 280 275 285 305 297 283 270 303
174 236 220 221 209 258 267 249 235 260 158 336 315 319 323 337 368 360 343 356 362 444 394 339 317 309 301 292 288 286 282 271 266 283 271 269 277 290 289 286 291 294 291 291 290 289 290 294 295 304 315 322 325 288
229 233 236 199 248 242 256 275 300 283 340 311 324 321 313 260 331 357 355 340 346 357 438 382 337 317 311 305 294 288 286 280 285 274 284 267 265 283 279 279 279 280 277 284 282 279 279 280 285 288 292 298 303 309
255 223 260 239 257 282 306 291 297 308 311 294 310 318 307 320 284 329 339 344 339 355 401 405 367 345 322 310 301 297 290 290 292 280 271 277 265 266 290 281 280 274 276 277 273 272 279 284 282 276 275 285 287 292
258 271 253 261 307 316 312 298 291 297 330 307 311 310 314 322 334 349 342 341 345 342 433 414 384 358 343 326 315 308 300 297 291 304 274 277 280 262 272 275 275 283 284 277 280 277 276 273 272 275 280 275 276 282
276 322 294 317 311 299 285 302 293 296 315 302 309 311 320 317 324 346 341 338 335 355 415 396 410 373 354 341 327 327 313 309 302 282 278 276 272 279 266 272 268 274 291 292 290 288 288 285 283 268 268 268 274 275
311 311 310 304 308 309 312 303 302 310 305 313 313 317 322 316 329 351 346 339 358 402 406 393 412 384 364 354 335 323 320 318 309 293 284 282 275 291 282 271 274 280 264 267 264 283 305 305 306 308 315 336 336 291
292 288 294 294 301 308 286 301 293 303 314 312 322 325 325 342 355 356 358 389 400 396 389 377 407 390 367 358 351 326 325 320 305 292 299 280 282 274 279 277 273 278 284 276 273 271 265 264 263 265 264 265 271 276
278 291 296 292 293 287 309 289 316 308 319 324 328 338 364 365 384 420 419 421 389 380 376 367 398 392 365 357 350 342 334 317 308 289 295 285 286 274 281 287 275 279 284 279 277 274 270 269 270 275 274 277 271 271
299 309 294 303 303 289 314 312 317 325 329 339 363 391 413 428 445 443 422 386 376 373 364 373 386 391 369 353 345 336 330 319 304 296 299 287 290 279 277 310 282 271 269 280 287 284 284 286 285 280 276 273 273 271
285 303 292 291 309 318 325 334 343 358 388 406 407 455 447 447 445 420 387 378 373 371 360 358 380 383 375 354 340 340 327 317 304 298 294 289 293 283 277 283 283 281 275 272 271 273 272 270 270 270 273 275 275 271
295 301 300 313 319 330 342 454 460 450 451 448 441 424 439 424 394 390 387 381 377 365 356 356 372 384 387 359 339 335 328 320 305 294 290 292 291 285 281 280 296 285 283 277 277 275 271 261 273 275 270 270 271 270
312 315 327 332 343 449 423 442 430 444 428 434 427 418 413 415 413 397 384 377 374 374 362 363 366 376 395 373 339 335 343 308 302 294 292 296 289 287 283 291 328 297 286 286 285 286 285 283 282 283 284 285 283 281
442 436 424 287 425 422 417 421 414 425 426 413 410 401 385 388 381 376 369 362 362 367 372 386 386 378 395 409 344 334 328 307 299 292 296 291 289 353 330 318 316 288 287 287 289 292 293 287 285 287 289 297 290 284
416 406 415 422 426 410 403 401 397 393 391 398 394 396 390 387 388 377 374 362 371 376 390 387 399 390 399 418 351 339 320 303 295 292 294 290 284 284 284 283 280 281 305 316 293 298 285 286 280 276 277 282 287 288
414 404 397 393 374 384 385 384 380 382 382 381 379 380 387 407 425 391 379 396 407 418 426 428 428 436 438 445 353 330 309 298 291 291 287 284 287 287 283 280 279 279 279 278 277 279 284 288 290 289 290 305 371 363
393 387 387 377 367 150 183 376 383 389 387 372 380 389 404 423 464 482 401 384 374 368 372 386 404 429 444 400 340 310 300 293 291 290 287 285 282 284 283 283 285 282 282 285 287 286 287 293 297 303 310 335 330 309

GFSWCAN_2pvu_pres_045.txt.gz
Presure
151 153 144 150 135 159 168 139 162 155 180 151 146 132 154 125 151 258 120 143 166 415 132 122 359 214 116 298 305 279 281 275 266 271 275 271 275 281 286 288 275 265 260 254 262 259 277 272 263 265 270 271 265 269
152 132 147 143 135 142 99 149 128 142 208 141 143 128 228 183 112 144 112 270 122 380 110 138 346 321 323 194 298 293 274 277 273 268 265 271 273 280 276 286 281 290 268 260 253 259 257 258 279 269 262 266 270 255
145 143 131 142 133 155 157 129 139 213 147 102 200 221 161 204 230 155 153 131 240 109 153 165 316 118 325 111 302 289 283 273 270 270 272 272 264 271 267 273 270 283 282 273 261 253 259 254 254 256 280 263 262 264
145 171 132 143 163 154 147 116 129 132 114 166 214 119 195 235 247 127 116 218 126 112 132 254 233 232 318 305 305 306 280 286 272 271 274 276 275 272 267 275 258 271 277 279 279 266 253 260 253 251 252 264 279 259
138 133 148 153 158 99 128 127 127 166 192 238 173 167 123 207 230 139 267 197 127 135 332 360 149 258 313 300 305 183 292 274 287 278 275 272 271 275 269 265 276 267 256 271 275 279 274 252 261 254 247 253 249 271
137 155 159 161 141 119 136 143 135 109 136 181 154 163 228 204 182 130 138 113 129 191 117 150 157 368 299 198 287 141 286 283 280 282 276 279 283 285 285 282 265 257 280 263 270 271 273 277 252 264 251 244 250 246
161 161 95 117 126 134 198 142 135 148 166 123 187 224 224 206 205 134 108 177 128 131 213 214 324 272 276 205 304 295 283 288 302 292 282 283 282 284 293 292 286 280 271 273 284 267 269 272 276 254 260 249 241 249
153 125 124 154 140 161 166 143 225 126 94 215 170 246 225 226 199 133 133 137 128 122 353 331 153 220 300 300 290 285 284 280 274 276 278 282 297 309 320 315 301 303 269 279 270 273 256 269 264 272 254 259 249 243
135 160 182 171 169 161 212 212 192 194 157 194 206 133 133 167 158 146 131 129 243 115 347 276 146 306 119 290 291 281 270 275 279 286 297 319 355 393 575 642 656 414 296 286 273 285 273 269 268 269 269 263 260 250
199 162 175 149 160 193 185 125 129 238 209 228 248 147 101 94 129 121 163 132 265 321 136 238 144 315 307 300 296 303 300 293 290 288 304 334 368 364 392 458 467 459 321 296 294 286 279 263 256 258 267 266 272 260
190 178 174 215 220 217 194 244 167 195 141 235 221 160 203 207 176 129 141 156 277 271 355 140 145 319 303 299 292 298 295 289 293 302 294 317 326 330 339 355 353 357 348 340 299 284 274 279 270 266 251 261 270 280
153 200 166 190 198 215 186 133 226 162 166 194 230 162 134 175 140 208 209 240 319 242 153 142 288 322 310 307 301 289 287 287 288 293 290 310 323 320 330 325 343 359 341 340 355 294 282 276 276 278 261 264 262 272
209 166 215 189 189 206 165 219 136 144 215 219 157 223 215 199 244 250 178 323 377 346 357 146 337 337 316 301 293 300 289 292 283 287 288 290 302 311 300 310 315 327 357 344 358 276 275 277 276 266 266 268 268 271
161 157 208 216 230 229 135 225 146 212 229 221 151 250 139 260 236 295 171 290 387 391 453 374 348 329 326 307 294 293 283 286 279 281 281 286 303 293 297 296 297 301 318 329 335 343 351 271 271 273 265 270 275 284
232 199 220 232 141 219 242 235 148 167 161 147 224 243 183 238 243 332 237 306 350 338 389 330 427 341 325 311 299 296 283 280 279 288 281 277 313 294 285 293 287 286 291 295 299 303 309 284 270 272 273 276 269 271
190 203 168 227 213 220 192 203 233 194 241 199 230 137 137 148 236 237 332 166 291 354 397 391 423 456 329 319 301 292 292 288 279 287 279 280 280 298 301 285 294 283 284 282 279 279 279 281 268 264 261 274 271 271
175 207 199 126 212 145 104 222 128 238 252 225 151 158 250 233 321 264 342 338 345 332 352 411 329 407 445 319 309 304 301 293 286 284 286 277 276 292 293 297 305 281 276 280 284 286 283 278 275 277 282 284 267 275
180 200 220 217 197 214 188 235 182 233 243 214 205 250 258 267 261 305 320 333 324 331 119 365 371 371 391 405 313 302 294 294 289 278 284 281 272 277 275 290 287 295 300 302 281 276 274 274 273 274 276 282 283 300
216 154 212 178 220 197 216 207 243 247 211 242 256 298 270 282 299 331 326 321 325 322 337 356 375 370 364 417 340 309 296 295 286 279 283 286 275 273 273 271 286 287 290 287 290 290 289 289 291 289 289 290 291 296
234 188 218 223 199 223 222 236 196 244 250 254 253 252 319 322 316 312 314 299 324 329 326 343 368 365 360 403 433 329 310 301 293 286 285 288 282 272 281 273 269 283 286 285 285 278 277 280 274 271 272 271 273 275
233 238 189 231 209 236 245 255 253 257 255 305 311 313 299 315 313 308 333 314 329 331 321 353 369 361 376 404 416 403 336 310 307 296 289 285 289 273 270 286 274 269 280 287 287 285 286 285 282 271 273 276 284 285
233 235 236 248 247 214 258 285 290 286 326 284 315 313 312 312 327 305 298 336 330 332 345 371 370 376 386 407 403 404 383 342 314 306 299 301 295 292 273 275 281 276 270 277 272 274 279 285 284 284 282 283 282 276
231 221 245 254 248 251 250 293 263 284 313 303 314 309 301 325 308 329 338 327 350 364 374 392 394 389 387 397 387 388 390 373 346 321 309 299 301 302 290 275 278 288 283 270 275 277 277 277 285 288 290 293 296 289
262 209 250 284 249 270 290 286 296 293 290 328 325 329 310 319 340 347 332 324 399 397 408 409 400 390 396 387 378 379 394 375 365 345 331 315 308 306 302 307 280 283 281 289 273 277 280 266 271 269 270 301 305 303
254 260 245 247 289 295 295 301 337 329 317 313 306 301 317 344 349 345 335 443 441 438 418 427 415 417 388 378 370 371 391 374 363 355 342 336 323 321 317 321 279 289 285 275 294 280 278 283 279 273 273 270 269 268
292 295 299 306 316 324 321 315 312 324 318 324 317 327 336 346 366 477 482 472 461 455 440 433 412 380 371 368 359 372 392 374 362 355 351 337 330 325 349 333 303 292 288 280 275 287 281 282 279 279 282 276 275 273
286 285 282 283 304 320 320 313 310 326 330 326 335 330 325 382 511 473 451 449 438 423 411 398 388 376 368 366 360 384 387 378 360 353 348 339 326 328 327 307 299 292 292 288 279 282 289 275 277 284 286 281 283 286
302 309 304 307 309 310 320 332 322 332 335 328 336 334 458 455 443 430 415 414 401 399 390 372 372 365 361 359 360 362 388 381 364 351 344 341 338 325 323 302 299 289 291 289 279 279 342 285 280 276 274 276 280 275
316 319 310 307 305 325 320 315 327 320 331 361 448 439 433 432 423 413 405 407 401 391 388 385 376 373 376 362 363 364 380 394 372 351 341 336 333 331 314 302 305 291 290 290 285 282 284 293 288 286 282 282 282 281
311 303 299 316 325 327 330 319 331 336 437 423 428 428 411 400 398 411 410 395 388 389 403 404 394 390 378 386 382 377 381 398 398 352 347 331 329 318 307 298 292 295 295 290 286 282 284 344 301 295 294 285 282 282
301 309 327 329 327 325 334 425 432 422 416 409 398 396 398 396 393 377 379 387 401 409 415 406 398 400 388 373 380 388 383 392 416 354 337 342 322 315 297 292 294 292 289 290 331 347 344 340 331 293 285 286 286 287
323 331 337 455 445 435 425 412 415 333 394 392 382 383 390 394 400 415 311 414 405 431 422 421 418 423 431 421 405 400 418 435 419 344 337 314 308 293 296 292 289 291 289 289 288 289 287 289 301 330 298 280 277 281
365 358 315 346 302 403 400 393 381 393 387 375 381 405 437 439 444 423 345 496 510 355 355 366 366 381 392 405 429 444 457 419 363 330 305 297 291 292 292 286 283 288 290 290 287 284 284 287 285 286 289 290 291 292

GFSWCAN_2pvu_pres_048.txt.gz
Presure
155 145 168 166 172 179 133 142 142 125 147 137 135 99 175 109 154 137 135 162 246 202 181 122 151 132 136 219 140 161 288 293 279 277 276 277 280 281 281 282 279 297 274 267 259 258 256 263 275 283 273 275 276 272
161 161 167 174 164 146 142 134 138 130 146 112 122 121 115 107 223 135 151 128 193 260 133 132 136 148 221 132 318 309 297 284 283 267 271 270 271 277 270 272 280 284 283 279 263 262 257 259 257 267 274 262 266 277
152 162 168 153 151 139 125 123 147 159 143 121 105 150 129 106 239 132 227 143 228 122 137 213 168 130 115 267 315 307 299 290 278 270 261 261 262 256 276 260 265 272 276 279 280 273 261 256 259 257 252 267 271 261
158 146 150 145 131 137 123 143 136 152 98 111 118 143 182 196 217 184 179 245 143 188 138 202 112 129 156 263 322 310 176 297 284 273 270 274 264 271 263 272 265 260 259 260 271 278 281 264 254 258 254 251 255 264
138 162 136 144 126 132 133 156 159 131 110 139 111 110 142 176 225 236 224 200 120 253 126 192 193 194 119 334 317 158 227 294 290 284 279 266 274 272 265 271 274 270 267 264 268 164 275 277 267 253 256 254 250 250
167 183 118 144 152 134 100 177 109 116 125 147 155 205 199 243 208 245 238 197 158 149 253 252 114 126 303 358 138 297 245 287 302 288 283 288 274 268 274 274 268 276 274 273 266 278 256 268 275 278 262 251 256 251
145 144 150 130 136 170 166 124 133 149 180 156 138 194 128 235 240 209 239 247 161 135 132 196 154 134 175 340 132 146 296 135 286 296 285 279 277 279 282 280 281 298 296 293 280 268 273 277 261 271 271 277 253 257
137 145 140 133 151 157 124 150 121 205 181 165 177 223 187 144 164 230 126 221 128 203 113 125 166 362 233 325 151 148 175 300 289 283 282 284 287 288 292 296 299 307 314 304 307 297 270 254 277 260 268 272 277 257
142 142 158 157 147 133 158 175 136 158 180 160 190 228 124 144 232 257 127 238 194 135 152 249 255 306 348 326 127 204 153 295 290 282 281 279 283 282 282 295 319 382 672 538 308 304 277 270 269 276 261 270 267 268
150 135 167 164 126 147 199 198 142 153 154 182 225 231 228 255 170 205 224 247 206 134 234 137 273 370 298 235 174 315 303 287 279 284 286 285 301 313 314 346 364 402 408 457 458 300 302 273 275 265 276 260 260 258
159 179 195 155 127 203 155 196 178 193 231 227 148 169 165 229 227 231 132 225 228 250 217 277 146 255 364 345 330 318 306 302 295 294 285 295 297 305 302 345 348 346 339 338 390 352 293 289 274 252 271 260 255 262
137 173 127 154 189 155 184 179 194 212 216 202 202 195 246 145 195 246 221 232 246 239 262 229 255 328 161 357 183 314 308 302 295 294 295 288 295 300 297 322 323 339 326 336 356 343 299 296 277 278 264 271 274 262
179 154 127 149 152 204 164 174 172 196 167 199 220 213 221 175 238 206 223 230 182 140 121 288 389 523 184 141 352 331 312 299 298 300 283 288 290 293 294 323 312 311 337 354 338 337 345 307 271 276 268 260 276 261
133 184 174 161 163 172 136 153 234 133 228 208 229 212 212 232 227 149 258 223 238 158 276 261 137 131 164 445 365 337 324 304 297 295 302 286 289 288 288 294 309 299 308 324 309 314 337 352 302 281 274 272 259 269
160 168 194 197 182 190 211 175 202 233 190 189 224 182 181 155 176 217 238 253 240 269 252 259 344 353 368 465 436 357 323 317 303 292 300 285 286 287 282 278 305 299 296 297 308 315 313 328 342 324 286 287 272 271
162 206 222 155 223 220 198 205 201 136 235 221 221 164 239 230 227 209 244 212 244 262 251 238 310 324 358 336 321 411 345 324 313 304 295 295 285 289 283 282 297 284 295 291 289 291 295 299 306 318 326 265 263 261
221 227 220 184 218 186 101 188 191 188 228 221 226 208 240 223 199 216 245 240 250 265 252 245 338 326 332 370 365 423 411 338 324 309 306 298 293 292 281 277 277 282 285 279 284 288 288 290 294 297 299 300 300 280
231 216 132 198 207 174 233 215 244 241 201 231 234 238 232 244 225 243 239 230 261 292 280 262 338 317 331 344 357 424 389 405 337 324 313 305 286 287 280 280 274 282 299 288 280 276 276 276 276 274 275 276 276 276
214 223 225 231 221 240 230 217 223 231 224 224 203 238 219 249 244 240 130 244 268 254 227 231 332 322 329 336 348 360 410 377 448 333 324 314 317 289 286 277 283 271 275 291 301 290 281 275 276 276 275 277 277 274
208 223 225 228 237 144 226 220 225 227 228 235 234 240 202 246 237 238 259 256 254 282 252 328 329 328 331 344 354 364 399 407 415 446 333 323 316 298 288 282 286 279 276 273 288 291 294 298 298 297 292 294 295 293
217 229 239 231 225 223 215 234 226 235 237 235 234 236 242 249 236 248 260 255 213 254 329 311 323 321 336 344 379 401 402 411 412 439 378 332 319 309 290 287 278 280 276 279 273 282 286 284 287 280 281 279 279 278
240 230 220 229 232 220 228 222 232 244 236 238 241 251 245 239 250 256 254 251 250 294 327 325 322 315 343 369 413 409 404 413 403 420 426 353 327 315 299 297 285 279 278 276 281 276 273 297 291 281 277 274 275 274
225 225 215 183 224 230 235 235 226 230 237 235 244 240 249 254 258 256 287 303 300 310 326 322 323 350 417 437 421 406 419 401 400 405 408 387 343 325 313 299 291 283 288 278 277 279 282 271 278 289 297 294 293 292
233 227 229 235 221 225 232 230 235 241 245 243 249 254 261 258 260 274 285 306 324 358 322 338 363 478 466 441 419 426 407 400 400 394 398 389 359 338 320 312 300 290 285 287 274 278 281 285 271 275 277 284 291 293
222 234 235 230 224 230 240 240 243 246 253 260 289 253 261 278 259 330 328 330 332 347 339 381 482 479 466 448 416 433 393 406 395 384 390 398 376 351 336 322 314 306 301 298 296 284 286 283 287 296 276 276 277 271
237 234 234 241 245 250 254 258 259 259 267 260 262 278 258 325 321 328 346 353 356 340 474 461 461 458 454 466 460 429 416 394 387 375 383 395 382 364 349 341 327 315 309 305 307 306 291 288 293 277 298 283 276 281
243 241 255 251 251 277 261 264 262 260 288 283 300 300 330 332 328 362 360 347 355 467 459 447 438 428 423 415 414 395 383 378 380 365 382 380 380 368 359 354 344 340 327 318 318 317 308 318 292 284 278 291 287 279
253 275 266 283 260 255 280 290 291 308 303 302 316 323 327 349 352 351 377 435 438 442 442 433 424 414 411 409 401 381 369 374 378 371 376 379 373 371 361 356 354 348 347 349 339 331 331 331 300 290 279 276 282 279
283 180 303 302 295 302 300 300 299 323 329 333 325 335 355 357 358 421 426 415 415 420 420 426 422 416 408 400 387 389 364 378 377 375 363 378 369 368 363 354 357 355 348 339 334 332 327 309 293 295 285 280 285 320
291 294 292 291 291 290 291 327 320 320 324 340 351 354 369 399 339 434 417 416 416 418 416 411 407 412 426 425 409 392 383 379 388 388 369 384 377 367 364 353 348 343 336 335 335 315 304 294 293 296 292 284 283 285
291 293 289 293 324 321 321 322 310 308 352 346 345 385 405 411 428 420 372 397 322 421 445 444 355 437 396 402 414 427 417 398 393 395 398 388 390 379 367 355 345 341 337 330 306 308 298 296 294 291 292 291 287 288
302 309 317 310 303 305 314 332 343 344 366 427 414 415 406 425 419 445 486 508 529 512 485 478 477 405 480 480 439 435 440 422 423 407 398 407 414 407 371 344 332 329 314 304 293 293 294 292 292 294 300 357 306 309
291 295 313 320 317 337 338 340 359 420 432 421 400 390 409 480 513 535 493 496 513 481 470 472 363 364 368 378 410 424 427 241 399 439 420 430 441 391 359 326 313 295 294 293 292 292 292 292 292 292 291 288 287 287

GFSWCAN_2pvu_pres_051.txt.gz
Presure
168 148 129 138 155 145 140 160 142 162 148 139 136 127 152 124 133 110 136 131 150 175 142 197 186 148 203 206 136 129 318 302 301 285 282 274 284 282 286 281 277 282 284 290 277 267 268 261 259 278 271 266 272 280
155 223 131 137 162 144 157 160 137 151 126 89 139 141 152 147 118 136 129 156 184 131 136 136 169 282 131 128 111 309 315 298 158 286 278 276 264 278 277 278 277 276 276 283 286 274 267 259 256 257 261 272 278 267
162 152 130 154 136 152 153 158 157 132 106 113 148 145 119 122 102 127 122 229 148 251 136 192 238 163 240 120 107 305 323 204 151 288 281 273 276 270 267 277 280 275 269 271 274 281 282 269 261 255 256 258 272 270
143 193 136 161 141 159 152 204 142 129 124 134 151 151 144 131 177 97 139 213 190 171 117 227 198 125 292 266 109 327 321 308 140 150 279 278 280 274 269 264 263 262 275 265 262 270 275 277 279 270 257 255 256 250
130 206 164 173 150 153 165 145 119 126 135 152 158 105 143 124 109 119 142 148 190 213 239 168 138 112 273 121 126 139 326 310 142 163 149 280 288 282 274 265 263 265 261 259 271 271 267 264 270 277 277 263 252 256
219 219 158 158 159 192 154 148 126 113 144 133 120 109 161 121 148 141 137 206 187 147 163 131 247 123 266 314 176 139 317 147 305 297 285 238 284 285 282 276 271 269 267 274 281 270 283 266 270 262 271 277 266 250
200 166 167 195 189 167 178 134 129 128 137 160 122 157 138 174 144 127 175 215 237 133 166 228 112 124 139 263 220 349 346 317 303 294 290 288 281 291 287 279 278 281 286 287 286 277 280 276 267 271 268 258 278 274
180 199 154 169 171 193 171 143 128 153 137 166 144 119 186 149 178 124 249 174 242 179 235 219 189 184 215 253 245 158 336 329 323 305 296 296 298 283 292 296 296 293 295 302 304 309 294 285 286 277 266 267 262 267
151 166 171 172 195 143 138 159 140 160 120 134 194 129 162 193 155 238 181 225 236 243 133 128 238 207 263 112 252 264 302 328 314 310 302 299 287 283 284 282 277 288 298 308 322 453 307 311 282 290 275 264 267 267
174 194 184 178 159 127 158 142 136 180 121 118 127 170 141 169 190 226 135 175 243 266 242 253 157 243 259 254 237 267 291 341 321 313 310 299 292 288 284 284 292 299 323 342 389 426 495 317 312 280 291 267 261 258
155 156 157 143 163 142 170 147 163 167 127 171 159 138 181 202 235 193 269 176 227 265 226 250 255 255 194 126 256 251 270 299 340 320 310 299 292 289 291 290 305 306 302 313 358 357 458 462 298 285 288 274 270 259
166 168 141 126 139 161 151 164 167 153 165 209 176 151 189 212 221 141 196 170 205 266 234 248 257 259 255 260 266 229 239 303 338 336 329 317 303 297 293 297 296 300 302 309 351 332 343 388 326 293 289 288 272 272
168 135 171 166 164 157 191 201 176 158 127 128 144 225 209 205 210 227 232 215 241 223 247 232 254 263 256 256 263 254 216 343 359 342 333 323 314 312 298 294 294 292 287 310 348 327 332 338 312 281 280 280 275 271
137 151 172 134 195 146 180 133 174 208 168 155 195 203 149 228 209 246 203 184 109 133 249 201 246 144 260 264 144 232 240 344 365 177 338 329 321 306 298 289 293 288 285 304 289 313 323 326 327 302 298 273 265 276
192 201 207 198 208 143 158 197 154 176 160 211 165 226 183 170 237 184 107 192 162 248 250 231 239 255 261 269 251 278 278 353 313 373 347 335 327 317 305 297 287 287 283 297 289 308 312 315 315 336 326 291 280 272
190 209 206 168 168 201 184 203 181 210 184 164 128 190 235 211 237 244 247 178 248 245 193 244 254 240 231 235 264 271 286 307 205 326 410 363 336 321 313 301 295 289 283 284 287 298 297 311 303 314 333 328 300 275
214 133 206 210 205 174 222 222 172 219 214 213 224 234 237 230 250 224 234 251 249 221 235 247 254 253 265 242 230 269 263 303 339 309 345 453 364 338 319 304 294 286 286 283 287 286 291 300 302 294 312 317 315 311
197 224 217 222 211 218 213 204 204 220 138 167 165 226 248 101 229 237 246 159 223 240 237 233 252 255 237 245 283 265 303 324 317 317 361 421 431 359 335 318 297 289 284 277 277 282 286 283 288 290 293 296 300 303
200 208 221 223 225 181 222 171 184 192 229 224 221 249 222 240 245 237 236 223 225 240 245 181 171 159 260 229 249 282 322 348 315 332 392 417 434 430 352 335 311 295 286 280 278 273 283 282 284 285 283 285 285 285
213 214 211 221 237 232 219 229 222 242 238 200 225 240 242 236 244 246 232 243 240 242 249 121 150 214 254 235 273 300 336 313 335 391 423 415 417 421 438 344 337 301 296 289 275 278 276 293 286 282 280 279 279 275
187 198 215 246 233 222 220 216 158 227 223 237 247 235 234 245 248 246 221 235 245 244 255 257 232 260 237 268 294 380 337 331 334 429 418 408 408 420 410 443 342 333 297 281 289 273 276 274 274 305 300 288 283 276
221 206 230 217 240 230 198 225 222 230 241 240 246 244 240 223 170 226 246 245 241 254 261 224 262 289 270 303 349 330 363 430 455 435 421 406 403 403 404 427 363 338 318 299 287 288 277 274 272 273 281 290 298 301
227 234 235 241 243 229 228 224 159 234 245 237 201 237 243 210 136 234 243 234 267 267 258 270 266 268 324 336 337 495 499 471 442 427 411 402 401 392 401 418 421 353 329 308 296 289 287 282 276 271 271 266 286 284
231 233 231 244 195 234 230 255 251 247 245 233 241 231 234 239 242 244 242 224 265 262 269 290 267 354 340 314 506 495 479 459 436 418 409 399 384 390 397 402 409 379 338 322 300 286 290 285 281 284 272 274 267 273
241 235 254 238 227 232 243 241 236 235 240 232 238 242 105 243 248 253 254 255 255 286 271 297 346 334 337 474 479 472 458 475 433 417 397 389 381 389 387 391 396 386 356 321 316 298 286 289 288 280 286 282 285 281
245 255 260 253 242 243 249 248 247 242 239 240 242 244 249 253 254 260 260 278 275 289 317 356 322 470 451 449 453 447 440 446 441 416 394 383 397 384 380 384 388 386 364 352 324 309 298 292 289 288 283 286 283 282
200 188 236 237 240 250 233 242 246 242 242 249 249 251 257 259 263 261 269 298 326 350 362 320 444 434 426 429 439 432 425 421 441 419 406 406 387 381 376 385 378 381 368 354 350 327 306 301 298 290 288 288 293 292
235 241 245 251 250 252 248 246 247 251 253 257 255 270 275 266 276 308 313 338 342 325 447 438 429 428 417 407 402 406 417 410 407 417 394 379 371 370 377 390 376 372 371 362 353 352 338 318 308 303 300 299 299 298
244 245 246 247 245 248 249 244 257 279 274 260 268 293 306 309 309 341 343 319 448 451 432 413 403 404 401 383 387 383 390 399 409 407 391 376 372 366 369 382 384 374 366 362 362 357 345 343 335 328 327 326 325 324
272 256 278 282 283 288 292 301 302 303 221 298 308 310 307 327 327 331 375 456 429 416 431 454 468 468 431 438 437 435 449 402 416 413 407 385 369 373 372 375 390 389 369 359 359 362 364 359 354 352 350 347 346 347
290 297 302 291 290 297 300 305 303 301 301 305 312 320 333 328 323 380 437 336 492 497 503 510 491 509 528 515 499 486 458 442 434 429 432 415 395 382 380 374 377 399 378 362 361 362 360 358 356 351 345 341 334 322
294 290 290 289 290 295 295 293 298 301 313 317 324 332 323 440 449 439 498 489 462 463 470 471 392 461 453 370 374 369 437 521 500 435 438 442 425 415 393 384 380 401 387 367 364 359 353 346 343 342 323 314 307 299
301 304 305 301 297 293 294 296 306 312 321 323 306 411 429 414 456 492 435 434 426 416 406 408 411 413 414 415 438 408 404 399 494 527 395 280 460 459 449 391 400 417 375 361 352 344 327 313 302 299 299 299 298 299

GFSWCAN_2pvu_pres_054.txt.gz
Presure
257 253 194 151 124 132 199 182 143 160 147 149 139 145 120 114 132 124 110 140 148 175 197 149 155 174 204 162 142 466 118 126 322 304 233 134 148 285 286 284 281 276 278 287 279 273 275 273 273 265 260 276 270 272
142 238 135 163 128 137 224 158 140 162 147 152 157 156 125 111 147 158 143 118 138 158 182 126 143 217 133 204 126 127 136 320 320 301 300 272 268 149 275 280 281 283 282 278 278 284 287 288 275 267 261 258 271 272
149 218 130 213 126 156 126 147 142 157 143 154 153 126 120 134 137 151 98 147 153 130 149 140 182 108 170 212 179 119 128 349 172 313 159 291 287 283 173 277 276 279 280 279 272 281 279 284 283 271 264 256 258 258
154 193 117 146 172 189 165 159 133 156 148 154 143 131 151 137 145 129 134 133 131 205 132 161 189 124 225 226 120 109 271 173 340 319 294 293 290 280 274 271 272 275 262 254 257 274 275 272 277 282 276 267 213 250
192 189 134 147 141 153 155 219 142 163 156 155 162 125 142 113 160 98 125 158 126 135 214 191 139 140 171 209 122 171 235 220 340 324 303 300 291 287 277 276 279 277 271 272 269 266 268 271 270 268 271 280 277 264
191 196 198 194 128 185 151 142 181 221 153 159 123 123 146 128 157 151 127 117 130 202 125 159 153 208 258 185 215 128 106 263 370 332 317 299 301 284 277 284 279 280 279 278 277 277 269 264 265 266 262 274 273 277
180 189 193 165 142 207 164 209 189 167 155 195 137 157 126 144 144 149 193 141 197 122 123 172 231 154 255 245 221 118 238 247 270 379 330 315 247 162 286 282 277 274 276 282 283 277 275 274 274 274 275 264 267 259
142 175 156 147 159 180 197 199 198 132 174 156 103 131 134 144 151 161 139 146 130 131 157 243 246 242 253 253 241 251 241 188 266 289 340 331 314 301 287 284 281 282 283 282 284 286 285 284 284 281 278 275 272 265
147 153 168 181 192 177 185 196 181 157 172 129 148 133 160 159 131 165 209 152 132 207 156 193 241 234 248 193 255 247 266 222 284 275 300 299 314 308 302 297 292 298 294 292 291 283 292 286 301 310 303 298 288 274
153 173 153 162 172 175 162 178 160 197 127 189 159 125 142 169 138 178 127 126 207 180 242 244 106 248 217 253 124 263 265 247 221 273 270 343 322 308 299 294 290 288 286 283 284 295 313 334 361 418 434 633 313 273
182 178 177 179 184 178 170 163 174 154 126 161 126 168 144 203 157 205 209 151 181 129 179 200 229 252 245 247 153 241 247 171 227 207 284 357 335 318 310 305 298 294 291 288 298 308 308 314 391 537 526 472 310 291
180 183 173 178 171 171 160 162 162 94 148 155 134 141 180 135 193 162 184 135 219 190 239 247 126 252 225 222 258 260 255 252 220 182 357 365 359 342 323 312 306 300 298 296 295 304 297 312 352 349 343 339 275 289
148 168 168 166 170 173 181 179 127 154 134 192 103 142 218 209 225 156 228 238 193 238 230 202 259 245 261 260 249 254 236 233 266 268 286 391 310 356 343 328 315 307 299 306 291 295 295 304 339 345 341 313 275 293
179 174 165 163 164 156 170 179 177 138 145 143 194 205 158 126 218 179 222 190 233 216 136 236 249 257 261 238 257 249 255 265 369 265 246 329 319 330 359 340 327 316 312 298 295 288 292 291 328 325 338 335 302 288
165 168 166 164 171 175 172 166 131 183 182 156 118 202 161 220 188 222 229 229 216 221 222 236 244 265 250 155 215 219 271 241 251 233 262 300 334 311 333 404 347 324 309 305 290 288 292 276 306 313 315 336 332 297
169 171 172 148 176 128 185 183 182 162 187 165 211 161 223 222 149 138 210 177 233 235 224 238 258 196 225 192 240 259 267 263 252 240 264 325 337 347 344 368 415 349 317 309 300 291 289 282 283 297 314 312 320 315
172 182 200 157 173 179 180 147 181 212 108 184 185 205 207 205 190 227 219 228 181 213 232 235 238 222 269 238 256 255 234 247 266 308 264 329 301 325 345 322 386 396 340 311 300 290 286 284 275 287 289 300 305 314
200 208 206 205 211 212 197 141 208 209 179 207 196 189 179 220 205 228 190 218 184 226 247 177 252 245 260 252 245 289 224 250 233 268 309 331 311 338 371 367 423 405 379 324 307 291 284 285 281 275 284 301 292 296
190 203 164 206 211 188 190 187 188 215 216 213 200 214 216 227 220 233 152 160 227 241 240 248 249 190 250 206 267 262 163 253 269 292 322 315 388 397 388 374 417 418 421 352 313 301 288 284 282 277 275 286 289 289
213 215 211 210 185 212 213 215 221 221 222 183 208 206 232 224 229 222 224 237 241 242 249 213 210 258 226 248 265 255 249 266 295 310 337 318 432 421 412 419 441 423 419 379 322 307 290 284 285 283 277 276 277 288
215 209 221 217 209 207 216 204 214 225 218 226 232 218 223 168 221 231 252 234 189 252 267 250 254 243 234 257 251 266 276 298 318 344 335 460 497 484 467 452 440 425 370 413 350 312 298 287 283 281 285 275 285 276
156 213 159 205 212 210 220 194 223 225 223 220 222 226 232 226 252 245 238 240 259 262 252 249 260 227 245 251 272 273 303 322 345 333 511 511 486 470 451 438 422 412 415 401 369 322 308 293 285 284 280 280 276 278
214 218 208 213 214 215 217 216 219 227 222 226 229 228 230 258 242 235 244 254 269 172 250 257 252 246 246 266 283 316 315 351 336 502 499 487 490 447 423 415 406 403 403 404 396 352 314 305 291 285 284 278 279 277
220 219 221 221 221 214 222 222 224 231 233 232 227 253 235 252 243 250 259 261 252 254 259 244 260 234 271 304 318 326 330 343 488 486 483 468 467 441 422 408 402 397 390 397 413 415 341 307 299 295 290 286 275 277
222 211 224 217 225 222 228 231 229 232 246 245 249 258 250 244 249 243 249 247 260 256 257 257 272 283 320 308 330 325 388 449 457 467 455 473 465 451 420 416 396 387 387 396 397 398 401 324 305 303 296 289 287 277
227 221 220 222 200 230 236 245 254 264 254 262 265 242 243 241 254 248 259 253 253 258 259 271 313 320 316 326 327 453 428 430 436 444 441 437 475 465 417 408 389 384 393 389 381 384 384 374 325 304 302 296 294 290
232 238 204 211 259 256 259 245 243 259 264 244 239 242 167 254 255 250 248 255 259 268 281 325 313 336 334 440 453 434 418 414 408 334 427 419 428 452 413 397 385 380 387 386 376 370 375 372 365 331 309 303 302 293
251 257 256 249 243 241 241 262 242 227 236 245 246 250 256 249 254 257 260 276 274 321 317 325 340 336 472 471 463 458 442 431 420 412 401 407 418 409 432 399 397 378 376 383 378 371 367 365 363 359 325 309 305 299
237 242 244 258 245 240 242 247 246 241 247 253 257 262 265 265 284 120 260 313 321 297 312 335 355 508 514 519 518 495 501 529 516 473 421 399 386 410 411 377 383 377 378 374 379 371 372 368 362 359 356 322 308 304
253 243 239 238 146 240 163 245 236 255 250 249 248 256 257 266 294 309 316 263 215 337 338 420 479 493 469 436 399 441 458 483 458 474 503 452 422 411 411 392 371 381 373 374 378 373 365 365 365 364 361 359 339 318
250 250 274 265 254 244 246 248 249 246 247 283 256 290 314 323 321 143 318 333 273 340 489 466 448 431 425 421 417 416 389 386 387 380 405 505 483 423 432 411 394 381 382 375 386 378 374 367 363 364 368 369 368 365
255 253 256 289 276 279 263 258 258 258 257 321 310 318 320 318 320 326 326 333 347 474 437 435 448 433 433 440 447 429 431 488 416 404 407 488 519 302 432 442 413 402 392 394 374 389 395 379 370 369 370 369 370 373
262 269 270 273 311 313 304 306 319 315 316 317 317 312 307 324 330 328 335 419 449 437 437 415 409 409 413 422 441 455 454 444 446 457 458 465 505 541 484 446 454 431 416 411 392 399 404 386 376 371 365 359 357 355

GFSWCAN_2pvu_pres_057.txt.gz
Presure
199 148 200 213 228 254 243 238 220 124 132 235 141 131 145 155 153 132 151 117 147 142 144 145 123 179 184 160 131 178 236 218 366 346 340 317 303 292 288 291 288 283 281 281 277 274 275 276 272 268 264 264 269 266
145 133 195 204 207 261 242 162 223 229 134 167 180 144 167 149 153 132 118 134 152 153 136 153 161 141 128 152 203 187 170 259 114 346 353 327 307 301 292 286 282 280 280 281 280 279 280 284 279 280 277 272 270 266
126 188 192 116 199 171 251 238 228 175 127 136 158 146 145 153 135 107 150 114 123 97 140 134 150 236 146 127 144 182 247 247 262 109 334 338 325 304 298 288 283 280 278 268 267 274 271 275 280 282 273 276 278 270
191 163 169 115 176 193 239 123 165 196 138 137 134 152 144 161 127 124 141 161 116 137 137 144 157 227 153 164 186 262 195 165 181 106 275 210 322 304 300 271 284 277 266 266 261 264 273 265 266 270 277 275 273 267
189 181 132 190 179 142 157 243 202 170 160 154 213 153 150 164 123 163 127 130 105 150 145 200 178 221 145 166 150 151 149 225 163 248 358 248 319 303 302 298 290 283 270 263 259 260 256 261 256 260 262 262 261 274
189 190 193 131 173 196 201 135 203 150 149 231 157 143 151 169 129 197 139 126 142 145 155 134 123 217 145 185 151 249 243 212 266 261 331 226 326 310 303 297 294 287 284 277 263 259 261 268 270 268 259 259 257 257
184 188 194 196 153 178 156 187 177 204 141 139 156 165 162 169 150 123 118 128 132 153 148 139 215 128 198 166 143 237 232 168 265 262 252 265 391 342 310 303 296 293 290 288 276 271 270 269 267 273 273 273 265 252
190 192 142 195 168 184 192 193 198 162 151 163 193 202 204 151 152 156 127 131 99 142 152 109 236 185 142 239 168 144 235 249 239 253 251 251 229 349 363 238 302 294 286 284 285 281 276 275 276 273 275 276 273 275
184 190 185 190 195 177 141 147 185 193 152 161 154 210 208 168 130 177 145 141 141 126 159 235 156 189 235 239 241 245 264 257 232 229 226 229 229 350 333 330 327 320 301 292 288 282 280 279 281 292 293 297 300 299
185 182 186 187 180 191 187 191 192 154 197 193 174 199 152 142 168 137 113 169 147 209 220 134 136 189 230 182 242 250 261 216 249 262 237 245 236 249 379 347 329 320 311 298 290 291 293 291 286 284 293 299 316 639
183 184 181 191 192 185 146 160 150 191 163 168 177 172 170 178 161 132 123 162 128 158 231 136 129 165 141 216 246 243 243 228 264 248 265 246 219 248 345 313 367 344 328 314 302 294 291 289 289 296 304 311 362 477
176 190 190 177 184 183 189 189 186 173 177 181 182 142 136 159 126 169 160 187 192 125 198 183 193 238 252 235 236 245 250 216 235 261 271 228 264 220 300 344 331 373 373 346 323 308 300 296 297 296 302 297 332 329
174 173 183 188 189 184 183 187 187 180 151 175 178 167 178 152 131 167 207 179 171 136 130 187 225 143 210 241 236 242 250 251 259 264 243 237 232 260 307 329 299 313 352 331 372 342 313 305 298 307 297 295 345 317
175 178 179 182 166 173 176 179 190 176 183 169 180 136 176 119 122 116 180 168 191 185 217 230 221 242 233 234 81 236 239 258 266 250 233 241 256 248 310 318 329 313 321 332 337 359 339 313 312 290 292 294 333 327
182 180 172 172 180 171 175 181 154 170 172 166 185 185 123 203 158 176 188 182 184 182 205 194 117 237 225 233 226 248 249 259 109 265 249 241 248 246 311 312 329 320 311 322 401 367 349 320 297 296 289 290 304 337
170 150 151 150 148 165 171 185 180 176 159 174 148 150 132 151 111 219 185 215 229 230 232 231 247 182 240 237 238 242 251 264 259 244 241 259 261 308 307 318 332 325 326 340 370 381 385 331 302 295 287 281 288 301
185 178 178 183 158 175 203 186 172 140 124 186 144 222 190 168 196 217 141 222 219 229 224 240 221 236 228 226 238 127 195 89 229 241 255 270 269 319 310 321 312 322 335 397 390 427 395 341 315 292 285 287 277 313
171 176 177 182 174 196 207 209 181 213 182 173 210 170 198 209 214 219 220 106 221 209 236 93 219 216 222 230 240 228 210 251 259 254 255 262 280 312 315 321 313 334 430 423 451 431 388 368 327 299 290 282 285 287
215 157 170 186 187 176 146 145 169 215 181 216 174 221 217 210 217 219 219 227 211 224 231 230 233 161 168 161 248 280 257 251 235 255 272 249 316 314 318 317 341 516 503 478 451 433 399 427 332 308 290 280 288 278
219 203 173 174 177 176 179 210 220 222 217 199 211 211 211 219 216 224 218 202 222 238 231 234 220 219 220 245 283 243 254 247 264 267 268 311 312 323 332 356 506 504 486 475 463 441 439 452 339 316 296 289 283 282
211 190 175 216 184 182 227 201 216 218 209 216 221 230 218 221 218 212 223 213 226 236 229 221 229 248 243 254 259 253 244 262 246 272 311 312 326 332 507 506 517 481 464 450 441 435 432 402 346 323 312 290 278 286
190 150 196 211 207 200 214 206 211 211 221 218 186 219 218 214 211 225 221 224 234 234 224 231 252 244 248 256 244 247 263 264 259 316 316 327 331 484 493 475 480 444 440 433 421 416 418 393 402 327 312 294 291 278
184 200 147 201 208 209 205 220 213 210 135 217 215 201 221 210 225 230 226 235 236 221 230 246 238 236 255 256 242 256 275 257 315 317 331 334 468 463 472 462 473 437 429 417 412 401 406 385 410 331 317 305 290 291
178 179 203 207 209 205 219 212 215 206 217 206 220 216 220 232 223 231 231 227 222 227 237 246 268 260 261 251 249 277 278 327 332 334 341 454 452 436 457 459 473 427 441 416 403 403 403 369 411 344 323 310 303 290
211 198 151 206 205 210 213 213 211 227 225 215 219 230 221 223 230 237 218 236 235 240 265 267 242 249 238 244 240 275 276 343 345 370 449 447 436 428 406 437 435 458 424 416 413 403 400 404 386 414 332 320 304 300
205 203 163 217 216 224 213 221 229 223 222 228 229 228 233 238 227 236 238 240 245 279 261 252 263 257 242 281 276 275 334 343 513 529 526 484 449 429 418 396 431 450 422 415 402 397 393 405 390 407 376 329 316 303
211 214 216 227 224 227 227 226 226 230 227 228 229 238 233 228 232 240 239 257 266 238 246 255 259 272 276 312 324 342 380 489 475 439 411 399 503 476 435 417 407 438 413 411 401 391 390 399 392 392 400 369 327 316
215 222 227 223 221 223 221 224 229 229 234 234 233 236 227 240 243 250 273 253 251 271 252 262 274 247 331 267 333 437 437 430 431 431 414 429 471 494 507 432 400 433 419 400 389 392 388 388 382 385 386 387 387 325
220 223 225 226 227 227 230 223 221 235 237 237 233 241 252 270 280 245 256 258 250 257 270 284 340 327 335 330 447 443 440 445 453 456 437 392 374 371 376 462 425 396 434 410 392 397 393 382 376 375 375 376 375 370
230 232 227 230 227 229 232 234 231 231 231 248 266 261 255 246 253 260 246 230 241 275 344 328 264 342 349 447 437 434 440 445 436 426 419 477 460 399 406 520 448 414 404 432 412 408 391 388 375 370 367 364 366 367
239 237 236 245 246 239 241 258 264 260 269 254 244 241 251 255 211 249 261 269 342 296 332 338 335 352 443 433 426 413 411 417 437 462 464 455 427 419 429 510 415 438 417 424 423 397 389 393 385 377 371 370 366 365
249 258 255 250 249 252 257 265 258 258 247 251 257 253 255 261 266 307 344 344 337 334 329 341 351 435 412 376 367 364 362 366 394 440 474 494 495 553 512 518 501 483 452 437 406 393 387 386 394 391 383 375 374 372
249 246 236 225 250 250 248 253 254 246 244 254 262 272 312 325 340 344 341 325 332 323 343 412 436 410 379 363 346 330 324 323 323 324 331 397 428 490 546 536 539 497 459 454 440 410 397 386 384 397 396 392 389 385

GFSWCAN_2pvu_pres_060.txt.gz
Presure
190 200 195 205 213 150 126 206 250 171 236 184 164 134 160 134 174 143 150 153 119 153 173 148 142 142 173 114 149 144 233 204 263 262 366 108 238 315 306 301 294 294 291 282 272 271 269 266 262 259 255 252 252 254
195 196 204 197 199 212 204 149 235 135 230 231 239 171 156 138 191 155 148 155 128 152 138 106 126 154 154 136 165 155 159 242 249 123 341 196 318 340 217 302 297 290 285 285 280 280 275 277 279 275 272 269 265 266
108 204 201 182 191 191 151 140 245 188 168 226 145 215 158 134 217 152 142 137 156 151 155 164 114 138 137 161 180 163 162 190 145 270 265 276 293 311 289 299 294 294 287 278 275 276 276 279 280 280 275 278 279 273
196 198 191 199 193 190 137 142 243 231 231 172 212 231 141 136 159 149 153 153 123 127 161 129 140 156 152 148 156 134 215 176 201 233 245 273 260 316 347 333 316 293 282 278 273 280 274 276 275 275 274 270 272 276
199 200 190 196 199 195 195 144 142 243 238 236 174 176 207 144 162 162 137 150 180 131 163 114 139 130 150 120 152 148 187 166 183 246 220 260 251 240 329 315 248 305 290 276 268 266 267 271 269 261 270 258 255 262
202 164 198 201 190 190 134 147 201 177 128 238 185 150 230 193 215 160 151 163 180 173 126 166 109 138 132 160 152 147 235 188 229 244 268 276 267 256 278 387 325 315 305 293 279 270 265 265 265 267 262 253 255 251
187 197 198 191 189 187 185 120 182 173 147 203 183 192 141 152 175 207 172 202 206 151 124 165 147 131 149 144 158 219 148 166 149 235 244 235 246 263 237 320 383 342 310 298 289 286 279 267 267 270 264 262 265 262
198 193 194 191 192 193 187 179 155 157 169 199 197 203 163 202 169 159 187 200 171 127 123 129 152 141 142 126 182 123 127 228 220 237 233 262 239 247 273 132 272 351 353 347 308 295 286 282 284 278 275 268 265 268
194 196 194 194 199 194 176 189 176 195 156 175 190 202 194 200 176 186 186 179 166 150 160 141 147 123 193 142 221 233 142 167 217 244 238 262 258 231 260 253 232 305 369 339 326 324 327 297 289 286 286 284 282 279
195 194 193 194 193 191 194 176 187 137 125 197 146 187 192 194 203 161 160 176 163 230 148 131 158 202 141 196 159 128 239 234 241 244 229 253 255 240 215 236 275 253 332 324 326 373 330 315 306 302 299 289 285 278
196 196 195 197 194 190 191 185 190 163 153 194 186 180 166 152 160 187 186 159 139 155 134 132 181 171 159 224 218 228 160 237 242 223 239 254 256 246 270 250 244 257 324 332 297 302 329 365 349 318 306 298 295 293
190 193 192 196 193 194 188 191 190 186 193 167 192 173 200 199 180 159 173 139 169 157 159 120 163 140 169 199 224 236 230 239 230 227 250 236 256 238 255 261 255 267 322 326 323 311 300 312 316 335 350 316 312 307
183 196 191 192 184 184 185 182 184 185 188 190 185 177 181 208 178 190 171 180 155 158 117 156 152 162 215 217 130 243 226 242 244 246 250 231 241 256 253 265 246 286 319 314 320 322 308 314 315 354 369 352 323 308
177 190 190 189 178 184 183 179 180 188 189 190 184 189 185 193 153 194 165 141 179 118 113 194 154 216 134 225 230 242 228 214 249 222 210 103 244 257 239 254 282 295 312 309 318 322 313 319 324 345 383 367 333 316
176 185 189 187 185 176 187 189 187 184 183 192 189 185 194 170 177 170 170 163 117 114 197 159 135 177 229 207 229 238 241 237 115 237 209 226 262 257 242 261 297 261 318 312 314 315 320 334 361 390 391 393 340 320
164 176 179 180 179 178 172 169 171 181 184 177 171 178 176 171 168 157 181 130 156 170 229 171 189 229 194 237 201 236 237 237 225 231 243 232 249 248 234 260 271 269 321 315 320 322 336 399 416 426 421 401 346 322
167 169 172 174 173 175 174 175 182 178 176 166 168 176 190 161 128 187 184 203 146 221 138 236 157 226 243 225 100 230 225 246 233 245 237 257 240 229 237 273 275 300 316 328 325 347 491 477 463 448 432 408 346 323
161 165 169 163 158 155 172 174 163 177 151 166 170 175 151 186 202 215 130 219 225 104 218 182 226 207 229 223 237 233 229 225 246 243 212 246 255 273 276 271 271 315 337 329 396 514 523 497 471 446 432 407 346 324
158 172 144 162 172 170 176 152 165 185 177 166 165 177 159 143 197 207 224 218 206 226 175 215 223 230 219 231 230 233 223 238 236 229 248 259 268 278 266 286 321 332 341 501 512 507 493 487 478 455 433 399 345 323
163 168 158 164 155 149 169 174 143 161 166 180 189 189 185 185 213 205 217 216 212 142 211 223 191 227 223 235 233 242 227 249 260 237 257 261 252 245 286 326 331 347 497 537 503 485 466 458 453 443 425 391 344 323
192 191 149 154 206 193 202 152 123 200 145 221 205 216 200 180 192 226 223 192 218 207 232 226 229 222 237 240 220 231 246 237 247 261 260 257 238 285 338 342 352 466 448 486 471 453 447 439 433 435 377 390 344 323
215 207 205 206 203 163 169 178 186 207 184 217 174 204 223 202 219 219 219 222 222 221 223 225 223 233 238 237 224 246 248 239 258 262 262 245 285 349 349 440 466 451 438 450 457 437 428 424 421 416 415 423 343 326
221 162 166 171 180 195 199 226 206 220 224 217 222 218 213 183 218 211 220 218 222 224 233 226 234 238 232 234 251 247 257 240 240 264 250 294 352 428 476 461 451 448 432 419 438 453 434 425 408 410 402 411 344 330
165 210 210 209 212 188 220 217 210 220 222 208 217 149 215 212 212 210 221 226 225 224 228 233 237 227 237 248 247 259 236 229 275 251 288 352 462 444 440 425 421 448 433 419 466 442 433 423 411 405 396 403 354 330
209 196 215 214 219 219 215 210 207 211 212 200 192 213 218 210 219 218 222 229 224 233 227 237 225 235 248 247 237 234 248 266 242 293 358 455 448 446 435 423 409 470 438 425 407 450 431 401 411 395 405 394 401 331
206 210 221 217 208 216 207 211 189 211 211 211 208 202 211 215 218 225 225 224 228 236 237 229 236 233 248 254 229 222 281 278 293 360 448 446 446 444 452 434 405 482 456 443 420 452 444 409 407 368 403 346 405 334
208 208 203 214 217 214 209 211 211 213 210 214 216 215 217 219 225 230 232 234 231 237 232 222 233 253 240 246 271 277 268 294 450 441 434 438 453 456 431 430 423 393 374 402 432 448 449 412 398 397 364 403 384 395
221 218 220 211 213 219 218 211 211 210 209 215 227 221 218 230 232 221 234 237 238 245 209 231 253 237 236 265 245 278 310 405 420 388 383 429 441 468 474 447 446 464 385 383 437 432 437 407 400 393 392 365 389 389
212 213 216 211 210 216 215 210 216 222 220 221 223 230 231 232 228 236 239 239 234 252 139 245 239 279 256 259 278 355 397 428 395 382 373 366 416 453 475 561 451 396 397 390 440 411 440 411 397 389 393 391 389 378
221 226 216 212 212 214 218 223 222 224 226 233 224 236 216 236 239 251 242 250 247 246 168 241 228 237 274 267 347 350 438 406 384 348 331 333 351 388 477 567 519 450 432 507 456 407 440 426 399 390 392 391 385 379
212 219 229 222 223 222 225 225 225 225 223 219 230 242 247 240 228 230 249 244 245 255 267 250 267 272 252 353 348 444 409 384 349 325 317 314 315 320 332 554 552 531 514 527 454 414 415 430 415 395 389 391 378 378
231 222 221 228 230 228 222 220 218 234 235 235 239 234 248 245 239 255 266 265 230 257 246 271 274 335 371 349 446 414 384 348 322 312 308 309 310 310 315 317 317 346 527 529 462 425 423 436 433 402 390 389 381 373
241 235 233 235 236 235 240 242 246 251 253 258 265 267 267 269 281 273 231 243 246 267 277 349 347 356 438 449 421 391 352 322 310 306 314 311 311 319 323 320 314 314 314 314 472 448 437 439 407 396 394 402 391 384

GFSWCAN_2pvu_pres_063.txt.gz
Presure
242 180 188 153 191 221 220 204 201 122 247 200 134 202 227 124 160 152 156 142 149 167 152 116 95 120 150 101 170 145 145 187 167 186 232 262 271 333 295 336 317 307 303 296 287 279 273 267 262 258 258 255 252 251
253 168 173 194 199 152 196 207 213 222 247 235 186 229 241 228 175 162 164 134 145 169 145 149 154 112 132 161 133 151 166 170 142 173 157 106 179 304 202 347 326 313 301 294 288 285 285 281 277 273 269 263 262 260
205 205 177 191 208 202 196 197 134 235 241 208 186 236 240 238 143 213 166 136 149 174 131 157 117 170 135 114 158 192 199 151 167 159 223 212 254 298 256 287 348 304 306 296 285 277 281 279 281 277 280 280 278 279
198 170 162 184 202 193 215 206 193 209 162 239 159 202 229 230 169 225 178 142 142 195 134 151 163 132 172 128 133 169 160 143 171 155 196 232 227 247 256 259 270 233 292 251 295 284 279 278 274 274 269 271 272 276
186 176 201 188 200 152 207 206 203 202 205 218 238 230 234 225 221 226 229 188 165 162 169 151 129 171 142 112 115 160 144 154 145 176 185 212 240 250 252 261 170 270 381 181 313 302 290 283 278 271 271 269 270 270
194 167 177 195 202 207 208 198 206 204 212 246 235 170 232 228 234 166 150 203 146 200 196 163 122 173 161 158 129 144 146 172 166 214 171 245 205 240 255 227 262 252 290 329 327 318 305 293 289 285 273 265 263 264
210 186 176 196 204 202 202 194 146 187 140 245 242 122 160 132 240 213 200 148 160 153 160 130 179 203 147 141 170 140 150 149 231 176 185 242 130 244 132 255 255 227 268 272 259 341 336 310 299 292 285 282 273 266
196 164 168 199 215 203 202 191 131 191 164 206 216 196 202 199 208 205 194 191 162 192 163 192 198 176 174 168 156 133 151 175 228 166 246 220 220 250 224 244 224 259 244 277 254 271 346 345 345 318 302 291 282 279
160 163 170 200 190 186 203 194 189 198 125 127 134 131 199 201 199 200 186 173 194 198 167 137 173 174 142 140 143 132 158 165 209 239 193 247 127 248 231 229 250 244 260 268 269 267 343 352 336 329 333 330 322 303
205 179 170 197 209 189 201 193 192 192 195 199 129 202 200 162 168 196 154 198 168 182 197 167 161 147 134 126 165 158 150 229 226 147 231 238 228 213 252 234 237 252 266 250 257 274 291 308 316 322 312 328 358 317
194 165 171 192 200 202 200 189 194 196 194 193 183 140 132 200 203 198 181 195 143 202 152 171 169 161 146 157 167 132 184 213 217 188 234 237 216 231 166 235 249 258 257 258 254 276 316 309 311 299 310 297 294 302
182 168 167 171 182 203 199 195 193 193 198 154 194 192 198 198 198 171 142 197 199 212 171 181 149 166 158 133 151 152 161 181 128 230 237 234 221 200 225 235 232 285 249 250 250 281 314 324 303 312 322 310 317 324
172 183 171 198 176 192 197 193 199 189 199 194 196 154 196 192 159 198 197 194 182 167 199 181 154 154 176 145 151 151 219 223 227 236 239 160 219 241 235 243 216 237 251 260 266 305 311 315 318 314 316 316 313 321
192 183 172 174 186 182 192 188 191 193 190 188 191 152 192 191 185 195 187 194 198 177 175 148 154 154 210 179 90 107 230 146 219 226 242 244 220 252 241 242 253 225 256 255 276 312 318 317 314 313 313 315 329 357
175 190 170 199 194 185 192 196 190 192 183 188 190 187 186 192 194 191 194 194 164 166 152 146 154 190 145 130 212 203 180 235 170 233 238 224 246 225 250 230 231 235 258 271 326 324 319 324 326 322 330 372 393 411
191 180 174 189 197 200 193 193 196 185 188 183 183 183 185 188 191 189 155 171 160 164 130 192 174 133 214 144 179 162 147 229 234 243 240 239 220 243 247 229 223 247 267 285 338 327 331 335 338 373 476 508 493 477
167 167 169 170 180 172 181 190 188 189 184 176 176 174 181 184 178 183 170 160 161 190 198 134 211 211 135 229 213 172 232 212 240 230 237 248 256 244 260 227 222 262 287 352 336 336 347 370 496 525 522 511 491 471
159 162 172 165 169 167 164 182 180 183 181 184 176 172 165 187 183 182 157 191 173 142 177 186 184 200 161 223 160 230 223 234 229 235 235 255 245 242 247 226 262 257 309 337 353 377 459 493 517 498 489 491 469 453
167 165 164 162 166 177 171 174 179 181 177 178 173 179 168 158 164 187 172 163 150 135 171 190 139 181 205 214 223 231 213 236 233 242 244 234 235 231 240 264 254 283 348 381 490 462 464 494 482 464 459 467 449 438
186 174 169 164 166 169 171 169 170 171 173 171 163 148 179 127 182 177 172 138 166 151 210 166 213 211 164 223 226 220 238 237 237 243 224 250 258 247 263 244 283 380 500 477 474 464 443 445 458 442 438 435 438 427
146 145 161 160 160 166 136 168 169 179 176 169 174 125 180 169 160 188 202 168 151 222 132 204 226 231 224 227 233 222 243 229 238 222 246 247 238 233 252 284 474 471 463 445 467 446 435 438 455 438 425 421 426 429
170 167 161 163 165 145 169 178 149 175 169 177 166 148 142 132 177 187 197 185 210 174 173 217 230 223 223 232 212 239 231 240 244 247 217 264 233 266 268 287 467 464 458 448 431 417 420 437 431 448 424 412 411 420
190 216 175 186 172 197 163 187 172 173 180 185 180 171 185 206 205 166 180 197 169 191 213 216 199 224 228 214 237 245 243 242 244 244 264 228 263 260 285 355 428 454 448 440 445 420 427 438 450 442 426 417 398 397
197 195 220 218 208 170 190 169 189 207 172 184 207 214 221 177 191 156 151 199 202 173 201 224 226 225 222 227 237 237 245 254 254 269 251 254 262 278 261 381 372 441 468 447 431 428 472 450 435 437 417 415 403 399
220 171 212 206 145 214 201 202 186 204 215 205 207 207 215 132 217 222 223 220 216 218 224 221 229 231 223 235 244 249 251 247 244 261 232 265 288 260 390 360 354 395 452 462 430 436 423 460 421 448 419 412 403 402
212 214 213 212 199 211 209 196 219 216 217 217 223 223 220 216 181 188 213 227 223 223 222 227 226 221 225 250 227 246 255 247 268 250 263 286 262 412 378 343 330 336 454 486 476 466 380 375 437 451 434 415 402 398
210 214 218 219 211 217 210 210 208 216 216 203 215 205 207 191 206 220 224 222 207 220 228 228 216 239 240 230 249 260 243 256 244 282 272 268 420 396 362 334 322 323 349 542 469 526 422 389 422 437 461 416 394 394
212 218 217 208 217 217 218 218 216 215 218 212 204 189 220 222 220 223 224 204 225 232 222 230 239 239 229 260 243 258 266 265 274 256 282 414 399 382 344 327 322 319 321 361 477 446 413 409 449 436 473 383 395 399
212 214 193 220 167 227 221 214 199 207 211 222 220 221 222 221 209 216 227 228 226 233 240 239 243 237 157 253 266 284 243 276 282 295 427 398 385 351 334 323 321 321 320 318 353 464 437 524 450 446 452 414 399 386
218 193 208 211 225 213 219 220 216 216 217 226 216 228 223 224 226 228 229 234 236 236 236 245 253 260 264 269 273 262 271 257 285 438 405 383 354 334 321 320 324 329 327 331 319 460 531 474 450 444 434 408 399 393
207 217 209 218 226 224 227 225 227 219 212 222 227 234 234 223 235 227 238 246 236 242 254 257 252 261 238 269 243 279 273 286 433 408 389 357 334 321 320 327 323 374 446 416 462 321 471 437 421 445 429 414 396 393
222 219 230 226 225 221 233 232 221 222 222 220 214 222 202 217 239 237 232 243 251 242 240 259 263 234 254 275 279 283 455 432 403 385 355 334 320 321 321 378 411 427 433 440 406 484 331 325 428 455 439 409 400 393
231 231 225 224 229 231 234 233 234 233 238 235 234 235 235 238 235 247 251 249 255 264 264 266 255 244 270 260 287 335 432 402 383 354 327 317 319 319 317 397 413 432 441 434 429 401 381 348 321 357 443 436 410 404

GFSWCAN_2pvu_pres_066.txt.gz
Presure
307 246 257 252 162 141 178 206 185 202 154 125 207 217 164 128 179 150 178 137 150 223 136 149 152 195 151 129 125 99 157 147 160 157 149 154 184 179 238 189 259 360 341 268 310 303 296 287 279 277 266 262 257 252
279 267 254 256 191 217 119 181 193 146 191 210 207 227 200 240 228 225 220 200 177 160 202 152 149 193 201 133 110 137 121 224 153 194 133 153 161 225 216 255 256 315 274 274 339 319 307 294 283 290 283 277 269 266
256 241 256 253 217 173 175 186 162 196 212 126 220 228 221 161 231 160 226 224 178 215 200 147 156 112 145 127 102 155 144 175 166 142 128 170 167 224 230 237 254 263 268 167 286 126 342 320 303 289 284 285 282 283
268 241 249 235 168 133 176 193 205 201 208 205 227 240 238 169 235 200 225 214 191 219 228 137 167 163 106 171 161 138 162 134 160 161 222 157 166 234 183 153 243 238 189 256 296 130 267 348 328 307 292 282 278 278
249 256 243 237 187 151 175 195 188 210 213 197 212 236 240 213 238 231 230 227 228 219 144 227 156 168 172 114 169 217 157 152 115 169 166 158 168 175 193 240 218 229 188 182 167 267 271 329 355 327 304 293 286 276
237 248 244 215 197 172 168 178 198 205 216 224 249 230 247 241 241 228 225 225 230 215 191 169 162 163 188 211 151 103 123 152 163 110 167 161 171 240 244 243 212 238 241 232 242 258 274 272 341 349 323 307 295 285
254 242 229 201 204 174 171 212 200 204 214 211 228 206 236 243 237 233 210 175 218 199 205 207 159 204 191 180 209 181 134 150 151 162 155 156 159 160 201 244 155 231 248 233 240 243 250 256 210 253 363 347 321 303
254 242 235 223 178 188 181 197 214 209 212 205 205 237 245 243 127 241 233 173 205 201 198 177 191 192 153 195 185 142 130 152 154 168 165 155 188 229 235 238 237 227 248 244 241 226 262 264 260 316 302 346 363 343
254 241 216 199 209 200 175 201 213 216 221 204 209 236 248 179 235 243 212 209 156 194 194 201 181 183 188 187 141 163 153 153 146 220 150 160 215 221 229 229 245 228 245 230 243 232 223 254 267 318 308 300 301 323
256 207 202 205 171 181 169 181 210 215 217 173 130 117 248 139 136 206 209 195 132 197 195 191 184 194 224 187 163 176 131 161 155 207 171 133 151 226 231 246 233 230 235 241 280 247 226 250 254 317 311 312 322 283
255 228 177 173 151 177 192 208 206 199 209 115 204 207 117 149 206 196 195 200 154 198 195 166 192 188 200 140 173 177 135 159 146 157 207 141 227 227 230 246 228 142 244 234 215 234 249 239 299 329 314 317 312 304
230 173 211 161 170 169 176 185 197 166 204 170 183 203 169 175 199 159 204 150 200 103 172 188 192 179 174 175 180 132 157 195 162 106 170 215 225 203 200 224 167 248 253 221 234 245 259 259 335 318 319 326 320 312
250 230 169 166 165 166 166 175 182 207 183 197 196 200 197 190 165 194 196 196 196 151 153 190 168 182 183 133 132 131 166 130 152 149 150 237 211 239 228 239 223 254 240 256 248 243 261 261 317 322 326 321 317 313
244 227 166 178 175 185 171 176 187 190 212 203 183 186 194 196 201 198 194 190 196 140 191 197 179 190 145 159 147 159 156 87 207 201 224 135 237 233 240 226 241 244 230 243 254 270 259 272 349 332 332 332 331 329
243 204 198 168 159 172 170 172 184 180 203 204 200 195 192 192 198 192 198 196 185 187 189 181 173 180 159 152 201 140 151 133 159 152 241 170 242 225 249 234 247 244 223 253 233 256 322 342 353 356 360 367 384 414
241 205 198 166 177 172 171 173 180 185 180 183 193 201 192 194 192 191 193 171 190 187 193 182 165 157 161 153 164 196 108 192 159 154 198 235 239 235 230 251 240 251 248 256 237 249 350 371 477 506 500 498 500 521
236 209 198 184 214 188 165 170 208 190 190 188 188 193 186 180 188 189 195 178 185 185 176 176 152 188 174 173 133 152 195 158 223 235 233 234 226 241 227 249 226 217 244 267 296 268 480 422 469 490 478 500 486 484
226 226 193 177 178 168 161 169 199 182 179 185 189 196 195 196 191 197 186 181 186 181 164 160 139 177 196 157 197 204 155 222 161 226 218 236 239 232 249 236 237 260 271 280 271 416 398 471 460 445 463 458 464 453
237 199 196 171 183 163 161 167 169 172 196 196 189 190 188 185 192 192 179 185 149 150 162 152 172 174 191 164 155 180 177 206 243 179 231 238 226 245 239 249 263 241 246 263 422 407 361 464 460 437 421 450 464 448
237 204 193 187 170 162 182 187 173 176 175 175 175 185 178 178 181 165 148 161 177 170 166 168 154 164 135 160 184 199 203 209 231 225 240 228 240 244 222 225 238 280 288 272 420 393 342 459 456 431 420 456 447 439
234 210 200 195 162 161 172 167 161 166 170 175 178 184 180 179 168 172 172 163 180 164 129 162 153 200 156 139 189 151 202 226 208 226 236 240 257 245 253 265 252 247 288 400 405 340 329 482 442 429 418 452 438 439
205 225 176 160 159 170 170 171 185 167 168 168 174 175 148 171 166 165 174 156 184 183 179 140 181 169 164 188 146 202 200 225 223 236 239 245 224 238 239 250 263 282 368 418 392 335 324 329 463 430 495 455 458 427
210 213 199 180 213 172 160 168 164 165 167 163 175 157 162 173 143 160 193 168 189 168 155 147 140 144 212 145 187 209 226 224 237 234 240 232 254 256 242 266 256 290 440 401 359 326 321 324 501 434 466 446 466 432
223 216 203 196 189 166 157 160 161 165 161 183 178 180 172 163 191 150 166 171 158 151 166 185 181 190 221 203 226 226 231 234 242 240 259 238 249 253 263 275 252 443 414 390 341 322 320 320 351 478 421 404 474 448
221 219 218 193 189 180 146 192 152 161 213 192 158 189 161 189 178 196 198 156 191 147 220 210 179 222 215 230 234 232 241 242 231 251 237 261 246 267 254 287 443 415 396 355 329 320 320 321 321 466 423 388 463 449
206 223 217 206 187 206 193 169 193 170 189 188 196 209 189 200 188 170 132 202 158 202 213 192 223 223 202 223 231 230 241 224 218 241 255 256 257 255 290 410 424 393 371 336 322 319 326 382 317 529 435 399 460 447
216 217 213 211 206 200 190 178 192 200 178 164 194 222 218 177 206 171 166 177 220 213 211 215 232 205 226 229 239 249 225 220 245 249 267 248 270 252 267 425 400 377 338 322 324 348 421 569 345 369 415 409 450 447
210 209 210 211 214 211 212 211 209 216 217 208 192 165 208 211 192 200 223 196 227 213 208 211 228 220 239 242 240 224 251 240 235 267 248 259 251 282 419 396 371 341 327 326 409 456 430 585 358 327 428 487 446 455
212 212 212 217 207 197 207 213 214 213 212 212 207 216 218 220 223 199 226 226 224 235 227 227 239 220 235 238 232 255 249 233 261 235 260 288 291 408 393 378 339 329 328 404 426 453 442 555 463 327 516 449 457 451
217 213 220 220 216 213 211 213 211 213 215 214 215 213 206 209 219 222 221 225 228 232 213 216 239 242 244 222 247 252 237 266 249 262 289 323 404 396 370 337 325 330 403 428 445 458 437 517 509 336 440 463 469 435
220 222 223 219 214 214 216 216 213 217 220 204 209 212 215 227 228 229 224 216 221 231 237 237 247 247 236 254 264 254 267 265 263 290 333 410 416 357 333 323 312 407 447 470 464 455 430 408 475 348 324 461 442 421
223 222 218 214 215 213 217 199 214 223 223 224 205 209 224 223 234 231 225 241 224 235 238 234 240 248 251 232 261 268 260 259 286 427 409 409 378 331 323 358 364 379 453 471 470 454 433 406 444 430 334 317 435 416
211 211 211 211 214 217 202 198 209 210 230 228 214 210 213 226 241 222 231 240 243 236 249 251 253 252 253 234 270 261 251 289 415 411 410 378 330 319 331 343 342 348 359 399 473 468 446 427 406 436 438 360 316 316

GFSWCAN_2pvu_pres_069.txt.gz
Presure
392 300 310 259 252 256 216 259 174 190 213 170 189 212 128 217 217 137 188 127 151 131 147 214 160 151 149 153 125 138 136 145 124 138 119 176 181 160 164 221 243 154 224 227 235 248 180 260 271 315 302 289 281 276
411 280 261 257 252 233 238 111 172 172 181 138 182 123 141 142 229 141 194 231 141 206 144 144 221 210 123 209 163 139 139 148 126 141 149 169 148 135 124 171 242 244 241 227 242 233 240 149 255 266 322 307 294 283
288 265 279 244 239 250 244 233 184 173 171 213 215 136 216 132 237 158 223 228 149 225 190 227 226 213 199 159 145 157 117 125 148 127 174 125 170 148 192 237 232 248 173 246 238 256 133 233 249 254 259 257 315 300
277 285 258 244 253 242 228 197 189 180 181 190 196 147 213 213 209 168 234 223 173 226 217 199 228 143 166 171 168 181 125 171 138 136 180 118 190 159 148 142 250 235 228 236 249 236 250 211 173 247 263 217 357 324
285 267 238 246 258 231 168 193 213 183 182 179 200 138 205 227 208 230 231 222 202 230 230 222 218 152 151 202 154 144 201 117 155 185 134 161 213 147 178 202 194 222 210 244 245 234 230 252 205 264 254 291 333 373
283 248 264 240 251 165 246 231 173 180 185 213 202 199 221 223 240 138 214 227 225 237 233 221 228 138 125 144 193 213 115 146 177 135 165 134 162 143 126 239 116 241 228 198 242 233 238 262 244 267 252 253 271 325
254 263 266 250 210 245 196 225 174 208 179 190 215 212 151 243 248 234 235 198 232 223 230 224 166 201 207 193 162 190 192 138 190 174 134 165 148 170 226 222 230 231 233 230 248 244 242 237 261 241 267 248 309 347
280 147 251 255 246 253 218 203 189 182 173 192 151 213 230 248 213 228 238 142 229 226 181 187 204 209 195 196 156 191 177 171 160 173 147 181 148 142 176 204 241 234 222 242 221 222 246 248 252 255 264 309 291 335
274 265 252 240 223 239 228 220 184 193 172 127 215 226 153 125 162 247 244 233 216 231 219 204 136 185 196 149 182 189 201 134 148 152 135 152 157 210 222 228 223 233 205 233 233 234 220 263 226 242 261 305 313 328
258 264 251 250 242 234 231 181 204 176 128 182 160 235 209 216 241 249 226 243 234 143 204 198 144 198 198 166 194 194 177 180 149 165 146 180 135 201 149 156 170 226 231 223 225 251 247 272 247 258 268 256 334 338
248 267 252 237 253 248 210 216 200 173 180 209 212 211 210 231 196 233 147 231 171 204 197 189 194 193 199 168 187 193 176 173 142 168 157 198 147 148 202 133 233 182 234 242 215 246 257 236 241 268 276 335 343 320
243 269 250 255 234 231 234 170 182 133 173 179 225 210 209 252 128 181 182 123 132 197 195 147 195 191 159 135 186 180 155 165 153 137 154 214 220 212 190 230 224 234 226 228 247 246 241 261 275 262 264 357 335 340
262 236 255 240 239 230 169 172 201 211 202 183 181 132 145 164 211 198 196 188 201 197 203 197 192 192 143 187 190 129 180 160 148 157 170 163 212 210 169 176 222 240 225 225 251 234 267 241 270 294 317 368 381 412
234 228 252 242 236 233 173 192 182 217 197 203 215 178 201 193 202 202 204 195 191 146 189 193 185 194 184 182 167 117 158 143 175 164 157 161 199 147 208 220 220 241 238 249 252 240 258 254 283 325 374 430 413 346
262 257 254 190 234 170 171 172 174 186 157 178 215 183 206 203 186 191 199 197 199 197 195 196 183 193 182 187 174 172 162 177 184 180 149 215 221 161 210 188 221 242 250 247 234 229 240 266 274 312 434 416 333 483
264 251 254 237 221 171 186 169 164 176 171 174 186 179 194 203 201 192 194 196 194 195 193 185 191 188 170 181 182 180 165 153 146 144 169 146 157 191 218 231 229 243 243 249 246 261 268 285 263 436 423 346 330 477
266 246 255 179 243 172 170 170 168 195 168 171 176 188 167 188 206 205 197 195 175 193 183 191 187 188 157 177 175 151 183 144 213 146 182 151 147 212 237 224 243 262 238 222 249 236 273 268 387 430 400 335 326 467
262 249 253 242 170 185 174 176 163 181 166 169 192 167 199 181 183 185 198 184 194 187 187 201 178 179 165 157 149 158 142 182 157 145 155 139 178 230 233 228 246 251 238 250 268 248 284 276 443 417 361 327 320 454
265 250 252 243 229 166 167 172 164 171 169 196 185 175 194 188 185 187 183 190 187 188 159 157 182 176 124 177 183 165 198 163 171 155 136 155 214 237 232 243 240 251 257 225 260 255 262 449 431 408 336 322 314 458
261 242 254 239 198 227 172 171 165 162 179 159 175 169 161 193 201 192 200 170 176 187 134 175 170 124 143 166 201 138 160 143 191 217 174 215 235 230 241 244 236 256 256 255 252 282 409 437 414 381 326 320 315 466
249 252 251 237 229 214 183 174 166 178 169 182 167 191 181 186 172 182 208 168 166 179 155 156 178 149 145 130 186 167 144 199 217 149 222 227 232 243 228 244 257 262 237 258 287 331 447 423 397 338 323 321 341 391
252 254 240 168 227 207 198 183 168 170 175 199 185 182 188 183 171 178 160 147 145 168 166 143 170 131 189 181 172 126 165 207 146 225 227 232 243 222 238 250 248 231 260 279 268 448 425 397 345 327 321 324 391 315
246 243 241 233 216 203 172 197 169 169 176 182 182 188 182 170 167 169 172 155 184 178 130 140 168 126 180 166 159 189 175 156 202 239 222 241 238 250 244 256 271 267 276 267 447 419 403 352 331 324 326 418 414 315
243 242 239 233 214 203 199 196 178 169 169 209 189 181 172 138 182 162 138 166 158 154 142 174 127 176 157 137 222 219 208 225 238 219 239 247 239 250 239 265 255 247 265 440 416 414 357 337 331 329 442 417 560 321
244 243 241 231 219 212 194 167 159 170 168 192 179 121 134 169 181 178 121 168 143 196 131 179 153 220 168 227 204 222 206 238 220 245 240 234 253 230 258 230 262 288 360 416 413 351 337 331 348 425 455 556 566 334
241 242 234 230 218 208 165 165 197 186 196 185 161 199 190 164 175 191 187 164 152 155 185 190 169 191 198 190 222 225 236 223 239 231 234 251 239 259 255 260 252 276 420 379 348 332 358 418 440 457 456 599 576 462
233 239 234 226 218 209 200 194 194 202 175 176 161 184 154 189 195 203 200 143 191 184 156 180 207 208 228 205 222 239 221 228 235 236 256 248 253 270 266 247 261 402 381 350 370 404 448 467 466 464 540 590 437 422
236 228 221 206 207 208 207 215 214 204 202 191 136 198 208 182 175 177 213 181 152 207 145 227 205 228 218 226 233 225 239 230 241 219 251 254 237 261 276 261 402 380 353 374 375 387 500 486 468 451 527 490 347 439
221 224 218 211 213 213 214 212 212 217 215 212 205 164 184 200 205 192 173 182 152 217 195 221 213 224 235 235 226 240 237 242 213 251 249 253 282 264 256 406 380 353 345 353 355 371 466 475 452 535 522 515 343 466
219 217 214 212 216 210 211 215 211 209 181 170 179 213 210 208 208 194 145 207 210 213 230 222 232 223 232 223 246 241 249 230 256 241 261 279 261 252 418 386 356 341 341 340 343 353 471 468 445 461 444 494 349 385
219 218 218 214 214 212 199 161 157 153 186 204 216 219 218 164 158 209 221 221 223 220 226 231 208 229 234 225 245 237 229 252 245 271 257 262 256 328 393 362 342 337 337 333 325 339 426 467 447 436 439 467 471 331
224 226 225 218 210 210 216 212 210 211 205 217 191 163 219 216 222 212 215 217 230 235 236 221 231 237 244 239 237 251 253 248 268 256 258 251 306 404 375 349 334 341 333 323 319 324 345 470 452 439 441 456 457 397
223 222 217 211 210 211 212 214 211 210 212 217 215 213 213 215 223 226 225 225 208 207 225 239 243 245 239 236 256 252 257 269 249 261 242 304 423 385 357 336 327 334 327 320 316 317 332 353 466 450 435 425 446 453

GFSWCAN_2pvu_pres_072.txt.gz
Presure
431 336 385 308 246 283 241 256 245 218 241 231 207 222 210 200 216 139 208 207 175 133 147 136 206 181 157 149 149 130 185 196 165 168 135 138 119 122 158 160 157 234 220 243 236 232 249 231 245 255 164 264 166 316
389 350 335 295 261 229 209 256 173 253 237 183 182 197 222 213 221 223 233 232 133 202 135 137 144 233 215 209 128 151 165 135 108 200 156 162 174 149 120 139 113 216 212 140 237 235 250 246 225 253 255 220 262 248
314 354 323 234 272 228 245 214 257 251 217 137 223 178 197 237 211 216 232 141 136 217 199 210 216 226 185 177 202 131 162 161 195 129 153 165 166 125 138 157 157 232 202 209 225 236 243 228 256 258 130 280 269 274
340 296 297 278 250 261 257 193 235 234 240 172 164 167 199 131 228 219 237 225 193 223 212 213 227 181 211 178 178 147 192 189 133 189 128 128 157 171 153 148 153 193 219 192 226 234 240 239 222 241 238 246 239 275
342 313 281 223 258 248 255 181 220 192 207 231 128 189 135 203 236 155 232 232 132 225 220 225 228 234 194 213 191 140 182 172 168 185 187 130 161 181 135 193 158 159 219 223 228 230 218 241 189 254 243 254 269 268
405 305 280 256 231 259 246 227 171 233 168 229 211 215 128 206 128 225 243 236 225 211 220 225 231 228 222 213 198 196 198 147 187 127 187 146 123 153 145 184 150 166 189 175 175 227 226 246 232 228 259 256 254 275
477 298 277 261 260 250 213 231 255 184 212 212 155 177 140 210 181 235 221 244 151 213 222 228 233 230 211 201 204 201 185 192 159 206 172 169 126 158 176 149 220 182 224 154 190 221 239 236 238 226 224 244 258 272
432 295 265 257 231 248 208 233 227 211 223 210 186 174 206 210 200 234 234 242 161 226 143 231 229 133 202 206 169 195 186 138 203 179 173 164 169 153 161 191 137 150 160 228 202 219 238 228 246 216 225 247 258 279
362 282 272 259 234 240 153 160 172 229 228 186 189 179 183 211 132 138 239 233 229 140 229 221 234 228 208 193 141 198 171 192 195 132 168 143 121 161 186 148 147 173 211 203 230 212 239 233 242 227 221 256 274 284
331 271 241 265 226 251 249 242 193 248 223 170 171 171 195 150 234 233 243 133 233 235 231 179 170 201 189 194 142 195 190 166 177 195 160 169 183 166 154 198 226 195 150 229 215 244 220 246 248 231 255 249 270 270
337 267 256 245 263 213 254 240 165 229 214 226 173 171 205 182 224 133 240 179 236 239 232 179 205 202 150 185 196 192 191 132 177 183 133 148 187 139 171 189 224 195 154 179 214 239 221 243 245 237 234 263 252 316
324 286 281 247 256 215 255 221 243 236 221 208 138 179 202 173 169 239 232 240 247 171 218 133 204 190 192 193 193 194 183 188 166 162 140 191 170 144 197 177 147 187 197 230 215 223 219 228 225 256 266 255 296 371
325 267 275 248 267 209 253 176 247 215 241 174 171 168 203 235 201 234 242 179 234 231 133 168 204 190 161 192 186 194 174 181 166 166 160 156 175 204 147 190 160 198 222 239 228 228 237 215 239 238 273 261 377 407
322 287 232 241 218 237 248 228 208 185 171 184 192 169 202 187 210 235 237 129 135 229 198 194 192 189 188 193 197 189 165 192 181 152 141 190 145 178 147 149 153 226 230 224 242 208 241 224 262 241 278 281 370 445
319 295 273 253 218 244 168 228 217 225 229 189 171 177 195 187 211 234 234 235 231 201 200 193 198 195 191 185 188 191 159 179 136 184 155 154 160 163 149 147 146 231 231 235 229 244 228 245 248 272 269 373 454 432
314 275 241 261 240 253 161 174 157 202 206 191 207 194 202 205 208 202 214 193 194 191 185 193 186 188 185 192 163 187 174 138 161 172 160 140 162 158 155 144 233 214 237 232 251 237 239 264 263 266 337 461 442 416
317 288 229 244 218 238 250 168 194 231 228 170 182 177 207 181 215 186 186 201 205 197 197 174 189 196 190 178 165 195 131 147 138 159 175 162 166 182 230 158 217 238 220 244 226 245 241 237 252 273 476 447 410 395
311 280 265 228 247 239 249 158 203 223 169 178 202 171 207 177 182 184 209 179 177 175 184 183 189 192 184 183 167 114 166 131 147 152 189 142 204 162 227 234 232 231 230 251 236 245 242 278 265 477 442 407 398 341
307 280 271 225 263 244 244 159 192 174 196 172 170 172 164 207 195 173 201 200 206 181 182 189 183 166 182 170 127 161 140 169 156 183 131 161 145 146 220 231 226 231 243 248 235 234 257 250 463 435 415 409 343 329
303 244 253 239 246 242 240 158 175 167 167 191 171 166 175 174 172 185 185 169 192 201 198 160 198 175 170 154 161 189 139 153 165 139 153 227 170 233 225 232 224 240 243 234 247 265 278 274 433 421 381 345 333 327
293 237 260 248 256 246 241 161 160 169 172 189 170 167 173 170 195 193 171 180 181 176 183 183 161 184 125 168 135 193 132 189 144 128 193 154 220 231 215 228 237 244 262 253 270 258 271 440 416 358 338 331 333 404
291 237 259 224 250 239 246 217 160 160 171 176 196 188 170 171 201 180 172 177 168 199 169 165 165 144 180 168 191 130 202 158 138 213 165 221 235 219 230 238 249 226 232 225 271 274 305 415 365 389 395 407 420 428
292 250 231 238 250 241 243 222 159 195 176 173 199 167 168 170 183 176 178 181 183 203 160 173 129 179 144 176 150 164 170 137 184 191 225 224 219 236 226 240 250 256 238 262 246 274 407 373 364 362 380 414 454 447
289 274 236 255 243 250 235 239 231 174 223 201 174 169 191 189 175 181 191 205 207 159 126 174 130 175 158 129 188 196 146 172 192 155 224 237 231 228 242 247 217 221 265 266 277 389 375 358 353 355 397 437 482 470
283 277 264 251 239 250 235 238 229 220 166 176 177 170 198 195 181 188 176 127 136 173 164 184 177 188 152 179 159 146 147 222 157 225 233 227 237 226 243 253 250 265 256 262 273 380 361 353 346 342 451 490 468 470
280 275 265 252 231 245 229 232 225 218 216 210 209 187 197 186 202 202 171 145 166 149 193 174 184 182 195 158 145 134 220 182 228 230 227 226 229 245 247 262 224 258 261 268 390 366 354 344 338 337 487 479 581 591
275 271 239 259 231 241 223 228 197 190 219 212 207 182 193 173 184 156 153 200 179 181 149 181 199 202 156 153 134 177 194 224 232 221 218 235 246 229 258 259 264 251 262 283 376 356 347 335 332 340 487 543 584 468
272 263 223 249 224 234 218 221 219 199 219 209 176 204 198 170 143 205 177 182 180 198 196 151 201 209 196 185 175 216 225 228 237 209 237 249 254 256 225 245 258 277 263 385 363 351 342 331 330 342 483 480 509 502
252 250 236 241 231 226 232 225 220 215 152 211 208 196 166 210 209 193 152 207 202 168 204 201 166 161 182 209 212 229 228 231 237 236 245 247 259 227 259 240 268 247 354 372 356 347 334 331 328 332 475 482 533 508
248 243 232 241 223 223 228 224 223 216 211 212 209 205 208 203 209 205 205 176 167 176 199 218 215 192 193 226 234 225 237 238 241 243 252 259 248 262 235 253 242 260 383 361 347 339 332 329 322 322 474 462 476 471
234 234 234 229 221 222 224 174 225 199 214 209 193 195 192 204 201 163 166 161 194 192 217 215 200 211 227 238 227 235 245 242 244 262 252 248 261 237 255 239 257 395 371 352 341 333 331 324 317 318 431 457 463 478
213 215 224 227 226 227 225 222 222 222 219 217 213 209 207 200 208 206 206 211 204 222 198 193 227 209 222 239 225 244 241 250 265 250 257 239 242 259 231 261 401 380 354 343 331 331 329 323 316 319 339 461 402 455
222 220 226 224 224 222 206 220 221 220 218 217 213 206 212 210 188 178 209 217 201 220 223 228 214 228 240 225 240 248 253 257 251 247 264 243 267 230 268 386 392 370 344 338 328 331 326 322 316 359 327 454 380 384

GFSWCAN_2pvu_pres_075.txt.gz
Presure
463 328 322 315 272 257 248 240 230 252 258 178 247 205 222 207 157 136 198 125 219 187 223 195 221 145 222 182 137 151 170 145 145 193 184 128 158 161 147 129 126 151 145 217 184 185 204 241 242 227 242 206 228 247
431 383 318 285 274 258 281 266 248 238 249 240 243 176 184 188 225 186 207 219 166 224 142 140 142 220 220 214 205 206 207 160 132 186 143 190 189 164 200 170 122 147 130 148 156 211 143 204 229 241 209 231 220 245
407 310 298 284 252 241 243 235 162 231 255 241 235 205 186 235 216 199 237 189 227 220 141 136 155 136 220 217 211 123 195 143 201 146 189 166 194 153 194 110 120 175 183 206 173 177 214 237 230 191 227 225 213 252
387 302 310 280 275 253 190 242 209 251 248 209 229 203 230 192 194 226 206 140 227 225 132 135 144 135 229 197 210 209 203 174 192 184 180 174 176 163 164 148 126 189 168 123 176 180 210 218 230 231 233 255 240 163
381 349 294 287 243 201 244 266 168 240 162 221 193 193 233 176 234 211 204 139 224 160 220 141 220 228 230 168 211 210 205 196 147 196 177 164 168 179 142 143 143 120 129 207 228 158 217 217 236 225 233 208 237 224
416 493 291 298 258 269 205 251 155 244 242 224 152 177 230 219 204 227 135 173 197 225 132 137 223 225 226 233 219 218 203 200 194 149 179 190 137 182 156 186 205 148 142 136 124 217 221 219 227 221 228 235 240 225
364 486 307 290 280 267 249 205 252 218 238 221 199 140 151 203 170 136 232 225 161 131 206 223 164 223 225 212 222 208 209 187 194 183 171 169 177 164 167 160 167 158 196 165 184 134 233 219 227 207 217 239 243 221
361 482 353 291 288 278 264 223 151 186 241 223 200 205 170 191 158 224 167 190 229 225 142 178 221 228 233 227 206 205 157 175 195 145 177 173 170 142 135 160 151 146 198 139 172 189 221 215 214 221 214 233 239 253
354 474 447 300 286 283 254 241 248 160 234 229 181 173 201 141 218 183 132 180 245 236 230 227 159 164 222 231 208 205 170 193 191 195 182 183 166 172 164 179 169 180 175 181 150 220 216 225 227 232 234 215 250 257
350 472 454 300 264 232 264 242 248 230 171 176 168 211 182 125 175 176 195 229 136 235 222 223 233 229 131 186 157 201 202 202 196 186 174 166 166 129 150 160 201 133 186 154 164 221 224 222 201 235 209 246 258 257
355 456 444 296 264 247 222 205 247 238 189 226 198 218 187 180 156 176 175 198 229 170 240 230 231 224 218 229 133 197 193 194 197 173 178 177 171 171 128 155 167 142 155 146 223 221 210 213 218 232 235 224 252 268
360 440 436 319 294 249 219 229 245 227 238 163 221 213 222 197 179 215 185 167 218 232 231 202 233 233 216 227 166 194 193 195 196 170 177 173 142 187 164 177 181 140 172 140 200 224 210 213 232 218 230 266 251 265
393 426 421 464 290 277 252 247 231 151 236 231 211 175 170 171 184 186 134 236 211 239 149 235 235 152 225 229 193 193 194 187 179 170 163 181 156 150 130 178 199 137 149 165 201 220 226 200 235 241 230 268 241 271
432 412 420 455 310 239 210 267 232 236 224 229 197 189 177 196 171 199 199 220 209 223 231 119 205 228 229 206 197 198 193 186 173 177 167 151 160 153 158 185 154 224 150 215 214 209 231 215 235 227 242 260 260 370
413 398 417 450 309 254 228 266 228 242 255 174 226 209 211 177 183 188 207 185 198 244 215 221 225 228 212 195 189 177 189 166 170 172 172 131 166 189 137 189 154 163 163 216 214 206 212 215 238 227 255 282 286 447
404 392 410 450 303 244 262 221 242 253 252 215 237 198 217 185 191 175 196 216 220 172 236 239 208 176 192 186 196 179 189 165 155 181 166 156 152 191 152 189 142 151 181 231 208 210 211 242 232 258 242 274 447 424
390 392 413 493 303 244 266 229 240 253 159 252 164 173 179 207 181 184 213 179 182 204 236 237 236 194 182 192 188 185 190 169 132 167 151 157 137 132 139 193 151 176 229 224 223 219 212 248 263 269 279 263 414 383
380 398 414 631 301 260 266 240 212 258 245 237 175 186 214 222 179 190 184 196 198 202 197 193 189 187 191 188 183 191 189 187 160 162 164 157 137 162 178 191 161 216 216 233 219 203 240 223 248 263 283 409 377 357
385 408 448 537 315 270 272 256 239 243 209 189 203 237 212 218 173 206 172 201 160 203 209 198 178 187 188 186 201 205 163 160 159 128 173 150 176 146 215 152 220 231 220 225 215 244 255 256 264 239 265 387 360 348
387 402 494 480 356 267 266 244 227 252 159 242 232 176 230 208 210 175 171 198 155 200 181 207 200 198 187 198 191 160 178 207 131 168 181 178 134 181 227 153 223 216 238 215 229 236 211 239 260 260 400 371 356 345
384 413 584 440 320 278 266 254 220 250 241 238 172 166 229 206 173 186 177 182 196 205 206 207 189 193 179 183 174 197 166 146 147 168 182 136 153 200 170 220 218 218 231 222 204 229 254 268 239 284 380 360 344 340
393 584 448 424 343 282 269 225 239 188 234 241 170 176 192 199 175 171 173 178 170 168 197 181 178 182 178 200 160 187 158 139 127 176 157 169 188 172 150 202 221 229 224 239 256 254 242 261 262 398 369 356 345 336
475 535 411 404 308 284 266 253 227 244 187 230 161 225 182 178 174 176 169 175 171 186 195 168 198 173 194 171 184 167 187 147 154 188 132 207 168 197 176 216 234 236 220 253 263 231 263 248 279 381 359 348 345 339
576 406 390 403 300 280 271 228 262 243 223 207 165 211 175 172 184 177 184 167 173 179 186 177 184 171 168 180 162 165 170 190 152 145 163 161 210 166 226 233 237 227 247 261 268 256 237 272 399 366 352 344 341 416
417 379 374 334 300 284 214 229 238 237 243 233 172 173 160 161 166 200 177 188 165 170 180 186 187 187 189 142 193 128 169 175 205 140 203 209 174 234 227 237 236 244 249 264 233 263 273 258 381 358 347 340 331 608
386 386 388 314 289 286 222 260 228 230 235 232 230 161 161 162 164 192 185 188 178 172 185 170 192 195 167 152 146 186 167 142 140 208 177 199 226 214 239 235 236 252 269 244 263 248 270 396 366 351 345 335 326 594
389 392 358 300 288 275 224 258 237 224 231 232 226 220 171 174 205 168 214 189 177 179 185 181 201 170 198 166 190 166 175 143 208 141 223 196 219 238 239 236 249 251 237 237 247 274 348 376 358 345 341 333 322 540
393 349 296 294 286 257 259 250 227 228 234 229 229 227 215 212 209 217 219 211 172 181 200 166 150 181 170 180 182 136 184 202 149 218 229 227 238 242 238 252 230 240 251 268 290 261 394 363 352 341 338 330 346 538
329 291 287 289 272 262 254 247 233 222 224 222 224 228 226 222 221 216 210 213 216 213 151 164 152 194 175 195 132 164 199 155 216 217 232 233 248 221 252 262 235 227 252 241 281 320 379 357 347 342 336 327 354 457
291 282 279 277 265 255 234 230 221 218 220 221 223 220 217 205 222 218 214 187 186 152 184 210 207 167 162 161 182 212 193 193 220 236 225 247 237 253 249 238 249 219 240 276 263 391 362 351 346 342 333 324 353 452
281 272 265 263 261 255 238 222 224 148 229 219 222 228 221 218 219 216 164 214 199 214 157 191 164 141 213 204 196 210 222 219 230 229 241 237 253 231 233 238 244 263 253 263 403 376 354 342 344 338 330 328 345 475
270 259 158 253 253 246 240 132 223 152 230 147 212 215 212 208 213 218 220 137 209 214 210 143 213 216 220 220 213 223 226 230 230 243 231 260 262 242 229 259 230 248 277 378 385 363 354 344 341 334 325 375 379 489
255 240 249 251 247 246 242 244 247 224 210 165 212 220 222 183 213 212 215 148 156 162 174 215 212 216 195 222 231 234 228 241 243 250 236 251 239 234 262 227 255 279 276 398 372 356 341 337 338 330 329 369 388 539

GFSWCAN_2pvu_pres_078.txt.gz
Presure
346 363 467 315 263 236 248 222 233 249 257 254 170 233 167 210 194 206 218 201 188 223 223 143 231 196 168 141 146 152 142 140 134 183 200 166 148 132 96 89 173 186 150 152 115 153 153 219 191 226 237 235 227 233
248 359 395 306 276 276 248 261 236 255 153 268 238 243 229 208 230 180 227 207 214 131 222 133 225 221 143 145 207 202 196 193 196 185 169 179 207 202 182 173 156 214 140 166 155 153 142 142 219 226 172 235 233 235
229 251 451 326 270 242 232 200 262 252 203 266 224 175 217 214 223 211 225 212 216 136 219 148 221 228 212 133 164 198 199 223 191 163 144 195 184 182 167 179 175 136 176 182 141 166 123 136 188 224 214 218 207 231
243 248 279 330 300 269 261 258 224 250 183 189 205 190 200 216 216 211 217 188 227 182 170 208 157 132 141 138 157 141 203 200 171 165 183 186 185 181 183 171 128 146 138 148 202 147 148 141 217 194 231 224 227 234
251 240 275 318 292 271 276 157 237 239 152 214 191 243 196 231 202 209 217 234 220 230 220 222 140 137 142 175 223 219 167 200 199 196 189 176 179 152 164 177 182 173 157 164 135 126 145 213 207 199 218 194 144 218
255 238 266 507 321 298 294 255 211 226 247 254 210 169 162 233 227 197 139 227 214 221 222 232 160 135 200 144 148 229 217 207 193 196 152 187 181 179 181 167 175 161 163 178 211 96 179 170 153 213 218 196 215 213
246 255 251 323 437 298 268 282 187 245 207 231 233 232 163 214 173 189 186 201 232 220 143 170 214 218 209 224 209 216 230 206 207 187 153 163 119 173 169 145 160 163 152 144 149 151 214 170 206 209 212 214 222 214
235 258 240 304 465 324 298 265 211 231 228 158 163 182 194 199 203 229 187 222 161 231 135 178 224 223 222 198 194 226 229 193 207 110 193 189 178 175 164 173 172 193 183 147 142 167 193 217 219 221 209 220 220 235
229 272 233 297 312 467 305 295 237 213 252 189 205 166 225 193 180 183 188 222 217 154 145 218 201 225 207 223 215 227 155 174 126 196 185 162 191 180 176 179 170 174 132 140 142 209 201 147 220 221 215 213 225 232
232 241 266 307 330 473 319 282 278 241 252 248 172 217 167 179 198 233 189 214 163 209 189 135 202 220 212 220 224 223 221 229 207 134 195 187 175 176 170 191 176 140 172 142 142 137 141 218 222 221 197 218 213 219
247 248 230 301 339 445 508 297 268 185 250 248 222 188 236 212 168 218 175 209 152 196 155 172 234 237 227 218 221 228 221 227 190 196 187 174 176 182 167 196 166 129 167 127 167 163 153 223 222 223 215 214 245 233
241 237 297 371 332 401 475 307 277 263 143 242 196 164 179 229 180 223 202 187 186 215 168 219 191 133 142 224 230 219 217 225 163 179 187 179 180 189 169 168 165 141 161 148 179 218 165 220 231 211 214 199 246 245
228 250 283 366 324 297 450 332 302 285 211 180 240 203 178 190 199 188 168 187 197 181 231 235 237 120 221 134 223 133 217 226 226 181 188 177 175 186 154 165 145 137 173 121 174 223 202 207 235 223 215 243 223 238
240 258 309 358 322 399 431 451 311 251 223 252 251 173 172 186 216 177 175 185 192 209 200 233 242 239 126 227 232 231 226 228 185 178 182 173 181 196 154 148 139 162 144 150 196 204 209 213 232 223 218 246 230 268
248 292 373 349 319 400 417 475 308 276 239 248 258 240 191 230 211 194 216 179 176 197 207 211 187 211 220 226 217 229 226 205 198 185 192 178 177 185 165 168 135 179 155 152 192 176 219 218 228 215 217 243 244 254
271 336 360 349 295 413 406 462 459 288 269 261 265 245 173 173 219 187 195 180 167 195 200 201 196 230 224 206 213 197 205 187 226 197 190 183 167 172 165 139 175 167 164 217 158 207 211 230 225 230 237 258 255 271
267 361 360 320 288 415 397 440 538 302 285 226 266 252 229 161 223 175 210 203 185 161 191 205 204 194 210 224 227 230 243 203 215 187 136 196 123 205 155 152 170 161 178 218 156 188 215 232 239 216 237 268 275 269
395 348 338 293 352 404 393 422 565 327 298 231 258 258 241 237 178 176 212 197 191 165 187 192 187 198 198 213 176 190 194 189 196 176 197 180 127 182 141 146 161 162 173 194 217 217 235 228 240 212 233 262 247 262
354 371 318 286 399 396 399 429 547 380 293 264 251 240 237 236 201 175 203 192 178 189 192 179 186 212 199 196 192 194 182 191 200 193 170 138 125 183 131 163 163 148 177 188 168 232 236 225 245 248 252 262 273 332
354 335 301 401 389 378 412 451 447 386 284 269 251 257 242 227 241 244 180 206 166 189 176 189 187 192 197 191 214 206 201 205 205 206 199 127 126 195 129 160 187 143 192 213 223 234 234 230 258 252 247 297 259 391
346 307 278 385 376 373 402 469 437 384 287 263 246 258 244 237 244 236 176 193 210 197 189 184 184 176 198 191 183 203 196 189 120 188 193 135 124 143 148 175 152 157 178 218 234 236 225 227 206 252 257 244 294 379
316 294 370 370 369 374 399 452 411 385 283 266 234 255 250 235 244 233 168 218 202 203 180 200 173 180 182 193 191 206 198 176 136 186 133 162 197 135 153 157 209 218 207 222 230 244 249 255 248 237 291 265 390 365
281 349 355 377 365 370 394 452 395 382 280 253 241 232 252 240 161 245 168 178 189 205 214 179 177 182 193 178 167 187 189 174 176 170 182 160 136 149 172 185 185 199 190 232 235 232 244 250 266 264 246 333 378 363
350 354 356 374 366 367 392 525 390 330 288 255 258 229 238 235 239 241 237 227 210 207 206 202 181 166 182 208 179 126 190 183 127 183 192 161 150 162 212 151 205 223 224 234 251 240 247 241 225 268 259 392 371 365
367 372 383 398 376 372 391 529 388 305 284 260 249 230 232 225 159 231 238 204 165 214 174 172 176 182 167 167 175 172 182 180 205 137 162 202 215 213 155 222 214 231 238 227 234 213 230 258 269 249 360 382 365 364
383 401 398 382 359 372 477 523 394 294 272 261 241 236 238 240 194 236 231 211 154 220 224 180 167 174 179 188 181 173 169 192 135 171 133 159 202 185 201 212 235 229 245 239 256 259 217 231 242 289 392 375 361 358
406 400 381 362 360 381 545 477 337 282 263 258 242 235 240 231 229 234 234 234 209 170 227 210 163 166 170 168 183 196 187 141 157 140 144 210 188 195 201 234 222 240 244 242 232 251 274 237 252 327 383 369 361 352
381 364 345 348 367 541 488 361 314 279 265 254 243 247 232 227 218 226 226 228 197 170 171 168 219 195 161 161 192 195 131 155 190 175 188 219 170 229 230 227 239 245 251 246 259 231 239 245 257 390 375 363 358 344
346 350 346 359 529 500 355 321 300 274 259 253 225 210 228 229 222 220 215 219 225 221 226 224 183 215 173 168 193 138 154 212 209 215 213 158 227 229 228 239 239 244 261 254 215 231 253 283 315 384 366 352 356 338
344 342 361 508 486 407 320 301 281 268 258 252 229 231 241 224 222 222 228 230 224 224 220 219 203 224 143 162 177 151 152 170 181 172 189 231 220 227 239 249 252 247 261 223 234 257 244 278 394 375 360 353 349 341
337 355 460 485 400 328 298 285 274 266 255 242 214 221 221 216 216 221 224 225 222 221 202 208 215 180 137 222 226 221 223 223 146 201 229 225 230 239 252 241 259 254 234 250 253 244 281 370 386 369 355 356 344 369
356 398 514 385 308 296 286 278 271 265 257 246 216 221 223 211 219 222 207 221 225 219 221 224 136 226 221 213 217 225 200 192 230 228 230 233 246 250 241 255 239 234 258 269 251 286 267 395 375 359 346 356 344 394
428 504 372 296 291 280 276 272 268 260 255 229 184 239 227 234 220 223 223 224 213 145 217 217 219 148 219 218 153 144 220 225 231 244 238 244 243 236 237 248 242 263 235 264 258 276 413 385 366 357 359 344 392 381

GFSWCAN_2pvu_pres_081.txt.gz
Presure
206 220 224 274 267 260 267 205 236 263 231 238 242 231 236 170 190 195 186 217 220 223 226 143 150 214 167 181 206 140 194 150 144 145 150 186 192 184 178 126 174 173 166 92 175 145 139 155 175 161 218 121 174 204
182 199 198 233 244 264 260 184 198 203 227 234 249 243 232 168 197 198 218 191 213 223 222 217 163 220 174 157 151 138 206 202 200 172 190 162 144 188 153 184 191 162 163 187 161 154 176 211 136 143 136 143 208 204
200 184 207 213 224 253 266 238 247 249 220 161 247 213 229 201 197 178 225 222 223 213 170 186 138 142 156 191 144 135 132 186 191 195 191 148 174 187 189 160 148 183 175 168 133 147 176 143 126 136 201 232 136 190
196 204 207 215 227 218 277 278 243 217 250 234 149 218 242 225 221 229 205 221 225 170 211 193 186 141 220 123 188 142 140 201 199 199 187 193 186 178 179 169 191 154 161 147 151 184 131 126 169 158 149 215 218 186
207 206 201 213 236 240 261 294 271 132 198 238 209 244 216 189 198 227 204 213 215 197 135 216 222 222 148 224 160 142 139 204 200 199 192 187 189 158 186 149 180 168 174 177 187 145 149 166 145 140 145 203 209 197
193 214 226 232 218 237 230 308 285 257 275 234 197 178 236 184 195 230 209 207 216 221 224 217 213 221 198 225 143 142 145 141 230 201 196 183 188 188 161 182 178 170 166 182 203 142 135 152 152 95 164 132 210 194
200 214 216 235 210 239 237 347 309 295 154 252 257 122 189 216 227 203 215 190 237 220 218 221 232 221 221 196 148 154 221 226 169 170 197 190 151 183 183 189 193 179 180 181 171 167 149 185 172 198 175 212 208 203
193 214 216 212 229 227 234 263 474 309 265 143 219 220 202 231 197 176 218 222 210 175 224 206 227 224 213 141 182 217 170 223 227 140 199 163 130 168 184 187 185 177 199 171 166 140 173 150 171 191 203 208 220 223
211 203 212 221 210 225 241 251 325 637 270 282 198 213 122 163 159 191 183 195 213 203 214 223 224 212 137 162 223 217 218 165 224 154 134 152 153 179 180 184 182 182 181 121 170 144 156 169 193 191 220 205 222 218
219 217 187 209 218 216 238 252 352 457 343 278 258 246 252 195 230 182 205 219 215 209 151 211 213 220 220 141 215 206 211 218 221 228 223 189 184 186 192 196 183 184 175 191 175 147 137 186 160 202 212 224 224 222
197 223 221 217 219 226 229 250 364 313 444 307 286 152 239 178 160 167 213 207 226 195 208 211 221 222 227 215 169 130 179 226 214 229 209 201 184 180 189 195 188 200 161 205 169 169 140 153 173 204 206 202 235 211
219 212 206 222 228 223 230 242 314 338 294 356 300 248 213 242 199 211 170 178 222 179 177 198 222 209 189 219 184 224 225 157 219 224 221 225 185 182 190 198 177 192 145 150 150 141 168 168 172 166 225 233 235 237
214 186 195 205 215 231 228 243 246 346 294 522 323 285 216 174 230 245 175 220 189 190 180 196 201 211 210 213 210 134 217 222 221 224 185 220 192 192 190 209 171 180 133 124 151 146 193 166 190 158 206 219 216 225
229 228 217 180 223 218 239 216 229 348 315 589 342 286 274 245 161 246 228 160 176 190 185 174 179 196 202 225 229 232 151 220 223 230 232 190 190 199 205 228 192 177 132 183 150 153 165 169 167 194 220 229 219 223
211 226 233 200 218 237 226 229 244 347 318 490 501 317 296 243 236 249 186 169 223 186 175 193 199 193 181 209 205 199 226 225 224 211 221 223 192 218 218 187 196 173 156 175 169 192 188 165 207 214 214 230 242 228
185 227 220 224 239 218 236 223 228 340 314 297 569 326 296 257 227 192 211 205 207 191 178 179 187 196 193 177 203 199 215 216 217 226 187 207 219 222 194 198 153 179 137 142 158 191 187 159 174 195 228 226 250 243
194 223 221 250 232 228 233 243 364 339 306 317 538 504 296 272 240 238 171 230 171 182 170 176 211 192 194 172 168 201 197 203 202 217 205 182 220 179 199 129 172 212 156 158 170 156 201 166 179 208 237 227 248 233
188 243 191 235 221 221 234 251 468 331 314 421 415 617 301 283 244 248 236 238 180 167 223 204 177 186 173 189 193 203 207 189 202 202 171 209 196 198 200 129 127 158 170 153 156 216 169 171 226 240 233 250 253 235
208 193 237 244 254 243 229 250 390 320 432 417 399 536 401 284 267 245 245 232 230 169 161 211 168 172 173 187 192 190 202 188 219 213 194 195 190 177 205 146 152 173 186 190 156 168 169 176 223 243 218 251 251 259
235 224 242 220 226 250 255 258 450 316 418 404 394 463 472 295 278 264 254 232 227 221 176 205 175 174 202 183 189 198 188 195 219 206 197 188 198 195 189 222 161 185 196 150 154 178 185 173 236 237 227 271 255 269
233 224 242 242 240 239 261 356 327 294 393 396 398 445 479 302 285 264 259 250 234 220 217 206 167 186 176 191 176 199 182 212 197 195 196 200 191 191 195 173 134 166 174 154 158 170 201 230 258 244 253 269 266 258
219 229 252 228 259 266 275 425 312 358 390 391 400 489 458 306 279 258 259 261 244 183 222 195 172 171 179 191 192 192 194 202 170 186 197 128 170 176 181 139 167 194 149 157 175 209 183 228 251 261 250 262 275 251
207 230 240 253 269 277 355 320 290 394 379 381 428 450 400 313 274 266 258 244 251 239 223 223 207 201 189 173 180 188 203 201 183 181 178 200 195 134 191 135 144 198 181 185 170 208 234 238 248 257 255 229 244 263
233 251 261 273 308 358 334 288 318 381 386 373 439 513 363 320 288 270 253 242 255 249 244 202 231 236 217 180 178 169 200 194 216 198 185 173 176 182 169 139 171 201 175 178 213 191 246 246 258 246 262 257 249 293
259 268 277 352 358 318 301 370 359 367 385 359 425 398 335 298 290 275 262 243 252 252 237 220 225 236 231 160 229 167 200 202 204 166 178 132 176 182 134 150 162 167 172 214 179 250 242 260 253 274 253 240 263 340
283 318 390 362 315 382 368 354 353 379 389 359 407 380 321 298 292 265 261 245 247 251 239 228 234 233 210 205 227 160 162 209 178 161 155 137 186 191 164 200 151 184 216 239 233 239 249 257 260 250 245 250 274 393
353 387 399 338 377 372 375 379 365 386 397 359 399 366 317 299 293 266 254 244 244 243 246 224 227 232 230 223 223 197 168 179 188 164 162 190 180 206 220 158 192 224 224 218 249 247 259 258 249 249 239 286 345 388
449 432 409 439 411 396 395 368 388 399 368 360 394 366 319 304 286 263 250 242 236 241 243 228 228 162 226 226 226 228 217 162 165 217 195 159 136 232 145 193 229 222 177 243 244 255 255 222 254 238 259 290 403 376
475 467 444 425 401 396 371 391 397 358 350 359 427 378 306 291 277 265 254 239 227 232 235 224 185 233 226 228 230 228 228 191 171 164 182 138 219 201 195 233 239 239 239 239 260 243 248 266 248 243 291 342 389 375
455 430 410 391 382 385 392 372 345 343 356 498 548 318 300 284 273 262 252 243 226 222 224 232 225 229 195 237 240 228 227 157 208 224 142 227 226 182 240 215 230 239 240 251 235 252 262 253 247 259 299 405 378 369
396 387 383 376 364 353 353 339 340 358 525 457 383 307 290 280 270 257 243 238 230 226 224 226 217 235 232 224 191 163 203 226 182 160 226 173 153 234 231 232 237 236 241 238 258 226 244 241 251 305 380 385 378 356
368 362 354 347 342 342 325 340 373 472 428 373 313 297 282 271 262 256 247 238 228 228 228 232 231 216 222 135 232 228 147 194 227 228 145 204 230 232 230 229 229 242 241 263 273 275 245 249 270 297 399 383 363 410
359 345 339 326 323 336 352 503 434 409 391 312 294 285 274 267 258 254 250 237 231 228 234 228 222 226 228 224 166 224 225 225 159 152 230 230 226 216 232 231 249 241 254 269 258 254 250 258 299 405 385 373 394 421

GFSWCAN_2pvu_pres_084.txt.gz
Presure
191 175 195 184 205 205 230 247 227 237 223 232 201 224 197 185 179 197 209 214 229 216 218 160 193 205 135 136 174 201 147 176 158 203 194 186 189 154 157 160 173 164 177 175 173 170 167 147 158 135 173 135 148 144
191 195 205 193 202 211 212 237 274 138 244 232 222 184 172 208 166 190 202 194 222 227 220 220 216 215 155 202 150 194 134 178 139 157 178 195 192 151 189 187 186 141 167 119 162 193 185 159 174 168 153 191 144 189
168 192 168 189 199 213 214 202 255 296 149 217 218 233 169 218 219 201 207 206 193 211 222 230 170 215 198 140 194 163 213 139 177 191 194 192 194 194 184 188 165 188 139 171 191 186 160 186 158 124 184 136 191 203
173 174 190 205 198 200 212 213 234 264 304 225 208 202 194 170 218 185 198 193 217 209 221 222 220 225 140 146 176 201 203 135 177 176 179 178 189 189 190 161 140 182 178 180 186 186 175 149 138 140 163 132 182 186
186 206 169 190 186 197 205 216 231 241 331 287 181 222 222 186 195 204 197 222 190 159 205 222 219 220 227 209 160 135 143 201 140 186 183 183 150 172 137 194 193 189 198 186 189 164 171 141 149 130 144 198 177 184
149 173 172 182 177 185 203 216 222 231 576 310 211 247 227 243 225 206 212 214 201 209 210 220 227 215 140 221 223 223 198 134 170 217 214 193 190 201 147 197 190 197 185 202 160 159 181 152 159 157 152 205 134 195
174 175 178 165 218 219 183 220 207 230 241 549 309 273 240 220 166 226 191 197 217 212 208 208 220 229 231 226 166 162 222 214 169 223 219 228 146 205 140 188 188 194 185 187 198 175 187 144 135 156 125 178 154 184
186 150 176 181 184 196 203 227 211 216 230 238 378 309 277 241 169 172 196 206 214 224 222 216 219 221 216 229 226 179 184 163 220 221 175 221 221 181 188 187 192 196 196 183 164 197 172 150 141 166 190 147 169 176
177 177 222 195 181 199 199 199 216 226 222 242 238 434 303 257 267 158 165 185 173 166 209 206 195 209 142 176 227 221 202 140 204 137 208 221 232 231 209 189 189 194 198 198 183 163 177 135 140 168 164 169 157 188
199 164 213 197 172 206 196 219 213 206 230 229 239 344 454 302 282 253 244 162 179 160 224 185 212 216 219 183 222 217 228 210 127 214 228 228 215 222 220 232 191 191 192 198 206 175 173 147 175 132 136 165 161 188
192 212 173 198 224 206 207 182 217 212 220 227 243 241 551 403 295 285 206 225 183 182 211 214 220 224 216 125 170 215 227 229 218 223 222 226 211 223 229 227 209 197 193 185 218 134 195 141 171 168 163 162 162 208
200 190 205 174 200 233 206 202 217 241 210 216 234 248 345 420 349 296 208 195 190 175 234 155 191 208 229 206 216 230 219 215 223 223 217 229 222 180 223 224 180 196 201 207 206 138 123 155 158 203 167 176 163 203
196 167 163 185 168 237 196 217 239 208 220 217 225 247 363 302 368 317 279 247 156 229 218 176 162 218 184 190 217 214 218 209 213 224 232 225 221 221 211 223 219 214 206 202 171 136 202 147 156 169 164 162 169 176
209 192 218 220 181 199 201 198 216 211 245 211 244 242 246 333 385 363 285 274 251 158 237 178 169 160 193 224 181 209 141 222 215 231 235 218 228 224 221 225 222 191 219 218 180 130 125 209 164 196 160 162 175 175
198 196 185 237 161 204 184 218 213 234 218 233 214 230 241 287 309 407 306 278 253 252 248 240 197 176 193 174 174 199 212 214 211 231 200 225 224 218 214 217 204 196 213 130 199 131 173 150 157 214 201 161 205 205
200 197 234 177 202 210 220 183 231 230 209 205 219 215 205 252 354 283 366 293 281 250 232 212 187 250 192 193 184 183 196 192 186 218 216 204 205 209 208 209 213 186 207 185 165 125 126 210 154 195 199 166 179 215
205 214 250 187 196 233 246 203 237 229 225 227 219 230 273 291 422 291 413 310 289 269 247 239 162 245 183 170 172 184 205 199 200 189 208 203 168 206 206 207 211 211 180 201 190 126 191 171 164 207 213 173 198 207
218 230 203 248 189 228 248 192 235 216 208 218 237 268 236 328 373 443 534 351 298 281 261 244 243 175 176 212 180 169 195 178 166 195 185 201 199 205 190 201 219 219 197 214 145 183 164 157 202 178 206 181 208 233
218 215 226 180 223 219 243 242 224 219 229 216 220 248 258 338 342 410 574 387 310 286 270 252 247 244 212 188 178 195 168 185 200 181 196 173 198 193 208 182 124 206 190 192 145 171 187 212 213 181 186 222 225 249
216 230 196 221 233 255 199 244 224 231 217 231 240 255 327 444 310 409 438 413 336 295 283 263 240 239 237 226 179 172 171 202 184 186 182 165 186 196 193 183 149 176 175 187 144 165 159 199 209 187 177 201 203 252
227 197 228 240 252 225 192 230 226 235 212 226 245 269 431 321 307 303 412 475 357 303 279 270 252 242 240 237 169 174 223 220 225 219 189 201 204 193 205 193 194 151 155 147 157 206 190 167 189 175 235 221 263 237
221 210 226 233 218 210 232 229 237 218 214 230 244 307 420 383 297 400 390 447 388 331 281 271 260 244 241 233 235 223 208 220 190 181 169 188 190 197 198 196 202 215 178 138 165 179 215 210 181 196 197 252 252 229
197 192 237 246 250 214 247 246 240 209 222 232 251 347 334 356 329 387 412 431 422 349 287 274 270 249 241 242 235 226 227 208 222 226 198 170 206 201 165 195 202 204 173 205 172 175 213 165 193 220 244 246 228 261
225 231 226 234 183 241 247 212 224 219 224 239 335 337 319 357 397 376 396 461 546 347 318 279 273 258 237 242 237 231 225 222 216 218 174 218 218 198 187 156 202 177 187 161 185 205 196 189 218 245 252 249 255 275
216 218 237 244 252 221 231 233 240 267 329 353 341 359 377 367 391 373 393 549 400 345 325 291 272 265 250 237 242 232 225 226 223 215 197 165 224 234 159 226 232 179 166 205 163 221 160 241 245 247 238 218 262 259
207 217 243 269 258 239 231 248 278 303 353 349 336 352 350 367 387 364 419 448 361 336 322 294 269 259 258 251 241 230 223 226 225 219 215 199 170 232 192 228 142 160 173 151 229 179 238 230 248 241 230 259 247 278
266 288 280 265 238 251 270 270 316 350 344 353 360 354 382 377 400 335 408 354 341 325 312 292 273 258 256 248 248 238 233 225 224 225 224 217 217 219 176 191 142 190 155 225 220 215 236 247 245 222 236 264 280 256
273 277 273 271 280 276 285 354 355 355 324 370 368 361 369 388 400 331 399 343 336 320 302 283 275 272 252 246 241 245 243 236 231 228 162 222 225 164 228 145 162 152 233 227 227 243 246 240 211 246 254 271 282 252
281 285 287 298 294 309 365 360 346 320 446 423 408 403 396 396 410 327 394 343 331 321 296 278 271 262 252 245 236 238 240 243 229 224 224 218 224 228 192 209 230 231 229 236 242 242 239 225 234 254 255 267 250 272
281 299 302 309 326 361 343 313 374 439 413 400 396 401 395 345 406 350 396 335 324 314 292 278 267 261 250 245 235 235 233 237 240 235 209 221 236 218 235 229 197 231 237 237 235 238 229 244 252 259 268 261 256 300
313 321 351 364 355 321 396 439 417 399 391 389 379 377 376 398 370 377 389 330 315 306 289 275 270 263 254 248 242 235 233 235 240 235 234 229 231 223 228 151 236 237 234 234 231 237 238 246 250 266 262 250 285 289
361 353 302 302 285 432 415 399 391 384 373 371 382 383 387 405 325 393 347 321 309 297 276 272 264 260 253 251 242 234 235 237 236 232 237 182 221 224 223 232 230 227 236 201 237 237 247 253 262 239 251 272 300 408
294 386 429 416 408 396 383 375 372 375 379 369 369 376 369 344 387 464 329 309 297 286 273 265 263 258 252 248 236 231 227 220 222 232 162 218 219 229 229 232 230 231 215 238 233 243 237 253 270 267 262 291 295 402

GFSWCAN_2pvu_pres_087.txt.gz
Presure
168 183 160 164 194 179 185 183 216 242 268 276 236 223 225 206 204 207 206 211 210 203 168 174 205 181 157 179 174 194 177 148 148 158 163 192 197 187 194 190 188 163 194 186 173 196 187 143 111 173 131 187 143 177
187 164 180 159 187 183 166 196 185 211 241 344 269 235 217 183 177 184 182 188 204 221 209 211 206 202 134 210 192 189 194 181 142 152 148 144 189 194 198 192 189 134 153 186 192 134 186 169 182 153 155 209 183 138
170 165 154 192 192 173 173 161 198 194 227 244 343 267 236 240 149 178 190 207 202 200 212 217 226 215 211 179 207 136 162 195 135 143 170 154 197 154 196 197 193 194 185 201 194 190 188 170 178 156 137 124 136 154
181 168 163 171 167 199 193 200 188 201 185 230 243 250 254 245 211 153 195 210 205 209 212 214 219 213 188 226 220 213 186 141 200 148 195 197 189 169 197 163 193 185 194 173 176 193 181 189 148 164 175 159 161 151
176 171 194 184 160 167 178 175 177 213 214 208 227 244 304 175 246 244 224 153 210 214 217 206 221 192 220 217 138 226 225 212 136 198 199 161 180 192 134 152 126 195 196 199 203 185 184 169 184 148 169 134 158 143
194 144 179 173 172 173 175 181 172 199 224 185 215 215 241 329 234 155 254 219 192 153 211 206 207 213 223 228 219 217 225 225 208 141 224 229 136 221 195 204 204 191 196 194 194 205 172 165 197 185 143 172 171 170
187 183 196 181 181 169 162 174 170 182 197 205 223 227 238 267 319 293 174 248 224 175 178 211 212 212 208 220 230 228 224 219 223 135 221 202 218 221 218 222 140 223 168 186 185 197 202 198 206 163 218 152 158 159
181 197 185 175 174 170 161 170 179 189 188 229 192 203 225 237 307 288 291 147 249 172 224 160 159 225 222 220 214 218 211 234 167 217 133 179 224 191 228 225 132 212 226 231 190 193 146 192 198 208 143 124 194 167
177 212 170 178 164 201 205 188 180 203 196 195 221 202 203 226 243 302 344 300 257 243 187 175 175 209 209 201 214 222 174 216 224 219 129 215 217 212 230 217 220 201 228 228 215 181 195 135 141 189 146 132 162 161
155 187 196 168 207 189 150 177 203 183 216 185 205 211 209 210 237 233 250 294 315 265 234 156 223 164 206 174 216 210 205 220 212 213 227 221 226 208 224 185 221 184 226 227 221 219 243 200 201 139 219 222 215 187
173 184 180 210 170 175 205 194 162 174 184 176 224 236 218 194 231 217 245 254 433 333 269 245 241 225 212 169 177 170 224 179 213 220 217 226 222 224 190 237 223 223 221 227 223 221 216 167 187 134 197 145 140 195
179 186 146 197 183 170 183 214 183 183 172 173 218 215 204 201 191 238 229 249 394 402 321 271 240 244 195 231 204 178 160 184 216 214 225 215 219 216 223 230 221 218 225 226 219 224 227 221 211 205 141 140 174 177
174 184 171 185 160 188 153 211 204 192 222 191 180 217 182 220 207 222 235 239 286 425 377 319 277 211 250 167 170 228 160 172 200 225 217 213 222 216 226 235 212 221 228 224 219 219 215 154 215 177 123 138 147 167
185 170 187 169 168 189 218 217 196 181 176 212 205 193 186 221 207 232 243 225 253 315 402 350 310 277 252 237 154 227 200 222 171 172 200 212 218 222 229 227 204 208 212 207 195 208 211 215 210 123 203 147 137 210
191 176 181 177 166 195 184 213 216 211 178 184 179 200 193 219 227 201 247 237 247 454 359 265 349 309 280 255 241 191 189 214 197 183 169 185 210 214 207 200 234 211 211 209 217 217 209 200 209 221 168 135 222 168
192 189 190 191 188 206 188 203 235 208 193 205 217 189 199 214 240 235 233 245 243 333 546 373 253 335 302 285 252 242 225 222 216 201 174 158 188 160 186 199 197 197 207 209 210 209 191 207 182 181 168 200 212 162
194 183 185 189 202 212 229 210 208 218 213 179 220 234 184 237 246 206 224 223 255 256 356 505 274 249 323 292 276 266 254 234 228 179 206 194 183 162 169 202 195 172 202 184 197 186 167 174 142 148 173 154 206 214
201 198 193 198 213 133 201 239 217 209 198 213 213 195 229 204 233 213 234 191 243 261 468 398 468 294 335 301 282 261 248 244 244 235 218 228 196 186 191 209 163 194 174 179 200 198 123 202 202 157 150 172 165 162
192 189 209 213 202 184 230 217 225 181 208 202 196 188 237 254 211 239 253 248 237 326 490 351 283 449 355 309 286 272 257 242 229 245 240 207 224 216 177 168 191 194 213 178 186 191 146 188 166 178 135 207 174 187
181 193 194 213 136 216 209 220 234 212 183 222 212 198 226 243 231 250 248 224 258 288 425 439 277 446 399 329 295 277 268 255 244 243 243 238 234 232 227 179 177 184 204 213 189 191 187 194 216 171 203 161 230 223
195 191 219 196 210 205 212 234 234 194 209 189 196 220 232 237 237 243 212 264 268 270 425 453 287 461 425 362 315 284 271 263 249 238 242 240 235 225 224 222 224 224 227 220 165 178 222 221 225 145 173 227 168 232
189 205 230 176 213 212 226 214 220 195 228 201 204 217 221 233 201 242 237 250 277 284 398 413 427 396 439 404 328 301 276 263 256 240 226 238 235 233 229 226 225 197 219 220 229 183 223 179 180 211 185 237 229 194
215 192 224 197 209 224 239 225 213 213 197 189 201 211 252 222 241 255 289 265 283 288 396 421 410 401 438 407 350 309 288 269 260 246 236 225 228 225 229 230 196 164 211 226 219 198 153 222 153 168 237 228 230 236
183 220 224 217 222 235 226 187 189 203 186 216 214 235 238 190 244 283 286 268 261 287 307 362 381 424 377 431 384 321 293 276 265 251 243 234 228 216 196 225 227 225 224 229 226 222 208 178 168 227 233 222 244 244
240 240 232 233 236 220 206 190 204 186 216 225 221 231 239 251 245 274 278 272 277 290 326 407 307 425 374 509 391 337 303 278 267 259 251 239 231 222 194 230 226 226 224 221 223 193 203 152 167 219 237 243 239 245
242 239 238 225 201 201 196 193 188 217 227 241 249 262 258 247 225 280 267 267 288 298 391 388 420 377 514 450 379 356 307 288 273 258 256 245 235 228 225 229 228 224 197 230 229 136 160 223 199 224 238 237 245 238
227 194 133 197 208 206 189 211 217 217 237 254 258 267 252 280 282 272 273 275 279 337 354 370 401 356 435 404 358 347 308 287 272 259 252 250 240 229 221 221 228 159 223 223 148 220 199 149 224 234 238 246 237 248
236 233 230 231 229 239 241 233 265 264 275 279 249 260 280 277 275 272 267 293 321 333 320 304 385 421 403 368 347 341 308 282 270 259 252 249 246 238 228 228 162 227 200 217 233 221 233 226 233 236 236 239 220 254
284 245 243 273 235 226 233 239 287 275 273 278 279 275 275 280 280 291 310 344 357 311 289 388 364 416 377 359 341 328 311 282 269 259 248 247 244 238 234 235 233 235 237 227 246 237 241 237 232 231 245 216 249 253
234 234 232 238 250 273 283 285 280 278 277 272 275 282 288 293 309 337 360 352 329 403 379 391 362 406 366 352 333 316 303 279 267 261 253 246 246 244 239 235 237 240 213 233 232 250 238 227 234 241 248 251 249 248
263 276 283 282 284 283 282 256 267 271 280 284 286 296 310 341 389 345 295 390 414 405 373 387 383 397 352 336 324 308 291 275 263 257 249 240 241 242 239 237 239 235 231 233 248 229 226 232 238 248 244 245 256 261
282 285 284 279 276 279 270 272 280 282 289 300 319 338 340 303 301 438 425 413 406 379 399 353 391 361 337 331 319 298 280 267 264 256 252 255 248 243 240 231 227 233 222 238 232 228 227 233 241 245 249 252 260 275
197 282 280 277 269 276 282 288 295 310 319 367 331 322 322 430 424 417 401 397 380 391 379 342 393 343 331 325 296 280 267 261 252 255 252 245 242 239 236 236 224 235 224 225 222 228 230 238 250 249 246 261 271 250

GFSWCAN_2pvu_pres_090.txt.gz
Presure
186 169 163 180 166 182 163 180 197 164 191 201 213 226 282 266 173 237 224 209 213 209 203 209 202 131 188 139 194 186 180 208 168 181 151 187 196 168 200 198 194 193 195 188 187 190 178 175 171 173 180 150 150 181
178 186 172 177 164 160 174 178 193 173 161 193 189 167 234 303 268 168 239 229 157 209 216 221 223 211 204 198 202 133 134 146 189 145 155 185 195 202 193 192 193 193 193 196 189 208 119 191 185 187 187 193 161 165
188 164 174 152 158 191 163 171 160 194 175 162 199 188 227 235 292 283 265 167 158 233 208 205 211 217 234 219 158 147 204 203 200 145 201 197 188 198 200 204 204 196 132 204 202 207 207 188 178 186 168 180 200 157
154 190 175 189 163 173 198 168 180 163 191 172 174 184 202 226 219 310 284 266 251 154 201 216 223 227 217 221 216 216 197 193 153 218 172 203 200 194 200 198 172 203 201 152 200 203 203 202 207 172 206 180 146 194
162 173 183 191 165 162 178 168 164 165 204 175 173 181 184 196 227 251 298 290 270 254 234 222 215 201 178 221 219 155 178 220 212 197 215 180 225 142 229 228 224 222 202 222 170 203 199 197 198 202 195 183 202 199
180 159 155 179 179 195 155 175 186 162 174 173 182 186 177 188 180 195 229 256 293 277 181 239 221 228 222 154 214 220 220 227 209 204 134 224 223 221 174 222 222 227 179 227 224 203 231 230 211 106 210 192 224 215
176 178 162 180 185 175 171 200 178 161 159 188 173 173 166 176 186 186 224 231 254 244 287 263 250 233 223 189 159 207 169 158 226 234 246 218 219 203 225 225 168 220 134 159 231 226 227 228 213 225 219 118 215 173
151 178 185 177 178 179 200 191 173 189 198 165 170 176 175 164 188 190 192 201 206 245 257 302 276 158 247 229 180 223 181 219 212 215 217 212 216 220 221 219 213 192 176 222 223 224 224 227 231 223 208 177 208 224
187 181 183 179 171 157 179 189 172 206 191 183 155 191 185 200 185 176 185 193 199 201 242 198 318 293 272 262 246 213 220 201 192 206 203 142 213 212 175 213 220 223 232 221 222 223 224 223 220 225 229 151 226 220
188 175 182 172 198 195 186 170 178 167 173 209 188 166 174 201 201 188 188 205 190 217 216 231 235 293 320 288 265 254 237 217 225 218 169 177 214 223 215 218 211 226 220 214 228 223 220 222 231 221 220 203 130 201
154 179 182 181 183 169 187 177 192 182 190 168 188 181 193 194 179 193 216 192 198 189 188 205 250 352 329 358 303 271 255 243 229 216 213 222 216 127 207 212 203 224 221 224 219 224 223 213 221 221 205 211 215 224
158 178 173 200 184 165 193 182 184 189 185 178 178 203 220 192 192 187 180 192 189 186 195 213 205 268 252 322 388 315 272 257 243 229 225 198 219 214 223 164 189 228 189 195 218 220 224 214 214 210 208 208 190 174
182 179 153 194 178 179 190 184 167 193 166 200 203 173 184 197 199 211 186 202 250 203 199 206 220 268 486 370 329 373 322 273 258 214 231 230 171 187 160 164 186 207 160 204 220 220 209 193 184 216 211 207 205 210
154 175 181 152 180 185 191 184 183 167 195 173 191 202 202 181 200 196 214 191 195 224 196 222 224 217 218 484 365 406 358 317 268 253 230 238 231 226 158 162 219 182 161 179 170 161 204 207 184 190 197 195 163 203
180 159 182 180 161 183 180 181 169 183 168 201 187 196 198 193 203 199 199 230 191 218 222 211 199 216 261 357 488 444 368 353 311 266 250 224 231 235 232 228 228 215 205 204 196 165 185 192 171 194 202 202 180 167
179 186 134 171 177 192 201 200 173 190 181 195 186 195 205 199 184 205 187 213 207 190 228 216 261 235 220 279 535 493 418 282 340 305 271 256 235 224 231 229 202 224 183 193 190 186 193 172 191 181 192 198 132 210
181 177 133 189 179 173 193 192 189 167 197 179 192 180 210 215 202 207 228 214 220 214 239 225 240 231 229 280 282 528 435 294 255 331 301 276 256 237 228 231 229 221 188 216 211 165 216 209 167 211 215 231 179 220
163 184 161 169 176 164 185 195 178 186 171 190 178 182 209 200 184 221 221 234 193 197 214 237 243 240 230 275 272 316 492 369 408 259 326 296 278 266 249 232 220 232 229 223 226 225 225 225 226 226 229 222 167 191
183 195 156 193 202 182 185 195 203 184 205 189 192 196 207 207 184 222 223 203 192 232 213 240 234 233 197 240 288 290 426 383 415 388 308 314 287 275 268 260 250 244 241 233 233 234 226 201 225 230 189 171 160 229
183 151 195 202 197 188 191 182 196 191 196 179 191 200 207 193 210 188 183 207 203 217 246 242 240 228 246 252 278 289 307 467 280 421 371 329 299 279 269 261 248 233 234 230 230 233 234 179 222 173 221 215 155 228
191 189 215 216 198 216 197 184 185 161 199 196 187 168 198 157 199 201 225 198 190 209 209 216 239 255 251 257 280 291 293 436 323 271 397 350 313 289 273 264 257 248 239 237 234 231 231 161 171 234 231 233 153 232
185 192 195 220 204 197 196 203 186 199 191 146 190 199 199 215 207 223 245 208 200 228 240 241 230 251 255 267 276 267 288 319 349 413 419 374 333 302 279 266 258 249 246 239 233 229 230 228 228 225 225 204 231 233
219 213 200 207 190 190 214 212 159 175 184 202 200 199 206 204 218 233 211 215 212 205 219 242 237 252 259 272 280 275 276 305 420 330 437 404 353 317 289 269 253 248 247 241 234 232 227 220 198 214 205 225 207 196
241 208 198 220 229 198 216 219 200 195 187 147 205 200 207 224 233 214 213 227 228 202 242 233 259 248 253 273 282 280 271 301 344 438 375 427 388 329 302 278 252 251 246 240 236 232 232 229 228 191 177 226 218 167
249 248 177 163 165 169 159 200 202 212 214 185 175 211 220 221 235 209 196 194 200 246 205 226 233 263 258 279 279 286 276 311 402 375 441 340 400 343 309 288 265 253 248 243 238 233 232 230 229 230 221 224 207 233
229 221 245 225 240 223 185 214 199 196 209 213 224 214 222 224 229 249 213 199 191 222 228 235 234 274 270 273 284 275 292 361 407 485 446 418 380 359 311 290 271 256 248 245 240 236 234 232 194 231 227 211 216 228
224 178 152 204 211 190 224 227 201 218 215 208 218 217 228 248 256 223 236 233 223 224 243 270 271 271 274 281 285 296 410 344 447 426 403 383 353 343 302 287 274 262 253 248 244 241 239 240 239 234 234 202 227 220
172 259 268 259 219 198 214 203 213 200 197 197 216 203 250 238 253 225 237 236 230 247 247 275 272 271 276 287 285 319 344 318 423 408 384 353 335 327 297 283 274 265 255 245 241 240 239 242 244 238 231 227 235 242
266 263 243 253 245 233 235 236 221 227 240 221 231 247 225 220 227 240 240 247 274 287 271 278 275 277 286 283 311 337 325 360 411 396 358 333 327 312 292 282 269 263 254 246 239 238 240 241 239 240 234 235 240 246
227 265 251 234 241 245 248 243 232 225 231 226 219 216 241 234 238 241 247 251 271 277 283 279 282 285 290 313 335 301 326 393 399 373 345 325 321 302 286 277 266 259 251 243 245 240 240 243 242 240 237 240 233 246
265 266 256 258 254 247 246 242 239 223 212 254 270 279 242 254 192 239 273 282 284 283 284 289 293 300 319 317 288 375 389 394 379 361 335 319 313 289 278 268 259 257 247 248 241 243 241 240 236 240 207 239 244 237
306 298 245 296 288 233 254 254 248 280 234 243 267 286 292 295 288 278 285 291 293 294 294 304 329 344 312 434 412 394 392 383 362 349 322 310 303 282 272 266 261 254 255 249 237 240 236 238 244 227 241 224 249 234
301 296 303 278 296 292 290 289 292 295 295 296 293 288 286 286 228 252 298 290 299 309 335 321 358 442 425 407 397 394 384 375 348 323 309 301 299 285 272 262 255 250 245 244 239 245 250 247 243 232 249 249 257 252

GFSWCAN_2pvu_pres_093.txt.gz
Presure
154 175 177 175 182 182 169 171 158 183 163 186 173 179 202 191 216 217 298 283 208 176 189 208 180 163 222 211 206 197 200 207 201 166 202 202 204 200 198 196 204 175 171 192 207 197 196 180 179 184 183 180 176 191
157 171 176 180 152 181 182 177 166 184 174 188 181 164 184 184 196 210 199 272 290 273 170 165 212 205 199 216 225 228 223 209 163 195 134 185 203 203 200 197 200 200 199 137 200 204 203 201 196 187 207 205 203 199
161 171 185 176 178 160 158 173 170 181 189 190 172 176 169 203 177 204 191 204 205 281 284 271 170 235 230 218 224 178 199 172 156 224 221 230 162 158 215 207 208 213 214 215 221 213 196 207 194 198 254 189 173 164
173 171 164 182 190 171 154 180 169 189 175 176 177 164 185 191 186 183 188 207 189 189 231 227 281 267 251 238 198 206 125 200 224 197 224 170 222 225 203 229 231 194 229 237 182 234 235 233 233 235 226 230 231 185
174 178 170 171 174 165 178 170 181 164 191 165 193 178 180 178 174 182 212 201 190 199 198 202 260 233 278 265 252 237 222 223 199 224 131 226 224 223 221 211 229 229 230 233 201 139 233 236 234 170 230 230 233 203
182 167 181 161 172 177 185 162 173 144 177 197 202 179 154 179 173 180 165 173 185 195 203 220 197 244 216 211 274 264 253 164 162 217 191 232 224 215 234 209 213 221 138 220 211 136 127 220 229 230 227 227 230 226
175 177 178 153 163 183 151 171 189 161 157 191 179 170 193 182 175 173 189 170 196 184 186 203 187 200 196 265 199 264 270 260 247 227 150 218 229 191 203 214 216 220 221 212 215 218 133 128 225 223 219 224 225 224
170 169 151 170 159 181 173 163 181 181 183 173 154 197 189 170 185 165 176 190 181 189 191 193 189 198 205 196 260 217 264 275 262 253 228 204 221 198 202 176 208 213 209 170 133 189 216 223 135 213 221 224 226 207
138 163 145 180 173 162 163 181 177 173 161 179 173 173 170 180 183 183 195 191 170 173 190 176 189 205 199 200 195 196 248 246 292 268 254 243 223 223 221 200 209 169 148 208 211 216 213 153 215 217 214 211 224 209
174 128 162 153 173 175 162 172 170 179 172 183 175 163 180 198 189 180 170 191 199 177 180 179 175 189 190 200 208 222 238 216 366 291 285 260 243 233 226 215 218 212 212 214 209 188 196 177 212 216 213 215 223 198
175 171 173 174 144 161 176 166 166 175 176 185 178 181 188 186 154 184 195 189 190 194 183 197 182 200 201 193 210 220 272 224 388 315 352 288 276 253 241 230 205 133 132 195 216 216 220 169 208 209 182 185 178 184
148 172 170 162 153 169 162 165 180 162 185 179 185 192 193 188 181 182 175 171 196 202 201 190 196 205 189 190 198 205 221 291 458 469 433 381 302 278 254 240 234 225 215 170 169 211 182 209 195 207 176 197 190 199
160 155 180 169 172 160 174 181 190 184 166 192 182 180 187 193 171 171 196 197 177 201 187 203 221 198 178 225 194 194 223 206 264 260 449 413 347 297 278 251 238 231 229 233 233 222 221 172 210 189 212 218 215 209
162 167 182 170 168 171 168 172 183 184 183 168 183 180 186 188 168 183 182 190 182 191 203 186 224 222 184 205 212 199 200 243 240 241 360 456 412 329 299 281 268 252 239 224 229 230 233 226 225 173 214 219 203 205
176 163 160 187 178 153 165 158 181 178 193 187 164 175 182 192 197 183 189 181 184 197 185 190 163 230 199 215 220 230 220 200 209 207 231 488 453 299 265 291 289 280 266 248 237 224 225 227 230 194 197 199 219 222
159 177 186 185 163 133 185 166 166 167 179 189 182 181 193 175 185 183 179 193 183 201 207 200 189 194 195 184 217 196 204 247 258 263 285 294 484 442 324 273 256 293 279 268 251 249 234 228 225 206 224 226 227 225
195 178 189 191 188 182 178 183 147 179 178 176 161 181 180 186 170 181 183 187 183 206 190 189 210 188 198 194 213 207 194 197 247 274 238 283 313 470 358 393 286 264 252 288 276 262 250 184 229 208 206 223 221 217
216 192 194 185 198 180 180 199 187 173 171 147 184 180 183 189 167 183 190 179 198 180 203 188 214 186 191 202 194 201 198 218 196 239 221 292 276 318 456 340 275 311 279 298 286 274 267 255 240 234 228 225 225 231
171 205 205 197 191 192 195 179 191 190 163 178 189 176 187 187 196 176 199 190 200 202 184 178 207 214 212 201 222 193 209 213 214 206 250 280 300 290 380 452 404 378 337 312 296 282 265 260 265 253 243 241 239 239
219 202 179 232 204 186 206 200 192 171 181 187 174 173 169 158 186 191 171 193 205 198 191 187 212 217 208 233 232 234 214 238 215 208 254 280 287 304 351 453 435 399 326 327 304 287 273 264 251 254 254 245 241 233
163 171 176 216 212 224 180 156 196 202 182 197 200 202 190 167 193 189 190 193 203 184 199 215 198 227 230 219 193 193 236 229 223 252 251 263 292 297 337 431 442 414 388 352 314 291 274 263 261 251 250 242 244 242
205 236 234 193 202 212 231 177 196 205 191 200 177 200 146 182 197 124 189 207 167 200 214 209 208 225 224 191 200 210 234 205 190 250 250 270 282 276 305 343 405 433 402 379 329 298 279 272 261 260 249 244 240 240
255 214 242 244 196 235 211 218 204 216 211 174 158 169 194 175 181 138 201 176 190 214 223 205 224 227 227 204 198 232 242 213 192 243 248 285 277 292 299 337 386 320 420 389 345 309 291 276 261 263 251 240 242 239
247 235 235 291 224 230 180 228 223 225 227 191 201 164 202 221 206 165 144 193 214 215 212 220 230 236 212 197 197 237 243 215 199 236 249 257 284 297 315 340 408 285 389 395 362 317 299 279 269 262 250 248 240 242
261 249 236 167 237 257 182 226 235 207 155 218 222 214 149 149 134 213 222 229 240 224 203 242 222 226 199 202 223 246 242 239 258 254 261 282 290 295 315 331 310 499 459 387 355 320 301 287 273 262 250 247 246 242
260 249 242 243 245 245 250 222 246 198 197 217 225 233 224 178 223 216 218 241 241 255 220 220 230 224 207 214 230 233 229 246 256 267 282 284 293 287 317 324 292 437 399 362 350 319 298 287 277 264 257 248 245 239
269 263 267 271 247 242 238 235 238 221 211 160 183 195 162 196 238 254 250 221 251 212 184 229 223 202 229 222 244 240 237 236 247 256 276 284 297 299 327 312 287 381 360 349 333 310 290 280 278 271 258 250 250 246
265 249 233 232 232 241 222 223 103 224 270 264 236 196 167 216 220 229 233 249 247 212 216 241 221 195 215 229 235 244 237 275 281 284 284 297 291 328 313 290 382 366 349 333 320 299 280 276 274 266 259 254 249 242
243 244 247 238 233 229 234 232 167 166 175 268 264 221 179 241 241 241 247 257 260 240 240 237 239 253 242 249 246 241 261 284 293 285 295 293 323 319 348 379 371 352 335 324 307 289 280 271 267 266 262 253 249 238
270 267 257 234 258 259 203 251 232 240 254 237 257 266 233 241 236 266 268 260 245 249 230 253 262 241 257 238 246 286 297 278 288 296 292 323 315 289 393 363 354 340 327 316 296 280 278 272 266 265 258 250 248 247
263 256 264 203 200 180 248 251 256 273 249 230 235 237 244 264 268 267 265 259 202 258 264 258 259 248 245 289 294 291 289 303 291 315 323 313 295 398 375 356 338 323 322 304 286 281 276 270 264 258 249 249 251 254
177 267 263 246 260 211 176 268 274 277 271 272 210 226 232 240 251 262 265 270 269 266 259 258 238 294 292 293 292 293 296 278 328 321 442 411 397 374 364 341 328 319 312 290 283 277 270 264 261 251 255 251 246 247
255 267 266 241 218 169 188 256 257 266 244 234 228 231 229 262 262 249 264 295 281 302 306 176 295 292 292 291 297 283 329 363 354 431 403 397 368 358 343 327 315 309 297 282 276 267 264 259 263 253 246 250 251 251

GFSWCAN_2pvu_pres_096.txt.gz
Presure
168 159 165 144 167 176 174 169 167 177 171 173 189 172 168 167 202 181 197 185 222 209 223 234 279 208 124 119 125 230 206 205 221 221 225 205 233 234 230 222 223 216 204 184 216 219 214 164 196 164 199 201 219 205
174 149 163 151 164 175 167 160 174 172 188 164 176 184 193 186 162 186 169 192 190 213 204 201 215 125 127 127 163 243 170 233 230 221 190 139 225 221 220 227 231 233 229 240 236 236 192 233 146 235 244 253 252 244
177 158 166 154 176 181 163 171 169 171 177 169 175 163 182 170 198 159 175 191 189 194 200 194 218 195 188 199 225 200 239 183 222 149 214 223 127 131 176 215 222 215 230 230 232 238 238 234 229 234 164 238 228 232
164 158 162 173 173 176 173 183 166 171 171 168 180 164 171 192 184 176 167 187 179 188 185 204 192 212 191 209 216 186 246 175 254 176 134 194 184 228 195 132 143 232 222 165 223 158 198 198 176 140 224 219 233 229
166 168 167 145 169 180 147 177 162 168 155 162 169 178 176 163 181 163 173 191 179 170 184 171 193 191 196 213 205 220 194 210 223 133 243 222 254 247 224 199 197 150 202 188 159 222 229 199 227 230 229 228 225 222
136 172 167 143 149 147 167 179 191 160 183 155 172 161 173 173 174 174 180 158 187 188 165 196 197 191 178 198 191 225 201 209 194 164 231 262 274 264 247 189 228 222 204 137 217 137 216 210 218 131 212 221 220 216
164 168 172 154 186 170 184 169 175 172 180 177 177 183 163 165 177 185 166 190 168 174 181 196 185 196 195 181 203 200 206 191 198 197 201 239 221 295 228 229 158 212 194 210 181 152 208 199 200 148 209 126 203 221
163 174 154 166 166 172 173 165 149 163 185 161 171 177 173 168 167 163 185 182 166 156 168 181 198 204 188 179 177 203 187 209 226 222 215 219 239 367 294 277 262 173 244 232 179 176 203 188 215 219 220 174 222 183
135 172 181 177 163 157 167 181 158 170 173 174 177 175 178 180 178 174 175 187 178 190 167 170 172 204 189 202 178 175 202 197 203 210 224 188 289 213 386 327 280 269 264 246 234 176 229 224 216 208 213 203 216 216
133 163 175 172 154 172 176 160 170 184 182 194 186 151 168 175 173 181 160 180 188 189 179 179 193 185 186 181 181 178 174 215 199 208 196 211 199 223 379 464 321 285 273 264 262 245 192 222 221 219 178 208 216 221
143 179 179 153 158 166 148 172 174 171 172 174 166 172 185 172 174 176 187 184 187 186 197 157 187 194 194 195 181 186 175 200 181 214 200 207 254 200 212 454 453 349 295 288 274 263 255 248 237 169 170 232 223 209
171 157 158 161 137 187 171 165 163 172 154 162 173 168 178 172 180 185 175 182 170 179 183 196 204 170 187 191 189 200 195 180 209 189 196 234 226 239 214 224 451 429 406 358 306 284 273 262 248 248 237 170 233 227
143 187 184 179 173 156 180 175 134 159 179 188 170 181 162 161 177 179 191 174 178 185 184 200 184 180 186 187 191 170 195 198 169 214 188 199 234 202 201 212 204 452 414 379 342 313 293 281 269 262 250 248 238 229
176 183 190 167 181 193 163 146 191 170 186 188 184 182 181 162 160 183 179 178 182 191 191 162 180 194 176 188 190 196 205 197 193 182 201 206 232 235 222 212 261 299 286 420 364 337 315 266 286 276 269 263 252 248
192 147 177 196 160 183 173 142 186 190 172 176 173 177 160 160 175 194 181 166 182 187 190 164 181 188 193 185 182 196 185 193 193 196 206 215 199 222 241 241 244 254 310 285 415 314 323 288 275 262 283 252 261 258
202 197 170 188 193 145 144 172 169 168 160 146 183 167 172 177 161 178 181 191 185 175 163 190 187 194 192 168 189 186 203 180 194 215 209 210 236 202 256 220 249 252 274 347 451 413 364 331 308 287 294 284 276 266
207 168 198 193 193 199 136 204 188 176 179 190 191 176 150 157 179 188 194 152 173 176 156 187 190 178 191 188 187 192 197 192 191 186 216 200 229 194 202 228 244 203 231 296 379 435 409 381 356 331 310 296 287 278
220 225 196 139 194 191 193 175 169 151 219 191 159 140 199 199 189 189 151 160 187 192 195 192 187 186 194 200 193 201 184 184 201 204 221 214 216 220 201 194 245 243 211 290 324 342 431 401 374 349 328 252 296 285
254 222 212 181 178 182 156 185 212 203 187 181 209 205 192 193 187 205 200 182 193 194 189 189 181 194 209 202 196 191 207 199 208 205 217 224 242 225 212 232 218 200 251 283 297 324 449 424 398 362 342 320 307 288
246 263 210 221 218 183 201 200 221 202 206 192 181 153 212 204 205 220 193 195 198 199 187 163 188 200 188 198 198 210 199 205 213 206 209 222 245 219 211 237 224 249 256 273 303 294 318 319 372 391 353 338 317 301
259 246 241 249 242 241 221 224 267 239 209 229 233 209 204 199 221 207 218 192 206 198 188 168 132 209 218 182 190 203 212 229 239 212 216 238 244 231 225 221 253 241 263 286 302 277 320 394 413 385 373 345 327 305
256 250 277 258 261 228 214 240 240 211 228 173 196 206 214 179 153 138 173 217 184 135 201 191 186 221 211 216 195 192 198 218 216 218 222 247 237 227 192 217 240 247 259 293 295 285 327 412 381 381 366 353 328 312
319 330 299 304 298 200 262 254 236 218 230 240 239 196 191 172 199 203 174 198 209 215 140 215 223 208 167 219 225 230 229 218 219 227 235 222 246 209 201 230 253 246 252 300 295 293 331 410 435 402 362 353 330 311
312 292 281 294 290 293 290 286 262 240 108 117 148 252 240 205 167 176 219 224 158 200 214 205 229 215 228 236 213 207 228 226 225 242 245 245 206 193 202 247 247 254 262 302 295 305 433 493 464 396 364 348 332 305
290 301 304 286 294 294 281 249 253 242 233 191 237 231 153 149 231 236 189 200 180 130 153 172 223 224 224 224 225 224 226 224 214 192 239 225 193 191 244 255 242 264 294 299 290 312 460 321 402 383 359 347 325 303
350 368 356 308 288 274 270 175 280 299 273 259 253 228 219 168 206 236 252 230 152 188 213 247 241 240 246 233 231 207 211 214 228 247 245 234 220 223 265 246 269 286 295 299 285 311 410 389 381 365 343 336 309 295
340 349 360 339 298 291 282 274 279 278 266 256 243 192 257 232 230 234 177 182 230 196 157 125 267 247 231 237 222 223 238 238 245 257 269 250 247 264 258 270 284 290 298 287 292 310 395 386 360 340 332 315 293 289
349 372 358 347 302 286 280 282 246 269 268 271 204 185 241 168 167 234 224 231 235 158 139 161 224 260 259 258 217 242 239 235 248 264 256 267 272 260 271 282 289 294 292 287 312 414 391 364 342 322 321 296 288 279
353 369 369 330 314 285 286 272 263 268 261 261 245 219 239 247 246 237 233 239 275 274 223 221 217 259 257 194 259 239 242 256 264 270 261 263 262 285 294 295 293 295 284 306 426 397 378 354 323 320 302 288 279 277
362 361 381 346 329 297 289 278 215 266 266 219 236 277 237 231 218 244 265 196 186 229 239 229 235 197 252 223 234 243 246 255 264 260 266 282 295 301 300 293 294 288 304 398 412 381 367 337 318 307 290 285 277 269
365 363 374 327 300 315 271 260 257 251 246 264 257 257 230 241 266 265 250 244 170 264 243 247 270 236 230 224 231 237 246 263 275 288 305 313 312 295 295 287 294 307 332 418 388 362 347 320 309 299 278 276 278 272
373 378 337 372 314 287 264 255 256 276 272 262 266 269 268 167 171 173 244 267 270 277 281 283 261 284 225 232 238 247 263 295 320 317 315 292 293 299 287 305 307 410 410 394 362 347 330 316 300 286 283 281 268 262
370 354 343 317 341 286 294 292 261 259 259 257 271 261 268 253 235 246 151 279 283 278 261 261 259 243 244 254 266 290 329 318 307 300 301 302 287 301 361 322 404 406 388 359 342 316 316 301 289 286 276 270 263 260

GFSWCAN_2pvu_pres_099.txt.gz
Presure
147 173 162 159 168 165 174 171 170 179 173 173 167 177 159 178 157 185 170 185 174 178 191 198 211 165 130 126 129 126 123 126 210 219 227 212 212 136 147 240 235 227 220 227 233 233 234 245 228 235 236 195 247 250
170 160 171 149 156 163 159 175 171 176 166 164 177 192 156 175 173 187 181 179 178 182 180 156 180 192 203 199 191 125 136 136 202 208 232 213 207 216 141 140 136 242 194 227 239 207 232 161 227 235 228 233 219 231
166 145 165 172 156 165 146 169 156 168 185 174 156 172 189 186 176 158 176 183 161 197 181 171 196 193 154 196 185 202 215 209 193 197 229 237 202 243 131 220 242 255 199 220 156 177 239 221 176 130 202 155 144 235
157 181 145 173 149 148 164 171 162 164 166 177 174 169 164 182 174 173 164 172 193 180 170 188 198 184 183 201 182 191 190 194 213 179 209 208 216 201 242 227 184 201 274 133 238 214 168 167 213 216 200 167 222 173
148 145 170 171 173 152 168 175 174 154 177 176 164 162 181 176 190 175 172 170 177 159 187 156 182 169 184 192 190 181 202 192 194 182 216 216 222 196 227 262 254 197 287 280 250 191 217 145 220 201 213 184 215 215
159 159 179 160 165 160 148 182 161 170 169 175 172 179 163 162 169 177 194 190 184 159 184 183 174 156 157 190 192 182 199 177 200 178 189 198 188 212 180 217 157 203 356 303 285 132 215 239 186 228 222 223 216 206
172 157 172 159 153 166 151 154 168 170 152 166 147 165 180 167 171 174 184 189 182 178 174 188 177 197 173 182 168 196 187 192 189 188 192 160 191 175 210 199 252 182 313 218 335 304 233 161 173 197 234 133 228 225
161 168 166 133 169 160 152 161 150 165 165 167 168 177 176 177 183 172 180 164 169 180 170 186 190 173 177 168 182 185 187 184 195 188 200 198 187 183 202 192 237 225 200 283 205 352 312 285 266 256 182 243 184 202
177 159 172 172 145 170 166 180 167 149 177 173 168 157 179 169 165 173 162 166 180 168 178 183 187 198 182 184 197 171 185 184 188 189 185 196 177 190 178 219 203 225 237 211 297 457 394 323 295 273 272 266 243 244
178 168 174 173 168 135 150 183 163 170 174 152 174 174 153 170 159 176 168 177 167 161 181 176 185 186 176 185 196 171 185 193 178 206 174 196 201 205 199 200 209 192 224 231 231 265 303 430 341 315 292 283 273 270
184 165 145 161 168 150 165 173 156 176 173 169 142 180 181 175 174 168 173 168 173 178 178 175 187 185 190 188 181 168 181 197 182 188 203 182 182 171 198 191 219 207 202 203 260 222 264 324 407 382 369 308 294 285
186 178 176 179 181 192 172 170 179 146 170 179 177 158 181 173 177 164 155 182 179 171 167 181 175 190 188 187 195 190 174 164 198 171 198 205 174 196 177 180 211 211 229 211 205 237 215 317 328 399 365 343 337 317
182 157 187 190 195 195 197 145 190 164 180 182 180 172 178 172 155 186 163 178 182 183 178 186 190 180 169 191 185 185 178 174 186 170 186 190 203 204 198 192 228 208 234 213 199 227 225 219 325 311 402 377 340 323
195 179 196 191 179 184 190 158 157 193 194 193 173 186 136 169 152 167 183 181 186 187 186 178 184 188 169 186 156 188 191 171 189 189 214 185 187 171 183 198 205 217 227 209 224 226 230 199 307 317 374 403 377 358
203 207 191 197 190 192 204 188 185 177 188 202 197 183 185 188 148 177 179 189 191 186 169 183 183 180 188 171 176 189 182 194 199 185 204 192 184 195 205 205 189 203 213 230 233 213 232 243 260 313 301 431 412 377
254 211 192 192 190 187 171 194 178 183 194 189 190 177 187 163 175 182 194 193 191 200 150 181 177 193 192 185 175 173 211 196 203 193 187 199 201 209 203 209 209 207 228 230 204 255 225 234 252 299 307 347 332 402
251 223 299 220 195 193 177 198 203 191 215 204 186 203 183 184 195 150 130 180 183 136 185 179 182 202 139 149 198 194 153 209 181 183 204 186 195 209 212 221 214 230 209 228 239 215 203 210 254 283 312 288 329 429
262 254 260 239 192 218 205 204 191 227 206 211 168 209 207 187 194 195 158 183 193 217 187 189 194 184 196 175 140 199 208 187 191 209 212 201 219 217 213 227 226 202 219 229 244 240 228 206 254 269 309 300 319 330
271 287 271 248 239 240 220 198 201 198 189 179 134 173 186 186 180 190 135 186 200 207 218 214 216 143 184 196 197 195 216 212 197 201 218 195 209 218 213 218 225 208 227 233 237 228 205 197 250 268 302 301 311 323
302 279 334 256 228 278 271 213 261 223 195 198 207 205 189 227 211 209 219 216 180 210 220 204 206 192 186 190 211 224 179 174 191 228 216 209 212 218 223 232 213 229 222 229 217 240 245 237 224 282 302 299 304 310
329 268 278 297 290 305 257 321 264 276 136 245 261 246 228 228 233 210 212 215 157 220 221 216 191 192 220 212 236 139 178 231 211 230 207 226 235 225 225 225 225 227 214 191 231 236 254 244 257 290 304 296 309 301
382 364 379 407 323 332 331 299 296 266 142 243 238 173 227 209 231 226 214 215 159 196 152 152 181 236 164 216 257 207 172 128 187 210 211 238 222 233 231 241 219 219 224 191 237 257 251 269 255 290 305 296 312 304
351 387 403 348 298 364 318 321 315 220 225 207 269 293 223 219 237 227 229 242 212 218 190 215 186 209 223 155 236 203 210 227 251 233 219 213 228 233 238 230 250 194 245 231 235 249 255 268 254 298 304 292 314 315
358 358 355 366 373 394 371 347 330 295 295 294 288 261 241 234 232 263 255 194 145 153 212 166 233 239 214 172 224 222 155 242 182 257 232 236 241 236 224 230 247 248 227 232 240 254 267 267 256 299 299 298 301 313
331 344 374 355 385 362 348 381 391 316 310 251 268 226 232 266 265 284 259 206 201 163 150 224 137 224 227 228 244 241 236 174 217 226 251 266 228 235 250 260 249 254 234 239 249 256 262 254 301 298 290 297 296 341
331 333 363 374 359 360 381 342 310 307 323 313 292 280 264 261 265 267 180 244 204 244 242 248 214 147 240 214 245 229 196 227 239 234 181 248 223 233 258 255 245 241 243 246 251 267 294 306 303 292 289 289 299 398
326 341 357 369 350 377 373 374 377 317 302 292 248 269 262 263 282 151 116 249 231 243 221 252 245 234 228 262 197 189 185 239 218 218 244 255 220 227 248 227 244 235 236 237 252 298 313 309 295 289 292 290 297 386
332 362 345 368 370 348 367 390 396 405 320 325 392 344 324 317 297 155 247 272 276 271 235 239 223 238 168 240 236 224 239 216 224 238 251 241 227 226 230 225 224 227 226 242 308 317 307 295 293 293 293 310 400 363
337 373 376 361 367 379 384 147 141 134 330 358 301 293 287 278 282 281 280 283 182 268 228 259 250 238 243 251 245 182 232 233 238 246 231 241 235 226 224 232 224 218 237 286 316 305 304 294 291 292 313 406 385 339
401 404 364 396 394 376 371 373 376 376 369 383 296 293 286 274 259 258 269 267 264 270 264 267 252 250 250 241 240 254 235 245 252 234 242 256 250 255 261 246 220 238 309 315 307 312 295 293 299 333 410 388 346 327
384 397 355 415 372 376 361 355 357 353 179 356 395 347 303 289 285 270 266 232 270 151 238 236 231 278 251 220 249 240 247 232 259 259 259 267 263 244 259 237 246 325 316 308 308 298 300 309 421 406 383 355 329 316
402 391 417 412 386 366 361 339 343 347 337 340 353 333 330 281 270 208 257 259 177 257 278 295 185 265 181 218 263 255 242 261 285 282 243 248 269 275 266 328 318 302 316 302 303 308 319 417 405 375 357 331 317 304
389 376 411 432 377 364 361 353 352 356 339 325 338 329 311 275 265 264 267 271 275 159 238 257 263 277 279 261 275 272 282 265 252 261 275 275 289 324 317 308 312 313 302 303 311 440 411 391 368 354 330 320 302 289

GFSWCAN_2pvu_pres_102.txt.gz
Presure
132 168 163 160 173 174 157 170 165 165 162 159 165 152 179 168 182 162 173 183 181 191 170 191 161 180 193 190 196 171 196 206 179 177 213 227 201 215 212 196 217 211 233 292 270 264 254 175 236 240 230 198 233 229
161 161 165 152 175 163 165 158 168 157 161 172 165 167 183 163 176 181 157 175 171 180 189 183 192 189 192 183 189 195 205 182 200 206 201 182 208 206 211 215 242 208 238 127 146 242 265 258 139 242 240 228 233 195
170 169 164 163 168 166 163 177 150 164 171 173 182 162 163 184 162 172 195 180 168 185 172 170 179 162 192 189 189 173 199 190 200 189 200 197 192 180 191 194 214 193 194 218 195 144 274 277 172 259 177 232 239 183
165 134 153 128 152 163 172 160 169 178 171 178 167 179 171 166 184 159 172 171 190 189 184 173 180 186 178 171 189 183 185 193 197 192 191 187 201 216 191 202 216 224 183 199 198 202 203 240 284 143 181 135 244 206
166 163 151 136 159 169 164 170 148 178 161 172 167 173 173 169 168 179 177 192 182 164 181 176 157 190 190 163 156 197 182 188 181 191 196 182 183 209 198 199 193 191 224 196 193 136 175 206 277 187 295 170 160 186
167 165 169 174 158 163 157 151 165 155 146 159 173 163 145 163 172 181 158 183 182 172 167 171 177 179 170 176 189 175 187 186 191 189 187 189 194 204 173 208 196 181 199 196 216 220 225 216 235 237 229 314 292 272
165 156 169 160 144 155 163 147 160 169 161 151 150 171 165 153 173 175 170 172 162 177 169 177 176 178 176 162 191 183 178 196 185 188 180 171 182 192 199 194 207 197 179 191 206 224 170 200 233 227 234 253 328 312
178 163 174 171 163 168 179 162 158 161 177 172 158 151 163 159 169 179 178 179 182 175 169 172 180 171 179 182 176 187 185 192 182 172 181 187 169 171 204 190 166 209 197 196 196 216 221 226 187 232 229 335 301 351
171 182 177 174 178 169 175 168 163 164 165 170 174 142 151 171 169 173 182 178 166 167 164 178 177 172 167 184 171 192 189 186 195 180 179 171 194 202 204 184 183 196 175 209 189 207 224 222 234 191 264 229 234 343
184 189 184 188 180 180 182 169 172 177 141 170 167 168 175 166 187 170 154 181 175 158 168 176 180 178 178 176 176 164 182 189 188 185 187 197 181 185 198 199 214 178 193 211 192 208 223 222 215 233 198 240 231 239
183 183 180 183 184 185 170 181 161 167 184 171 136 187 175 172 171 167 170 169 182 168 179 188 164 181 180 180 178 184 185 176 185 183 176 190 181 195 214 199 189 175 187 212 210 199 211 219 216 230 243 254 217 229
208 187 205 183 193 170 192 183 184 189 180 190 171 167 183 182 182 179 178 179 154 176 183 176 179 172 177 177 187 193 184 182 186 188 163 194 184 216 200 192 208 199 198 216 208 200 214 217 217 221 235 249 223 219
207 211 187 204 183 192 156 197 179 183 140 181 188 182 181 185 193 184 186 144 144 179 185 187 170 192 181 186 166 190 180 191 175 188 192 190 200 204 206 202 185 191 183 198 200 209 221 212 213 226 233 234 242 213
211 234 185 225 196 210 197 194 204 195 181 180 186 187 187 193 180 177 192 188 187 193 190 178 178 184 186 190 189 181 197 172 184 194 172 185 201 191 198 219 203 204 189 209 225 210 221 222 217 225 227 214 245 241
248 242 242 230 241 231 226 203 204 192 214 204 200 196 165 198 181 167 166 183 186 190 153 175 163 194 189 196 173 187 179 204 184 187 187 186 205 222 183 202 175 208 204 216 230 224 220 218 215 226 210 232 241 255
311 313 256 239 223 232 225 230 231 220 196 217 185 215 199 179 176 191 191 161 208 205 190 192 195 190 202 174 181 198 187 181 194 187 192 211 206 172 212 210 198 220 206 225 214 237 238 235 222 226 214 240 209 251
309 261 298 217 239 268 235 242 270 232 222 207 212 212 188 206 180 189 170 198 201 142 206 162 178 212 198 203 165 146 188 135 210 216 201 190 185 211 210 221 201 211 214 217 223 194 220 227 231 225 218 196 236 250
358 323 285 309 267 294 291 244 252 263 234 226 207 210 211 174 215 199 192 207 166 193 219 208 203 204 159 211 192 137 139 130 138 204 132 207 209 207 202 217 223 216 257 235 216 243 231 229 230 223 233 244 237 247
283 346 207 333 359 310 298 267 258 243 220 243 276 235 238 212 187 204 210 198 229 207 197 181 171 213 166 151 199 156 195 177 197 218 199 212 204 211 211 227 162 234 232 215 235 250 231 223 225 238 246 227 239 248
348 352 359 283 292 364 335 339 277 371 334 260 313 280 255 234 216 211 213 140 148 195 188 194 203 205 204 207 201 155 138 219 228 208 188 130 134 204 202 183 203 256 225 233 227 240 236 226 233 250 247 255 241 250
321 323 340 355 362 307 274 357 356 329 298 298 303 292 244 263 276 226 222 231 166 233 231 201 153 214 164 222 191 133 136 222 238 138 212 219 212 210 216 222 222 213 235 221 230 241 243 229 246 254 245 237 251 250
306 318 318 332 343 351 352 365 335 323 314 341 298 311 226 255 283 307 168 258 248 267 245 250 212 214 235 211 184 217 241 212 232 223 211 197 218 222 221 221 216 235 243 230 226 239 225 227 239 255 237 235 241 242
301 305 308 315 321 335 344 342 364 385 354 314 322 317 217 249 274 330 264 288 253 227 227 146 230 154 167 234 202 247 233 230 235 182 225 211 229 230 226 218 199 248 237 219 224 256 243 224 226 220 258 227 228 243
294 299 296 306 313 315 331 337 352 396 368 375 388 358 377 256 320 237 309 298 284 191 312 161 210 138 282 168 258 146 213 182 227 240 232 160 231 158 230 156 268 251 225 230 223 227 246 227 213 231 266 226 228 243
291 294 294 301 305 311 316 326 337 360 403 407 410 346 365 389 330 261 429 358 276 143 277 272 271 293 199 199 252 243 236 147 263 248 206 170 143 246 236 236 222 256 228 232 251 233 244 255 229 227 247 226 234 246
361 302 298 297 300 305 312 323 330 352 421 404 388 402 402 389 374 344 209 132 313 257 292 273 265 290 277 294 269 243 218 244 250 244 232 223 224 261 235 215 257 256 234 240 231 234 246 241 244 240 249 274 238 266
353 359 340 294 296 302 302 308 319 345 400 401 384 404 381 424 419 388 336 277 303 228 187 187 238 263 233 246 194 251 233 180 249 156 203 238 248 243 238 177 238 179 249 263 226 238 244 252 267 255 269 240 256 314
369 374 306 291 293 297 289 299 332 351 354 380 399 370 421 383 423 175 369 312 308 280 292 294 294 279 271 277 262 142 258 165 246 259 247 253 241 178 229 193 268 238 261 240 240 240 257 251 262 266 246 310 316 306
381 381 375 377 293 293 303 310 330 336 366 377 381 127 398 420 341 405 314 312 315 316 311 297 283 171 283 256 240 153 266 266 253 260 268 254 296 238 241 206 237 256 238 238 254 258 252 277 263 257 317 312 309 296
387 386 386 374 356 335 333 319 334 334 374 335 375 360 375 384 395 377 324 304 311 200 290 285 282 263 207 263 284 275 205 184 177 252 271 284 262 254 250 244 239 247 250 253 265 256 272 265 268 320 322 313 299 297
387 284 376 378 102 370 332 335 323 325 380 370 361 368 369 379 398 356 335 387 399 298 316 315 308 294 267 243 272 271 251 264 263 267 290 280 265 256 228 254 264 273 265 253 263 266 275 312 326 320 307 299 296 341
389 393 388 372 378 380 397 384 321 331 352 376 371 380 373 379 382 367 352 301 316 301 296 287 282 273 274 272 191 257 168 170 215 196 229 190 270 252 287 284 253 242 263 274 285 286 330 324 313 304 301 297 421 405
393 385 385 389 386 364 402 385 377 343 372 348 376 363 364 367 377 342 362 327 367 325 293 284 284 278 265 199 264 264 206 247 251 288 250 261 271 276 235 242 255 268 278 288 329 325 314 305 300 300 393 412 390 368

GFSWCAN_2pvu_pres_105.txt.gz
Presure
137 140 158 172 172 155 175 167 168 168 170 155 160 169 189 165 172 174 186 166 178 181 178 193 175 183 180 185 180 163 173 189 195 198 206 201 197 200 197 194 190 205 193 194 202 221 221 200 232 195 227 247 185 225
171 162 160 169 163 165 160 171 161 168 174 158 165 172 156 178 181 167 173 175 169 176 195 172 181 189 176 168 193 188 180 181 192 188 192 183 190 189 198 196 212 201 189 207 196 223 213 220 197 182 189 230 248 235
172 159 120 169 165 166 170 143 165 168 159 174 166 178 173 169 176 169 155 165 179 170 168 185 176 172 187 183 172 177 189 196 185 179 183 198 195 209 187 191 199 198 195 220 192 216 219 231 223 152 176 254 198 229
165 177 159 171 172 171 161 168 135 163 170 169 190 182 171 178 179 170 172 177 170 173 178 170 175 181 168 177 192 188 162 179 175 178 195 185 183 179 182 209 198 213 201 208 219 191 185 218 234 218 204 181 229 215
165 179 162 171 159 164 173 166 157 144 170 171 155 177 190 161 173 182 173 161 178 180 166 172 181 174 177 184 154 157 192 186 188 188 175 177 184 169 184 181 204 188 183 179 205 212 205 210 229 225 223 217 189 252
166 183 177 177 163 173 162 159 167 165 161 165 171 156 170 157 164 169 155 183 166 168 179 179 172 181 182 175 178 173 172 168 186 154 183 193 181 170 179 198 187 205 206 187 181 217 224 212 209 223 221 221 223 233
181 171 180 185 179 169 168 168 169 170 166 170 169 157 169 157 171 158 168 178 172 178 175 172 179 171 189 183 177 180 179 178 175 176 187 190 201 167 196 191 176 170 189 210 177 171 208 207 216 212 186 231 224 228
153 167 167 172 179 179 180 181 170 157 169 163 172 182 169 170 162 173 145 170 160 178 174 173 174 168 189 180 182 170 177 182 179 185 183 183 186 193 172 190 201 194 189 211 200 204 188 213 225 210 222 201 221 231
177 174 188 182 183 182 179 180 181 175 177 173 172 171 170 177 165 177 174 164 152 166 173 176 166 193 169 178 188 177 182 175 184 187 191 171 197 187 186 184 208 187 215 196 187 201 207 201 195 215 216 229 240 226
192 196 175 179 175 191 180 187 197 192 192 149 184 175 174 172 154 180 172 170 143 156 180 181 178 163 169 183 173 177 171 185 180 192 191 172 184 192 197 167 197 185 207 190 212 209 197 212 217 223 220 224 234 235
209 201 179 195 199 184 183 191 182 186 198 189 180 191 174 181 182 142 182 160 176 171 177 183 168 187 190 184 178 182 186 195 191 183 196 188 194 189 185 186 193 200 199 193 197 208 210 206 217 205 239 185 214 231
212 201 218 130 198 195 162 183 185 196 192 174 199 195 193 193 181 183 151 153 173 170 149 177 184 180 171 179 178 190 198 194 180 183 185 179 196 197 179 184 197 199 201 188 208 216 202 211 220 217 248 226 213 234
201 231 234 234 191 204 197 195 200 171 206 196 197 203 197 206 203 181 189 182 187 180 177 182 182 181 175 185 189 170 176 186 180 195 181 193 208 189 188 201 210 201 191 190 206 198 220 211 221 221 242 222 233 254
250 254 217 234 210 205 226 210 216 208 207 183 207 205 204 211 206 199 175 195 185 200 192 181 184 190 198 191 179 143 197 186 170 192 184 185 137 180 204 212 211 220 199 193 209 195 209 195 212 215 212 243 227 236
239 247 262 255 266 256 249 222 217 253 222 184 213 202 214 146 203 204 193 216 209 196 183 189 188 193 183 192 179 188 155 193 156 150 177 196 161 118 198 191 194 207 216 180 200 200 214 196 210 185 220 224 232 232
296 305 301 280 305 261 302 269 251 243 245 264 198 193 204 209 187 199 210 204 212 216 222 208 207 169 197 191 195 187 189 144 186 171 195 153 184 158 186 134 167 213 202 209 215 203 215 206 183 182 219 223 245 226
358 336 389 316 288 353 297 232 237 247 251 248 321 204 239 239 225 227 212 212 218 201 223 192 209 236 177 172 114 128 145 154 183 189 180 194 181 122 167 178 189 188 208 223 216 219 217 224 166 219 214 223 238 232
365 345 374 366 322 302 324 315 310 307 262 290 255 238 270 253 212 226 219 224 223 232 236 241 255 232 208 159 199 150 129 124 123 132 131 118 159 200 205 195 192 142 210 199 213 190 221 221 220 222 217 224 236 218
323 340 331 348 344 349 365 353 333 317 370 331 332 336 288 253 266 291 288 224 248 260 272 262 250 225 211 108 174 216 212 201 209 219 219 135 203 166 196 201 204 183 199 217 184 230 247 216 217 225 228 225 238 241
309 304 316 320 331 330 342 357 346 339 385 382 379 346 331 278 327 377 326 160 320 197 242 247 239 247 243 236 203 180 175 160 162 195 216 146 133 205 184 217 198 213 226 215 227 229 216 225 217 219 233 229 242 242
358 303 295 303 319 330 321 328 345 354 362 367 380 395 404 400 383 382 286 314 269 272 306 303 395 232 239 260 146 139 216 195 235 235 134 143 221 214 229 226 227 244 241 234 172 223 239 172 220 227 235 224 240 258
354 343 348 289 309 312 325 326 329 323 338 341 352 321 299 347 381 367 375 360 321 310 303 225 337 337 245 223 172 222 232 180 181 235 222 169 228 217 191 252 255 224 224 181 239 222 216 238 187 229 239 240 239 231
437 387 390 341 301 294 302 312 314 327 330 339 346 354 365 379 447 348 297 368 359 240 161 291 267 305 308 251 272 221 297 257 243 253 264 204 222 254 199 226 238 232 236 240 232 227 243 263 232 235 252 247 198 235
422 407 413 408 401 302 311 299 308 314 322 324 332 335 346 357 369 415 418 376 329 188 301 190 284 281 159 179 150 161 252 261 290 211 281 157 260 245 237 245 246 183 138 182 260 231 239 190 229 243 264 239 237 257
398 396 388 403 401 403 334 308 301 303 306 311 323 329 332 343 354 364 104 235 380 361 308 270 337 346 243 293 174 186 253 291 303 300 178 257 232 151 266 268 276 141 208 247 233 181 235 220 245 190 242 241 202 238
395 393 397 395 397 401 393 396 304 297 299 300 301 315 326 331 336 207 312 217 409 382 218 276 296 309 325 317 305 287 297 143 275 240 243 210 194 275 157 273 271 294 254 232 238 204 221 241 208 244 245 200 223 248
389 405 387 402 391 394 390 384 299 291 292 295 294 299 312 319 277 231 213 129 134 297 374 357 379 346 337 318 300 156 280 307 282 160 286 296 288 174 263 270 262 253 242 170 246 243 246 260 247 283 256 250 248 245
404 400 397 373 386 387 372 376 379 301 289 290 286 295 305 311 132 134 328 246 400 383 399 382 363 310 342 374 298 342 338 319 311 307 289 284 164 269 251 248 247 253 245 210 247 253 254 252 282 222 259 271 269 252
400 229 380 385 384 382 379 383 383 305 288 286 288 292 299 296 296 323 381 242 344 351 401 370 351 326 331 324 329 314 308 304 292 281 280 267 148 256 262 261 175 239 220 258 247 211 266 186 271 278 274 277 258 271
396 393 384 387 390 384 379 380 371 372 322 287 289 295 303 283 307 328 366 375 377 374 382 409 395 378 362 381 312 308 304 292 283 280 265 276 216 265 258 243 261 212 227 195 271 268 252 248 254 240 259 276 275 275
385 376 379 380 388 381 371 334 369 372 283 285 294 308 288 298 325 372 369 372 366 363 366 379 348 381 314 314 306 298 289 293 287 288 281 198 156 247 269 264 180 182 262 202 206 284 259 271 265 275 278 275 290 326
375 380 379 380 378 378 371 371 375 367 364 365 322 300 306 322 338 392 374 349 353 355 362 360 377 307 299 293 292 289 281 277 271 266 261 264 276 283 277 209 253 261 181 214 200 210 286 264 274 274 278 332 318 312
376 372 376 375 380 327 383 371 375 374 364 344 362 355 334 341 360 413 365 356 355 357 369 262 370 344 337 297 287 280 315 262 152 277 275 246 259 264 256 241 192 263 259 258 267 273 276 271 279 286 329 313 305 312

GFSWCAN_2pvu_pres_108.txt.gz
Presure
143 173 162 131 167 145 170 161 166 177 172 159 171 149 160 160 177 184 160 188 176 169 169 179 174 197 186 186 184 182 183 189 195 192 184 185 185 192 208 201 198 208 195 195 215 234 212 209 200 218 224 225 139 134
150 169 162 159 170 165 139 124 167 164 169 164 169 175 172 162 165 187 187 196 164 177 167 184 176 188 159 177 188 191 173 178 171 174 199 191 197 187 181 184 206 202 190 183 203 192 196 193 186 230 192 205 228 224
167 147 173 172 170 173 171 140 161 172 169 171 159 170 173 150 180 174 181 179 182 176 157 178 181 171 185 174 162 182 191 191 196 175 177 184 189 169 188 189 188 191 207 204 195 195 196 195 216 225 217 230 227 227
158 175 149 155 141 171 163 128 177 170 169 172 168 139 167 169 173 163 175 168 157 171 170 171 167 187 175 175 192 168 163 161 186 178 192 192 191 184 171 176 202 199 186 201 177 214 203 186 193 211 225 225 220 228
159 173 163 169 153 176 153 169 161 165 173 166 164 167 139 165 163 173 172 172 174 179 180 160 180 190 185 169 177 183 173 175 187 169 191 174 181 182 192 189 170 197 193 181 201 204 214 191 198 209 206 222 216 221
183 161 168 163 171 140 166 143 153 154 160 170 151 178 173 155 161 173 164 170 152 171 173 162 168 176 179 173 181 167 168 179 175 195 177 182 180 174 183 209 211 201 201 199 200 207 208 190 200 187 224 210 212 189
187 177 143 179 175 181 180 174 159 180 135 183 169 151 176 176 171 162 172 180 170 144 167 178 180 171 176 180 178 165 167 190 177 192 153 153 189 191 199 173 206 197 178 203 181 204 191 195 210 193 222 214 216 221
161 189 186 144 173 174 183 181 182 175 178 160 176 172 171 180 178 166 172 172 168 166 176 163 175 151 155 170 170 179 178 181 172 174 176 175 189 191 191 201 186 194 194 177 185 210 188 223 200 193 209 200 215 217
183 197 184 191 198 176 184 163 183 168 157 169 185 187 174 172 179 185 169 174 176 184 161 169 182 169 171 172 182 178 174 166 174 180 177 160 188 185 183 189 185 197 185 198 188 207 196 193 202 203 191 182 213 211
221 204 210 200 188 148 191 199 194 187 188 189 170 180 159 183 194 186 179 152 173 183 161 168 175 177 179 179 172 183 180 187 169 170 183 174 178 183 194 186 204 202 185 188 197 182 184 195 185 203 206 198 215 203
201 199 205 195 184 200 198 199 177 187 202 205 194 198 202 183 191 187 189 185 180 179 171 175 141 152 179 177 177 179 185 187 176 174 175 174 181 186 183 198 187 180 194 202 195 197 188 203 203 181 206 204 219 201
219 204 208 204 215 212 200 196 175 136 208 200 200 205 206 203 203 179 178 175 173 183 186 192 185 159 148 172 183 188 187 183 189 190 188 162 186 187 190 190 179 187 186 196 200 191 190 187 199 191 202 201 213 207
205 201 213 213 213 218 220 224 215 214 219 214 223 210 211 201 207 207 163 206 188 184 192 195 188 202 193 186 185 194 193 179 194 190 195 179 187 195 194 155 188 189 189 178 182 181 187 191 194 200 213 197 209 189
224 228 216 231 235 234 195 214 231 187 225 231 230 222 207 209 188 203 163 201 205 207 180 182 203 205 196 189 150 201 208 192 180 182 165 170 178 188 197 127 191 149 187 163 200 188 202 173 197 198 202 209 182 211
223 243 240 259 245 226 260 240 234 250 252 245 236 229 212 224 217 229 225 205 204 204 218 186 209 220 190 211 216 222 210 206 202 183 177 194 120 188 164 203 183 199 185 132 203 185 176 202 195 202 215 204 212 215
258 272 317 277 279 291 279 257 262 269 212 254 262 248 272 199 224 245 217 229 226 222 248 245 229 199 224 245 200 210 226 215 165 129 132 175 154 165 204 211 158 207 170 138 177 184 208 214 212 213 194 209 208 214
236 315 266 260 261 293 327 298 272 294 267 298 257 374 308 259 245 216 270 267 213 251 256 319 217 261 236 236 259 250 215 146 156 156 207 219 227 212 227 242 120 242 138 209 198 195 201 209 217 216 216 172 203 234
345 332 340 353 338 265 277 277 288 361 387 403 338 311 350 276 332 336 361 271 288 247 340 245 340 338 283 276 159 224 133 136 123 194 130 164 134 153 192 231 217 228 241 162 160 223 192 219 218 209 227 205 226 226
300 320 320 332 327 332 317 275 317 357 328 354 359 359 366 287 290 388 353 331 370 355 332 293 350 343 275 247 246 122 275 235 193 209 229 250 249 240 161 241 250 234 190 227 212 217 201 220 223 209 210 225 224 250
333 336 297 302 301 305 332 334 326 329 335 334 355 362 355 384 372 375 379 360 337 365 393 351 309 292 286 160 255 219 212 277 141 129 213 244 251 252 200 234 246 126 235 248 258 213 203 191 182 205 199 233 246 192
337 339 343 324 331 337 339 347 356 350 338 306 314 316 335 354 357 357 368 366 382 369 359 358 383 329 304 311 312 315 321 311 312 248 255 288 150 305 308 104 299 187 203 148 218 225 190 238 223 244 201 254 227 167
431 425 418 428 358 338 374 347 340 345 363 359 334 306 312 332 342 335 354 357 357 338 373 322 361 332 331 334 315 309 312 340 326 321 410 353 305 253 195 181 303 257 230 168 237 167 247 237 216 207 257 227 187 238
403 403 410 410 415 422 454 439 409 347 360 359 365 346 314 310 339 328 333 344 345 332 342 358 369 376 389 374 382 368 360 219 220 298 290 218 257 281 335 327 319 298 282 210 283 266 246 202 257 259 232 226 262 171
372 396 403 399 307 425 433 445 451 157 379 345 353 359 321 306 312 328 336 327 316 320 293 337 375 386 176 255 380 371 356 311 354 350 265 299 185 341 316 326 158 281 295 299 181 226 273 249 191 232 174 260 259 229
371 386 394 410 95 422 426 436 436 350 433 402 343 354 354 297 293 308 310 118 149 129 271 99 285 398 399 381 371 362 368 274 197 361 278 289 329 315 304 301 179 303 217 162 249 237 258 246 246 215 292 281 280 253
376 390 407 410 415 164 413 415 419 416 428 425 390 354 346 317 308 298 200 280 181 315 322 334 327 358 377 390 371 353 344 343 283 162 292 304 298 202 225 282 196 258 186 290 273 279 282 244 274 208 245 200 257 255
79 207 388 391 294 404 399 406 411 419 419 418 419 410 368 335 311 278 133 225 277 312 134 198 126 349 347 359 286 143 351 221 348 338 332 331 328 330 299 262 280 243 288 293 285 276 256 267 263 277 262 255 248 238
368 366 366 390 404 408 400 408 406 406 405 409 407 389 391 385 326 278 293 119 123 119 133 130 323 156 381 371 394 372 385 407 331 318 280 319 382 363 278 279 270 159 271 260 260 271 263 201 192 250 257 240 256 178
351 349 356 374 410 411 413 406 411 404 403 388 385 379 381 370 365 148 115 115 112 297 308 311 318 385 381 396 390 380 400 358 323 336 342 333 333 348 301 324 182 292 280 274 264 260 177 250 260 264 199 198 252 197
352 344 361 393 410 280 403 392 396 394 387 380 377 380 381 381 367 297 291 289 289 296 300 301 215 363 361 363 376 373 359 387 383 325 317 331 301 263 244 288 278 270 267 267 269 267 217 276 253 230 273 207 282 265
337 340 371 382 389 381 377 384 389 378 372 375 382 380 379 367 358 295 290 288 288 230 294 305 323 362 341 363 389 368 364 363 341 352 309 310 301 301 280 276 277 270 269 268 209 278 263 255 264 238 260 263 262 268
331 353 370 379 384 382 375 377 379 377 375 374 378 373 377 379 384 344 285 282 294 285 291 312 323 372 366 359 365 371 386 371 328 315 339 307 288 279 285 281 279 149 210 277 275 268 287 272 264 261 270 262 276 270
351 359 369 373 378 377 377 367 376 384 377 382 375 373 377 386 398 379 281 289 319 298 309 323 390 358 343 336 312 371 362 365 371 343 307 293 285 289 280 255 251 287 266 267 264 193 269 191 269 275 270 273 277 281

GFSWCAN_2pvu_pres_111.txt.gz
Presure
144 150 144 158 158 161 164 125 156 157 127 169 164 151 174 170 169 160 167 168 174 181 166 176 174 189 177 171 182 183 166 188 170 169 194 197 172 174 176 170 210 173 179 189 197 216 205 213 201 199 219 233 217 191
185 164 167 144 152 161 162 161 155 166 168 173 150 168 161 145 179 172 152 179 175 179 177 162 161 170 187 176 193 172 198 168 191 185 173 188 196 175 193 189 206 178 168 188 170 204 206 199 224 207 194 222 181 220
147 159 143 143 145 164 158 156 169 166 162 168 145 171 153 175 170 136 157 149 176 176 160 178 183 174 165 183 179 184 179 175 193 160 162 181 198 194 178 184 200 185 207 199 180 183 207 197 196 197 203 200 192 190
154 143 160 143 141 151 160 154 163 154 141 156 169 130 170 171 159 171 167 168 161 153 165 185 181 155 187 184 159 173 184 172 195 188 179 182 168 188 186 163 181 172 175 201 195 186 189 170 196 178 172 176 177 182
162 156 165 176 164 163 166 164 165 172 169 165 173 170 168 172 168 167 169 145 135 168 169 175 169 183 173 171 160 182 179 193 186 173 186 178 174 173 171 178 189 195 184 191 199 196 202 184 181 191 209 195 209 209
179 184 137 166 181 184 177 178 172 167 179 146 167 132 175 170 144 163 168 155 172 176 171 167 173 168 158 175 159 169 177 187 160 182 173 180 177 164 161 173 204 181 196 174 200 200 176 192 186 179 194 194 186 194
171 188 192 144 179 145 150 156 150 179 166 176 184 180 164 175 170 150 173 165 179 169 172 167 172 180 174 178 148 143 182 187 177 191 182 185 176 172 163 172 174 183 195 185 189 200 180 182 201 190 197 197 197 207
195 180 193 191 183 194 203 190 189 188 183 161 168 165 184 175 175 174 181 180 164 179 165 170 161 167 176 182 181 179 180 164 176 177 177 174 179 167 177 176 178 165 175 190 198 176 194 185 183 191 182 183 198 169
204 189 205 130 192 205 206 185 219 191 168 191 186 184 190 186 188 180 180 196 181 183 174 170 172 179 154 174 151 184 186 182 188 178 176 170 171 179 178 185 193 185 190 190 191 192 190 186 182 181 181 198 193 199
211 202 199 201 191 182 188 194 210 211 192 197 188 190 191 192 188 187 148 189 186 191 184 177 181 164 168 172 180 187 194 187 186 181 180 180 176 180 178 184 185 189 191 192 191 190 171 196 195 191 198 185 195 200
220 189 195 210 206 221 211 213 193 223 215 177 187 195 204 186 193 188 185 182 189 185 184 186 184 187 181 177 186 194 178 153 185 187 178 185 167 181 191 191 190 191 195 190 182 192 180 190 189 187 195 173 179 189
205 203 187 206 212 201 212 192 187 197 192 187 191 224 219 190 204 220 206 184 191 162 193 185 194 198 205 204 167 196 169 188 186 188 186 185 183 186 185 187 198 197 179 201 198 193 203 170 181 175 197 173 200 194
210 235 220 219 212 218 177 210 205 199 197 198 191 194 207 208 203 217 187 169 181 188 218 205 198 199 234 221 226 230 181 188 205 194 202 191 173 181 191 192 191 142 199 199 190 203 202 205 211 204 200 180 210 208
233 225 222 218 217 230 212 236 207 217 183 175 181 226 210 186 182 177 199 215 198 205 199 217 215 210 215 214 219 227 232 238 246 215 211 183 208 130 200 208 211 212 213 214 150 199 142 204 202 140 216 216 220 212
220 234 235 260 234 241 231 233 231 223 175 233 231 237 224 188 200 209 210 210 185 188 221 215 216 253 212 215 240 217 237 224 246 238 178 238 216 189 160 181 142 180 141 223 173 192 182 152 146 207 234 161 213 226
232 251 228 234 228 252 222 241 233 250 266 239 256 160 236 268 202 234 187 232 171 203 234 248 204 244 279 257 270 274 262 267 214 216 212 148 129 214 198 221 203 214 243 229 237 166 184 221 139 220 233 215 216 171
244 264 222 260 276 253 243 238 236 267 275 258 247 237 266 87 229 224 226 225 152 231 268 365 238 260 269 293 238 312 292 265 300 261 258 264 266 179 292 290 257 280 118 224 255 249 242 152 210 121 229 226 175 180
339 255 257 265 214 292 304 287 223 227 230 297 269 276 249 190 260 357 373 269 301 297 277 282 368 323 310 243 418 139 106 118 137 115 114 118 127 285 128 147 169 180 142 165 161 133 258 256 139 236 246 227 223 195
288 312 292 293 292 300 284 314 325 311 327 243 259 339 349 354 385 371 379 330 324 382 367 315 338 351 96 98 227 368 375 276 354 352 359 351 232 334 333 196 211 250 182 248 200 254 282 277 216 214 257 162 276 217
296 298 303 305 311 313 324 326 323 337 326 344 334 167 338 292 327 331 312 340 341 355 358 361 373 369 363 377 191 116 366 356 356 347 339 167 278 132 327 189 288 275 265 268 190 171 237 236 131 267 165 282 167 277
279 307 320 329 324 326 275 275 272 220 303 277 287 352 344 333 291 320 325 323 321 323 332 334 343 349 351 353 365 373 376 368 374 389 386 368 142 343 325 321 323 324 299 319 310 286 293 281 272 274 285 166 264 218
393 389 316 306 307 308 394 416 363 328 344 217 356 346 349 296 356 315 345 308 310 297 293 296 289 308 336 343 353 369 368 378 372 361 332 263 346 379 302 322 193 321 328 314 178 271 206 284 284 162 280 250 278 278
407 404 384 372 412 408 267 434 439 302 455 241 240 438 442 197 347 317 329 337 329 349 328 320 279 291 304 333 336 354 249 295 356 382 374 367 352 176 218 220 302 303 313 309 304 274 291 338 168 280 274 312 297 278
388 386 396 390 366 395 178 78 160 87 429 364 434 208 458 171 448 381 360 348 299 329 329 316 308 308 275 313 324 323 328 153 208 367 350 364 384 367 346 310 294 294 301 294 195 283 239 204 184 161 311 193 296 284
364 378 391 85 403 415 384 402 405 406 419 413 411 441 436 441 440 437 448 287 251 328 344 328 314 303 315 328 327 324 329 341 342 338 377 402 300 142 369 349 346 368 236 301 286 244 232 335 320 311 310 294 281 200
355 367 380 391 392 397 394 302 386 390 404 409 412 424 425 420 427 249 445 137 131 192 193 259 316 305 296 305 237 316 323 325 193 349 357 208 401 359 303 293 303 296 314 351 314 307 338 151 296 289 175 252 274 185
351 356 366 374 204 378 379 377 381 393 397 404 420 416 405 412 425 455 420 420 333 334 334 327 304 294 230 304 296 308 317 329 331 346 353 369 380 410 340 331 348 303 347 327 308 279 220 226 277 277 243 261 269 287
346 347 351 346 354 360 374 382 389 393 405 417 414 406 403 416 437 416 409 376 352 340 347 331 135 310 134 157 301 308 314 321 324 344 359 357 374 386 330 317 312 311 296 321 287 279 152 313 266 265 284 271 269 274
331 331 324 328 341 359 137 367 371 372 401 401 401 388 398 397 409 111 390 367 341 352 329 311 287 130 288 284 292 126 124 292 315 330 385 396 398 382 390 301 326 326 324 307 294 307 279 283 264 272 285 285 306 275
335 263 237 321 340 349 341 342 349 361 406 394 392 389 407 403 404 393 399 389 383 368 331 324 302 288 184 126 279 300 306 311 322 339 378 370 384 388 374 376 325 336 321 315 304 307 308 288 302 292 259 274 274 279
453 355 333 335 349 344 331 341 340 366 373 382 387 379 393 393 390 399 396 382 373 372 366 353 263 236 139 297 295 300 307 309 355 383 394 380 379 363 380 336 344 356 314 339 328 285 303 294 282 245 237 271 273 269
424 450 334 331 346 348 340 345 364 372 379 381 390 393 387 392 402 382 381 372 375 366 362 118 131 285 125 292 295 297 302 269 342 382 373 381 382 330 345 335 354 316 302 278 283 289 287 282 280 277 275 204 266 265
420 382 338 338 337 339 329 331 355 374 389 398 395 391 397 401 408 383 366 373 380 370 132 178 306 309 289 294 289 298 309 337 350 385 380 370 385 369 339 307 334 298 285 289 291 287 256 264 179 290 272 283 294 283

GFSWCAN_2pvu_pres_114.txt.gz
Presure
137 162 166 154 166 164 168 163 152 148 160 141 135 173 168 167 172 157 173 173 168 178 152 172 181 173 176 161 185 179 160 162 199 201 178 181 167 190 176 176 193 177 203 198 193 187 193 212 193 189 190 205 217 197
154 146 168 162 156 144 146 167 177 144 151 165 165 160 163 137 159 170 171 170 147 179 173 144 179 157 161 198 185 173 171 197 174 209 167 174 193 169 163 199 186 170 176 168 169 201 192 205 179 180 179 180 172 181
161 151 165 145 155 156 157 149 149 165 168 150 147 165 154 166 168 136 172 171 172 177 140 172 172 174 153 155 194 150 175 187 162 175 182 189 169 192 182 178 174 172 196 193 180 188 186 201 179 200 202 188 196 191
177 156 171 178 163 151 148 160 172 150 149 154 144 147 162 151 152 163 148 141 168 169 164 155 168 167 167 171 177 180 178 165 184 162 169 178 183 177 182 192 174 166 177 185 188 195 189 169 201 198 180 190 191 198
196 174 195 201 166 186 175 164 138 144 160 154 147 169 140 168 174 172 170 174 167 151 171 171 159 155 165 170 167 175 176 177 168 175 177 184 181 163 188 162 199 180 170 169 168 198 179 192 199 185 176 192 180 173
189 197 186 202 189 180 192 179 180 178 181 140 155 180 179 174 164 175 178 145 154 173 144 160 179 163 143 169 163 174 172 171 171 177 144 162 174 164 176 178 178 185 184 166 182 188 176 189 182 169 189 194 177 191
191 148 189 186 179 174 151 151 158 172 181 186 185 181 181 157 167 183 179 180 177 158 161 165 169 172 170 159 182 181 172 177 176 169 179 178 174 173 170 178 180 179 179 164 179 193 185 187 194 200 170 174 193 194
201 197 188 194 192 193 185 165 199 180 137 189 189 145 183 169 163 170 172 188 190 181 178 178 177 180 179 181 186 188 177 172 174 183 173 172 176 180 186 186 178 182 180 181 186 182 188 187 196 163 198 197 180 197
207 206 192 190 129 199 168 202 139 186 191 185 206 211 196 198 199 189 194 158 196 182 183 181 173 182 177 178 185 188 190 189 199 199 201 194 176 172 178 180 188 183 175 180 179 188 187 190 190 179 184 194 199 161
211 207 210 189 188 203 185 192 197 195 192 195 212 178 209 201 200 207 135 178 187 191 186 203 193 183 161 191 188 188 191 188 194 189 194 191 181 177 179 188 188 122 191 189 190 189 192 191 195 197 199 156 200 200
215 215 216 206 189 196 208 194 208 203 203 213 204 181 191 204 196 210 185 189 181 191 191 165 189 205 191 192 199 207 178 173 176 196 195 188 185 174 181 195 201 131 213 206 207 201 192 201 203 208 195 209 199 199
241 214 210 219 209 217 196 195 194 199 206 205 199 193 203 210 205 213 194 208 192 199 207 191 202 213 207 200 195 203 211 193 210 186 225 207 133 183 182 192 215 129 152 222 174 176 214 207 196 203 193 205 201 147
221 237 233 213 230 228 231 219 204 212 211 214 206 205 211 211 204 194 191 123 177 206 206 220 188 198 207 219 205 206 203 218 218 230 229 223 137 181 140 125 143 214 147 125 267 237 231 199 241 228 219 230 232 196
230 230 214 233 227 226 231 200 223 243 212 219 222 233 200 188 205 216 165 204 203 189 215 229 224 263 257 223 202 202 248 209 231 234 230 229 216 157 229 230 221 197 176 232 251 126 139 147 266 236 239 271 167 191
237 227 232 219 226 227 222 226 243 219 231 243 238 240 206 214 212 229 212 215 211 243 153 171 226 231 224 203 256 194 221 251 230 168 144 191 244 236 207 127 256 264 282 199 231 241 251 269 263 181 127 126 240 227
252 234 237 223 230 229 229 232 236 240 233 236 230 200 209 177 213 193 234 230 225 236 245 94 248 260 240 239 237 245 248 270 177 163 249 259 265 109 231 226 254 172 301 309 296 192 255 131 263 148 191 217 273 144
258 277 243 246 242 241 238 233 236 244 250 222 250 103 235 176 86 90 112 96 251 232 236 249 248 251 243 263 255 250 264 293 133 236 219 247 259 377 384 300 260 331 156 126 131 262 266 300 303 281 238 152 179 210
283 265 240 250 254 295 256 250 262 242 246 264 247 255 227 247 216 218 265 265 262 269 244 269 269 267 321 259 222 369 381 366 372 378 379 341 114 118 164 163 120 171 383 351 314 302 203 341 307 283 305 308 318 141
308 315 310 309 293 269 273 276 301 312 268 250 286 210 176 280 272 195 313 96 368 359 348 350 379 342 201 146 258 319 373 308 214 375 323 391 244 399 398 288 393 350 377 376 335 133 284 360 294 332 342 332 326 265
304 303 300 320 314 308 292 298 318 326 273 317 171 161 329 324 296 285 273 303 312 315 321 288 343 342 333 333 334 275 304 337 337 362 202 326 371 376 381 365 222 384 234 187 391 379 320 192 335 323 307 262 190 243
282 315 342 321 305 339 307 318 333 359 77 88 88 323 323 248 232 339 297 317 328 330 318 322 315 309 267 311 319 327 337 339 326 334 360 346 331 349 248 364 155 218 245 379 185 372 371 308 303 313 171 291 288 160
417 413 394 326 256 277 315 339 347 338 340 344 449 356 385 345 346 345 375 340 325 353 262 254 288 270 272 294 313 317 317 153 339 304 309 310 119 335 167 360 359 369 335 346 345 354 352 315 359 327 221 310 160 192
394 386 402 399 403 397 366 82 249 412 397 249 398 186 276 151 304 171 286 306 410 412 392 322 348 340 340 342 347 347 310 329 346 352 329 296 308 331 341 348 349 357 373 382 372 371 376 371 252 324 313 310 164 196
357 359 364 373 392 392 423 359 358 168 431 371 439 203 326 419 402 423 447 462 473 476 465 444 421 420 331 311 334 344 307 322 354 341 324 307 326 325 249 171 335 343 381 206 383 387 352 331 148 294 297 151 288 214
331 334 362 354 361 94 119 398 400 413 420 409 395 165 387 397 405 421 430 466 439 438 442 438 422 412 416 361 338 342 337 327 342 338 309 309 324 140 329 329 332 334 345 391 153 223 367 358 154 153 156 309 288 280
385 370 346 346 345 348 356 365 377 380 182 392 402 407 397 395 411 428 433 405 440 339 420 405 401 399 421 305 235 332 340 344 346 338 306 314 317 318 257 319 330 140 423 397 365 312 213 274 349 362 199 150 159 282
386 386 385 365 337 328 338 347 348 364 381 387 391 384 374 397 413 429 425 426 296 254 278 320 379 221 370 388 368 101 333 335 339 229 254 302 306 316 319 327 335 356 423 391 238 336 298 292 327 364 324 330 316 332
405 409 404 366 345 333 335 345 355 360 374 372 371 372 372 387 295 122 399 380 378 383 390 371 385 374 363 360 370 344 333 356 352 303 298 298 303 313 318 315 361 371 422 370 359 333 343 194 326 230 176 311 298 228
436 441 438 437 391 333 341 340 339 171 349 290 369 368 382 378 384 402 393 391 403 394 156 271 373 386 383 379 341 342 352 138 318 308 164 290 157 132 154 309 389 370 350 391 366 361 237 179 339 339 294 299 309 174
372 399 415 429 431 370 324 326 334 335 347 81 360 367 368 253 389 403 401 391 394 410 398 387 387 395 372 302 340 338 117 357 337 294 128 268 299 305 307 384 382 369 375 413 336 319 244 318 332 327 337 326 302 302
348 399 407 410 433 458 327 325 327 334 344 356 363 360 363 361 408 415 398 396 397 398 400 401 393 370 126 381 233 353 333 141 242 222 126 128 302 279 367 384 363 348 342 380 394 345 347 344 309 324 315 323 281 322
415 401 408 414 429 437 454 341 333 334 337 349 344 347 360 371 443 413 399 404 404 386 397 391 391 389 309 349 363 382 342 308 296 145 130 292 297 316 372 380 377 372 389 327 316 309 361 317 334 326 322 333 314 288
435 419 408 404 406 432 436 376 338 326 336 358 365 357 367 427 443 393 383 388 398 397 390 389 390 384 389 386 377 375 365 293 291 125 213 295 348 371 364 360 386 376 353 330 370 336 333 319 286 285 280 306 286 275

GFSWCAN_2pvu_pres_117.txt.gz
Presure
137 162 162 158 168 185 177 144 160 162 157 155 159 158 164 154 164 171 146 142 167 162 171 151 153 178 176 178 171 170 164 183 164 181 176 185 188 174 190 172 189 162 174 206 199 190 188 196 198 198 193 192 196 186
164 194 143 143 181 152 189 169 168 152 153 165 155 155 144 139 163 156 155 163 159 132 155 175 172 173 170 177 177 181 180 170 178 159 169 171 159 170 185 181 193 173 174 160 192 179 192 180 173 183 194 196 181 194
189 181 196 157 148 170 155 196 185 172 162 167 175 170 169 161 155 137 154 155 163 170 159 166 171 162 169 169 173 156 163 172 180 167 183 164 174 171 160 186 187 193 195 180 195 171 178 172 171 173 177 178 190 184
144 136 184 186 162 141 190 159 180 189 183 150 182 184 159 154 137 168 163 150 151 160 167 173 174 175 154 159 173 179 172 177 173 172 177 175 174 174 177 185 167 178 179 168 172 187 180 192 191 180 174 176 190 187
183 176 150 183 167 133 171 197 190 172 172 175 175 174 151 174 160 177 176 170 147 170 169 170 176 180 180 182 182 181 174 174 170 176 180 172 189 184 185 177 180 180 185 183 183 188 184 188 188 193 188 190 177 193
186 176 201 185 129 176 158 197 154 194 182 184 197 180 171 150 186 191 176 178 181 172 156 161 172 180 180 173 173 173 188 190 189 168 184 186 183 185 182 183 195 188 194 197 195 195 182 196 191 181 184 173 195 189
193 194 181 187 177 184 140 165 205 173 180 201 188 181 183 187 178 156 184 187 196 171 177 178 167 173 165 179 187 187 183 184 178 190 183 184 186 180 184 166 200 189 185 174 179 198 196 189 187 190 196 191 192 195
215 203 198 197 203 183 192 183 215 192 153 197 158 196 189 177 184 186 146 196 177 188 189 184 183 184 182 186 175 180 187 191 185 196 204 188 195 197 195 172 193 197 199 195 199 199 199 196 195 203 210 208 206 204
194 186 224 210 205 206 196 180 171 193 119 191 178 183 176 201 191 179 150 176 180 199 164 164 185 195 208 181 182 186 204 182 191 186 196 199 195 189 193 193 188 192 192 188 199 210 219 215 209 205 190 191 193 224
213 204 235 191 213 203 201 220 199 200 221 209 191 200 194 196 191 192 182 191 176 190 191 184 200 197 213 189 208 200 204 205 191 185 191 192 192 180 187 134 131 201 196 115 210 207 209 208 213 225 214 211 225 233
217 215 208 222 236 229 213 195 203 195 192 220 195 198 203 206 200 206 189 200 160 195 193 196 218 198 210 215 211 217 194 221 164 218 205 206 202 112 202 175 204 208 210 126 193 130 192 182 202 208 238 227 239 133
201 208 232 215 226 225 212 208 204 225 187 196 208 227 206 196 196 203 204 111 136 194 196 198 201 205 202 208 220 209 216 223 209 211 209 161 207 112 164 169 218 189 179 232 191 186 238 153 172 244 178 180 132 200
221 224 218 254 238 212 235 207 207 208 241 215 215 198 228 220 216 217 207 180 88 205 211 213 221 224 217 211 215 220 207 176 178 215 220 221 206 208 135 190 200 254 243 165 220 246 171 202 224 210 212 254 274 240
215 230 206 213 234 222 230 232 210 226 225 231 229 238 228 139 225 213 230 193 220 227 229 222 223 220 218 236 241 220 237 236 225 229 209 173 201 208 221 230 157 242 140 268 232 178 245 244 265 258 189 240 249 261
269 243 247 218 226 229 232 230 244 224 232 216 231 226 170 181 229 235 218 228 227 215 206 211 224 236 217 229 228 237 237 236 205 115 154 134 154 220 229 262 278 261 233 246 253 259 252 253 317 236 215 299 351 133
309 262 255 252 261 235 230 257 262 238 246 225 237 242 233 237 176 213 179 205 235 231 218 233 219 214 227 230 162 190 226 219 221 234 230 221 243 264 269 275 279 268 287 293 388 388 379 365 199 125 143 227 215 237
293 304 260 281 293 269 270 241 269 263 239 290 99 233 234 151 253 239 221 234 242 106 214 111 103 244 249 242 230 215 101 236 232 241 252 261 270 265 273 390 390 379 324 290 271 138 261 127 134 392 364 173 289 171
287 294 293 284 272 260 271 269 265 268 285 257 243 255 281 257 195 239 88 96 123 270 242 116 250 246 248 250 243 241 240 243 254 266 280 290 380 178 314 337 336 372 124 146 169 364 213 363 352 394 383 372 372 267
343 322 337 296 305 284 320 288 294 337 272 330 276 185 261 298 348 212 272 275 275 296 287 275 272 273 252 259 201 199 330 356 184 202 310 241 335 342 344 343 350 151 122 120 346 336 303 349 379 374 282 265 183 382
298 300 311 312 344 336 316 334 340 157 340 333 346 345 330 321 298 312 336 321 90 93 172 316 342 325 308 281 139 326 322 320 340 342 333 347 329 329 317 322 324 340 333 327 331 320 320 360 166 379 127 220 235 209
315 314 306 296 300 317 336 310 308 323 324 321 323 143 80 95 107 99 281 102 283 312 309 303 304 298 268 122 324 330 330 302 294 312 326 296 295 304 266 293 338 298 121 302 295 299 320 347 363 146 219 364 363 381
380 319 312 303 333 291 296 304 308 250 89 141 137 140 316 318 317 309 305 260 274 321 342 386 352 309 332 479 438 378 344 341 345 360 359 364 266 354 323 201 331 331 296 310 320 303 327 156 351 363 382 162 372 345
398 389 397 401 410 297 237 427 425 413 431 427 284 265 426 429 422 381 396 313 410 349 355 357 365 459 379 184 176 219 373 293 308 330 336 324 237 234 235 353 351 352 357 339 307 297 329 331 343 360 258 152 133 386
456 403 365 370 379 384 387 84 89 336 410 441 423 442 448 434 417 431 385 451 424 446 411 400 405 428 440 443 454 465 462 455 423 310 440 317 336 334 337 309 308 313 346 316 303 221 331 184 185 396 437 373 209 253
454 439 417 137 395 364 364 372 373 377 379 379 381 379 393 389 229 409 412 446 415 404 393 390 402 413 421 438 439 442 433 429 423 424 425 409 364 340 320 334 318 345 315 304 158 153 323 361 414 376 133 442 355 242
402 403 405 407 88 259 385 370 353 345 353 335 324 352 269 177 291 424 387 390 186 293 390 394 399 408 428 429 416 410 227 399 395 419 368 400 191 352 344 327 344 322 305 313 317 329 339 391 435 358 338 366 310 350
398 389 396 402 407 403 222 203 197 326 89 357 337 331 332 358 382 394 199 199 204 208 381 383 389 402 408 398 414 395 395 400 398 403 391 381 370 350 340 348 331 298 302 308 318 344 376 404 245 354 414 263 248 293
388 393 425 407 399 400 394 385 387 384 390 114 234 295 338 345 366 364 356 360 369 378 387 386 421 408 393 279 127 395 394 401 399 169 374 371 357 337 334 332 290 269 299 161 319 402 369 357 336 316 361 351 344 342
387 384 381 383 389 389 391 381 384 389 398 393 396 339 338 118 353 351 356 373 377 381 379 389 230 366 388 398 399 389 391 388 349 380 164 356 131 352 355 292 133 292 301 317 321 362 390 349 344 348 273 334 324 319
350 349 365 388 394 400 410 411 418 418 416 421 433 346 346 238 339 249 364 367 244 388 381 401 413 407 396 342 390 399 393 189 299 396 363 326 254 339 326 232 288 299 310 316 381 388 371 367 396 315 332 320 342 310
367 368 362 349 351 352 363 376 404 421 429 441 460 348 335 329 339 341 355 362 374 372 392 411 406 392 393 383 345 387 379 399 376 366 192 298 358 342 241 127 296 305 309 358 370 375 370 362 345 324 311 318 312 340
383 383 387 394 403 405 415 349 436 432 435 442 461 345 338 335 327 340 349 370 371 368 410 404 407 396 394 409 399 391 212 383 386 384 357 326 308 298 299 297 300 303 311 366 377 384 385 379 314 329 403 337 344 320
399 417 416 408 415 423 427 428 419 415 439 459 474 342 328 345 347 336 341 349 370 379 400 396 399 403 403 406 366 413 407 404 385 367 174 302 294 293 213 261 297 308 361 360 379 378 384 306 302 361 338 330 317 284